[[{"header":{"parameterUnit":"m.s-1","parameterCategory":1,"la1":30.6,"la2":28.766,"lo1":-90.7593,"lo2":-88.6598,"dy":0.0162,"dx":0.0183,"nx":116,"ny":114,"refTime":"2023-05-20T12:00:00:Z","depth":0,"parameterNumber":2,"parameterNumberName":"U-component_of_WINDS"},"data":[0.0,0.0,0.0,0.0,0.0,0.0,0.0,0.0,0.0,0.0,0.0,0.0,0.0,0.0,0.0,0.0,0.0,0.0,0.0,0.0,0.0,0.0,0.0,0.0,0.0,0.0,0.0,0.0,0.0,0.0,0.0,0.0,0.0,0.0,0.0,0.0,0.0,0.0,0.0,0.0,0.0,0.0,0.0,0.0,0.0,0.0,0.0,0.0,0.0,0.0,0.0,0.0,0.0,0.0,0.0,0.0,0.0,0.0,0.0,0.0,0.0,0.0,0.0,0.0,0.0,0.0,0.0,0.0,0.0,0.0,0.0,0.0,0.0,0.0,0.0,0.0,0.0,0.0,0.0,0.0,0.0,0.0,0.0,0.0,0.0,0.0,0.0,0.0,0.0,0.0,0.0,0.0,0.0,0.0,0.0,0.0,0.0,0.0,0.0,0.0,0.0,0.0,0.0,0.0,0.0,0.0,0.0,0.0,0.0,0.0,0.0,0.0,0.0,0.0,0.0,0.0,0.0,0.0,0.0,0.0,0.0,0.0,0.0,0.0,0.0,0.0,0.0,0.0,0.0,0.0,0.0,0.0,0.0,0.0,0.0,0.0,0.0,0.0,0.0,0.0,0.0,0.0,0.0,0.0,0.0,0.0,0.0,0.0,0.0,0.0,0.0,0.0,0.0,0.0,0.0,0.0,0.0,0.0,0.0,0.0,0.0,0.0,0.0,0.0,0.0,0.0,0.0,0.0,0.0,0.0,0.0,0.0,0.0,0.0,0.0,0.0,0.0,0.0,0.0,0.0,0.0,0.0,0.0,0.0,0.0,0.0,0.0,0.0,0.0,0.0,0.0,0.0,0.0,0.0,0.0,0.0,0.0,0.0,0.0,0.0,0.0,0.0,0.0,0.0,0.0,0.0,0.0,0.0,0.0,0.0,0.0,0.0,0.0,0.0,0.0,0.0,0.0,0.0,0.0,0.0,0.0,0.0,0.0,0.0,0.0,0.0,0.0,0.0,0.0,0.0,0.0,0.0,0.0,0.0,0.0,0.0,0.0,0.0,0.0,0.0,0.0,0.0,0.0,0.0,0.0,0.0,0.0,0.0,0.0,0.0,0.0,0.0,0.0,0.0,0.0,0.0,0.0,0.0,0.0,0.0,0.0,0.0,0.0,0.0,0.0,0.0,0.0,0.0,0.0,0.0,0.0,0.0,0.0,0.0,0.0,0.0,0.0,0.0,0.0,0.0,0.0,0.0,0.0,0.0,0.0,0.0,0.0,0.0,0.0,0.0,0.0,0.0,0.0,0.0,0.0,0.0,0.0,0.0,0.0,0.0,0.0,0.0,0.0,0.0,0.0,0.0,0.0,0.0,0.0,0.0,0.0,0.0,0.0,0.0,0.0,0.0,0.0,0.0,0.0,0.0,0.0,0.0,0.0,0.0,0.0,0.0,0.0,0.0,0.0,0.0,0.0,0.0,0.0,0.0,0.0,0.0,0.0,0.0,0.0,0.0,0.0,0.0,0.0,0.0,0.0,0.0,0.0,0.0,0.0,0.0,0.0,0.0,0.0,0.0,0.0,0.0,0.0,0.0,0.0,0.0,0.0,0.0,0.0,0.0,0.0,0.0,0.0,0.0,0.0,0.0,0.0,0.0,0.0,0.0,0.0,0.0,0.0,0.0,0.0,0.0,0.0,0.0,0.0,0.0,0.0,0.0,0.0,0.0,0.0,0.0,0.0,0.0,0.0,0.0,0.0,0.0,0.0,0.0,0.0,0.0,0.0,0.0,0.0,0.0,0.0,0.0,0.0,0.0,0.0,0.0,0.0,0.0,0.0,0.0,0.0,0.0,0.0,0.0,0.0,0.0,0.0,0.0,0.0,0.0,0.0,0.0,0.0,0.0,0.0,0.0,0.0,0.0,0.0,0.0,0.0,0.0,0.0,0.0,0.0,0.0,0.0,0.0,0.0,0.0,0.0,0.0,0.0,0.0,0.0,0.0,0.0,0.0,0.0,0.0,0.0,0.0,0.0,0.0,0.0,0.0,0.0,0.0,0.0,0.0,0.0,0.0,0.0,0.0,0.0,0.0,0.0,0.0,0.0,0.0,0.0,0.0,0.0,0.0,0.0,0.0,0.0,0.0,0.0,0.0,0.0,0.0,0.0,0.0,0.0,0.0,0.0,0.0,0.0,0.0,0.0,0.0,0.0,0.0,0.0,0.0,0.0,0.0,0.0,0.0,0.0,0.0,0.0,0.0,0.0,0.0,0.0,0.0,0.0,0.0,0.0,0.0,0.0,0.0,0.0,0.0,0.0,0.0,0.0,0.0,0.0,0.0,0.0,0.0,0.0,0.0,0.0,0.0,0.0,0.0,0.0,0.0,0.0,0.0,0.0,0.0,0.0,0.0,0.0,0.0,0.0,0.0,0.0,0.0,0.0,0.0,0.0,0.0,0.0,0.0,0.0,0.0,0.0,0.0,0.0,0.0,0.0,0.0,0.0,0.0,0.0,0.0,0.0,0.0,0.0,0.0,0.0,0.0,0.0,0.0,0.0,0.0,0.0,0.0,0.0,0.0,0.0,0.0,0.0,0.0,0.0,0.0,0.0,0.0,0.0,0.0,0.0,0.0,0.0,0.0,0.0,0.0,0.0,0.0,0.0,0.0,0.0,0.0,0.0,0.0,0.0,0.0,0.0,0.0,0.0,0.0,0.0,0.0,0.0,0.0,0.0,0.0,0.0,0.0,0.0,0.0,0.0,0.0,0.0,0.0,0.0,0.0,0.0,0.0,0.0,0.0,0.0,0.0,0.0,0.0,0.0,0.0,0.0,0.0,0.0,0.0,0.0,0.0,0.0,0.0,0.0,0.0,0.0,0.0,0.0,0.0,0.0,0.0,0.0,0.0,0.0,0.0,0.0,0.0,0.0,0.0,0.0,0.0,0.0,0.0,0.0,0.0,0.0,0.0,0.0,0.0,0.0,0.0,0.0,0.0,0.0,0.0,0.0,0.0,0.0,0.0,0.0,0.0,0.0,0.0,0.0,0.0,0.0,0.0,0.0,0.0,0.0,0.0,0.0,0.0,0.0,0.0,0.0,0.0,0.0,0.0,0.0,0.0,0.0,0.0,0.0,0.0,0.0,0.0,0.0,0.0,0.0,0.0,0.0,0.0,0.0,0.0,0.0,0.0,0.0,0.0,0.0,0.0,0.0,0.0,0.0,0.0,0.0,0.0,0.0,0.0,0.0,0.0,0.0,0.0,0.0,0.0,0.0,0.0,0.0,0.0,0.0,0.0,0.0,0.0,0.0,0.0,0.0,0.0,0.0,0.0,0.0,0.0,0.0,0.0,0.0,0.0,0.0,0.0,0.0,0.0,0.0,0.0,0.0,0.0,0.0,0.0,0.0,0.0,0.0,0.0,0.0,0.0,0.0,0.0,0.0,0.0,0.0,0.0,0.0,0.0,0.0,0.0,0.0,0.0,0.0,0.0,0.0,0.0,0.0,0.0,0.0,0.0,0.0,0.0,0.0,0.0,0.0,0.0,0.0,0.0,0.0,0.0,0.0,0.0,0.0,0.0,0.0,0.0,0.0,0.0,0.0,0.0,0.0,0.0,0.0,0.0,0.0,0.0,0.0,0.0,0.0,0.0,0.0,0.0,0.0,0.0,0.0,0.0,0.0,0.0,0.0,0.0,0.0,0.0,0.0,0.0,0.0,0.0,0.0,0.0,0.0,0.0,0.0,0.0,0.0,0.0,0.0,0.0,0.0,0.0,0.0,0.0,0.0,0.0,0.0,0.0,0.0,0.0,0.0,0.0,0.0,0.0,0.0,0.0,0.0,0.0,0.0,0.0,0.0,0.0,0.0,0.0,0.0,0.0,0.0,0.0,0.0,0.0,0.0,0.0,0.0,0.0,0.0,0.0,0.0,0.0,0.0,0.0,0.0,0.0,0.0,0.0,0.0,0.0,0.0,0.0,0.0,0.0,0.0,0.0,0.0,0.0,0.0,0.0,0.0,0.0,0.0,0.0,0.0,0.0,0.0,0.0,0.0,0.0,0.0,0.0,0.0,0.0,0.0,0.0,0.0,0.0,0.0,0.0,0.0,0.0,0.0,0.0,0.0,0.0,0.0,0.0,0.0,0.0,0.0,0.0,0.0,0.0,0.0,0.0,0.0,0.0,0.0,0.0,0.0,0.0,0.0,0.0,0.0,0.0,0.0,0.0,0.0,0.0,0.0,0.0,0.0,0.0,0.0,0.0,0.0,0.0,0.0,0.0,0.0,0.0,0.0,0.0,0.0,0.0,0.0,0.0,0.0,0.0,0.0,0.0,0.0,0.0,0.0,0.0,0.0,0.0,0.0,0.0,0.0,0.0,0.0,0.0,0.0,0.0,0.0,0.0,0.0,0.0,0.0,0.0,0.0,0.0,0.0,0.0,0.0,0.0,0.0,0.0,0.0,0.0,0.0,0.0,0.0,0.0,0.0,0.0,0.0,0.0,0.0,0.0,0.0,0.0,0.0,0.0,0.0,0.0,0.0,0.0,0.0,0.0,0.0,0.0,0.0,0.0,0.0,0.0,0.0,0.0,0.0,0.0,0.0,0.0,0.0,0.0,0.0,0.0,0.0,0.0,0.0,0.0,0.0,0.0,0.0,0.0,0.0,0.0,0.0,0.0,0.0,0.0,0.0,0.0,0.0,0.0,0.0,0.0,0.0,0.0,0.0,0.0,0.0,0.0,0.0,0.0,0.0,0.0,0.0,0.0,0.0,0.0,0.0,0.0,0.0,0.0,0.0,0.0,0.0,0.0,0.0,0.0,0.0,0.0,0.0,0.0,0.0,0.0,0.0,0.0,0.0,0.0,0.0,0.0,0.0,0.0,0.0,0.0,0.0,0.0,0.0,0.0,0.0,0.0,0.0,0.0,0.0,0.0,0.0,0.0,0.0,0.0,0.0,0.0,0.0,0.0,0.0,0.0,0.0,0.0,0.0,0.0,0.0,0.0,0.0,0.0,0.0,0.0,0.0,0.0,0.0,0.0,0.0,0.0,0.0,0.0,0.0,0.0,0.0,0.0,0.0,0.0,0.0,0.0,0.0,0.0,0.0,0.0,0.0,0.0,0.0,0.0,0.0,0.0,0.0,0.0,0.0,0.0,0.0,0.0,0.0,0.0,0.0,0.0,0.0,0.0,0.0,0.0,0.0,0.0,0.0,0.0,0.0,0.0,0.0,0.0,0.0,0.0,0.0,0.0,0.0,0.0,0.0,0.0,0.0,0.0,0.0,0.0,0.0,0.0,0.0,0.0,0.0,0.0,0.0,0.0,0.0,0.0,0.0,0.0,0.0,0.0,0.0,0.0,0.0,0.0,0.0,0.0,0.0,0.0,0.0,0.0,0.0,0.0,0.0,0.0,0.0,0.0,0.0,0.0,0.0,0.0,0.0,0.0,0.0,0.0,0.0,0.0,0.0,0.0,0.0,0.0,0.0,0.0,0.0,0.0,0.0,0.0,0.0,0.0,0.0,0.0,0.0,0.0,0.0,0.0,0.0,0.0,0.0,0.0,0.0,0.0,0.0,0.0,0.0,0.0,0.0,0.0,0.0,0.0,0.0,0.0,0.0,0.0,0.0,0.0,0.0,0.0,0.0,0.0,0.0,0.0,0.0,0.0,0.0,0.0,0.0,0.0,0.0,0.0,0.0,0.0,0.0,0.0,0.0,0.0,0.0,0.0,0.0,0.0,0.0,0.0,0.0,0.0,0.0,0.0,0.0,0.0,0.0,0.0,0.0,0.0,0.0,0.0,0.0,0.0,0.0,0.0,0.0,0.0,0.0,0.0,0.0,0.0,0.0,0.0,0.0,0.0,0.0,0.0,0.0,0.0,0.0,0.0,0.0,0.0,0.0,0.0,0.0,0.0,0.0,0.0,0.0,0.0,0.0,0.0,0.0,0.0,0.0,0.0,0.0,0.0,0.0,0.0,0.0,0.0,0.0,0.0,0.0,0.0,0.0,0.0,0.0,0.0,0.0,0.0,0.0,0.0,0.0,0.0,0.0,0.0,0.0,0.0,0.0,0.0,0.0,0.0,0.0,0.0,0.0,0.0,0.0,0.0,0.0,0.0,3.5125,3.4344,0.0,0.0,0.0,0.0,0.0,0.0,0.0,0.0,0.0,0.0,0.0,0.0,0.0,0.0,0.0,0.0,0.0,0.0,0.0,0.0,0.0,0.0,0.0,0.0,0.0,0.0,0.0,0.0,0.0,0.0,0.0,0.0,0.0,0.0,0.0,0.0,0.0,0.0,2.8322,2.9396,3.0753,2.9457,2.9136,2.9595,0.0,0.0,0.0,0.0,0.0,0.0,0.0,0.0,0.0,0.0,0.0,0.0,0.0,0.0,0.0,0.0,0.0,0.0,0.0,0.0,0.0,0.0,0.0,0.0,0.0,0.0,0.0,0.0,0.0,0.0,0.0,0.0,0.0,0.0,0.0,0.0,0.0,0.0,0.0,0.0,0.0,0.0,0.0,0.0,0.0,0.0,0.0,0.0,0.0,0.0,0.0,0.0,0.0,0.0,0.0,0.0,0.0,0.0,0.0,0.0,0.0,0.0,0.0,0.0,0.0,0.0,0.0,0.0,0.0,0.0,3.5573,3.5227,0.0,0.0,0.0,0.0,0.0,0.0,0.0,0.0,0.0,0.0,0.0,0.0,0.0,0.0,0.0,0.0,0.0,0.0,0.0,0.0,0.0,0.0,0.0,2.5679,2.5807,2.667,2.6912,2.6947,0.0,0.0,0.0,0.0,0.0,0.0,0.0,2.7335,2.7636,2.7954,2.9582,3.0759,3.1461,3.0996,3.1128,3.1613,2.9894,0.0,0.0,0.0,0.0,0.0,0.0,0.0,0.0,0.0,0.0,0.0,0.0,0.0,0.0,0.0,0.0,0.0,0.0,0.0,0.0,0.0,0.0,0.0,0.0,0.0,0.0,0.0,0.0,0.0,0.0,0.0,0.0,0.0,0.0,0.0,0.0,0.0,0.0,0.0,0.0,0.0,0.0,0.0,0.0,0.0,0.0,0.0,0.0,0.0,0.0,0.0,0.0,0.0,0.0,0.0,0.0,0.0,0.0,0.0,0.0,0.0,0.0,0.0,3.5042,3.513,3.5852,3.5951,3.6171,3.6451,3.5846,3.5977,3.6523,3.5384,0.0,0.0,0.0,0.0,0.0,0.0,0.0,0.0,0.0,0.0,0.0,0.0,0.0,0.0,0.0,0.0,0.0,0.0,0.0,0.0,0.0,2.6019,2.6046,2.6815,2.6811,2.6896,2.7184,0.0,0.0,0.0,0.0,0.0,2.6991,2.7326,2.784,2.8487,3.1074,3.2527,3.2918,3.2858,3.295,3.3126,3.1051,3.0719,3.1649,0.0,0.0,0.0,0.0,0.0,0.0,0.0,0.0,0.0,0.0,0.0,0.0,0.0,0.0,0.0,0.0,0.0,0.0,0.0,0.0,0.0,0.0,0.0,0.0,0.0,0.0,0.0,0.0,0.0,0.0,0.0,0.0,0.0,0.0,0.0,0.0,0.0,0.0,0.0,0.0,0.0,3.5237,3.5835,0.0,0.0,0.0,0.0,0.0,0.0,0.0,0.0,0.0,0.0,0.0,0.0,0.0,3.4574,3.4397,3.4847,3.5083,3.5094,3.5859,3.6288,3.6418,3.6891,3.7107,3.7171,3.7071,0.0,3.6351,3.615,0.0,0.0,0.0,0.0,0.0,0.0,0.0,0.0,0.0,0.0,0.0,0.0,0.0,0.0,0.0,0.0,0.0,0.0,0.0,0.0,0.0,2.6773,2.7145,2.8023,2.8192,2.8139,2.7832,2.7455,0.0,0.0,0.0,2.7017,2.7428,2.7891,2.9034,3.0906,3.1917,3.2925,3.3847,3.3369,3.3184,3.3221,3.229,3.1816,3.1682,3.1114,0.0,0.0,0.0,0.0,0.0,0.0,0.0,0.0,0.0,0.0,0.0,0.0,0.0,0.0,0.0,0.0,0.0,0.0,0.0,0.0,0.0,0.0,0.0,0.0,0.0,0.0,0.0,0.0,0.0,0.0,0.0,0.0,0.0,0.0,0.0,0.0,0.0,0.0,0.0,3.4872,3.5607,3.62,3.5875,3.5638,0.0,0.0,0.0,0.0,0.0,0.0,0.0,0.0,0.0,3.4523,3.5277,3.5328,3.4565,3.5231,3.5547,3.5547,3.5498,3.5748,3.6242,3.6459,3.6565,3.6587,3.7096,3.6874,3.6133,3.6421,3.6333,3.5992,0.0,0.0,0.0,0.0,3.5094,3.4829,0.0,0.0,0.0,0.0,0.0,0.0,0.0,0.0,0.0,0.0,0.0,0.0,2.7216,2.7924,2.8521,2.8801,2.9231,2.904,2.7927,2.7545,2.7106,2.6577,2.6736,2.7109,2.7757,2.8689,3.0265,3.2511,3.2441,3.299,3.4042,3.34,3.309,3.309,3.309,3.2739,3.2143,3.1564,3.1458,3.1598,0.0,0.0,0.0,0.0,0.0,0.0,0.0,0.0,0.0,0.0,0.0,0.0,0.0,0.0,0.0,0.0,0.0,0.0,0.0,0.0,0.0,0.0,0.0,0.0,0.0,0.0,0.0,0.0,0.0,0.0,0.0,0.0,0.0,0.0,0.0,0.0,0.0,3.5244,3.5843,3.6173,3.58,3.5406,0.0,0.0,0.0,0.0,0.0,0.0,3.4662,3.502,3.5074,3.4627,3.5648,3.5712,3.4714,3.5336,3.5664,3.5653,3.5156,3.5229,3.5886,3.6015,3.6104,3.6137,3.6801,3.6713,3.6122,3.642,3.6451,3.6336,3.605,3.5951,3.5984,3.5863,3.5605,3.5283,0.0,0.0,0.0,0.0,0.0,0.0,0.0,0.0,0.0,0.0,0.0,2.904,2.8298,2.9613,2.9945,2.8473,2.9046,2.8785,2.7074,2.7283,2.7081,2.6163,2.6811,2.7345,2.771,2.9668,3.1098,3.1938,3.2692,3.3086,3.3154,3.3111,3.309,3.309,3.309,3.352,3.4132,3.2552,3.2446,3.317,3.0898,0.0,0.0,0.0,0.0,0.0,0.0,0.0,0.0,0.0,0.0,0.0,0.0,0.0,0.0,0.0,0.0,0.0,0.0,0.0,0.0,0.0,0.0,0.0,0.0,0.0,0.0,0.0,0.0,0.0,0.0,0.0,0.0,0.0,0.0,0.0,0.0,0.0,0.0,3.5689,3.5271,0.0,0.0,0.0,0.0,3.5154,3.5676,3.5829,3.5362,3.5391,3.518,3.4698,3.4757,3.4771,3.4703,3.4748,3.4782,3.4771,3.5241,3.5481,3.5527,3.6113,3.6388,3.6388,3.6435,3.6435,3.6358,3.6115,3.5822,3.5465,3.5442,3.5539,3.5661,3.5216,3.4757,3.4327,0.0,0.0,0.0,0.0,0.0,0.0,0.0,0.0,2.6788,2.7658,2.8199,2.8282,2.7657,2.9539,3.0352,2.918,3.0562,3.0812,2.9198,2.8628,2.8217,2.7907,2.7775,2.8344,2.9681,3.0885,3.1815,3.2414,3.2699,3.2928,3.309,3.2918,3.2928,3.309,3.309,3.3272,3.3513,3.2942,3.2799,3.2868,3.1714,3.0881,0.0,0.0,0.0,0.0,0.0,0.0,0.0,0.0,0.0,0.0,0.0,0.0,0.0,0.0,0.0,0.0,0.0,0.0,0.0,0.0,0.0,0.0,0.0,0.0,0.0,0.0,0.0,0.0,0.0,0.0,0.0,0.0,0.0,0.0,0.0,0.0,0.0,3.5351,3.5226,0.0,3.5254,3.504,3.4892,3.4892,3.507,3.513,3.4962,3.5268,3.539,3.5218,3.5919,3.6307,3.6307,3.6493,3.6656,3.6823,3.6855,3.693,3.7124,3.7337,3.7424,3.7424,3.7424,3.7424,3.7423,3.7319,3.6893,3.6309,3.6309,3.645,3.6643,3.6474,3.6196,3.5893,0.0,0.0,0.0,0.0,0.0,0.0,0.0,0.0,2.7023,2.8217,2.8546,2.8508,2.8112,3.0019,3.0886,2.9758,3.1372,3.1696,2.9931,2.9445,2.8997,2.8514,2.846,2.9229,3.0894,3.141,3.196,3.2604,3.268,3.2799,3.2961,3.2788,3.2799,3.2961,3.2885,3.2896,3.2961,3.2961,3.2907,3.2781,3.2159,3.1501,3.08,0.0,0.0,0.0,0.0,0.0,0.0,0.0,0.0,0.0,0.0,0.0,0.0,0.0,0.0,0.0,0.0,0.0,0.0,0.0,0.0,0.0,0.0,0.0,0.0,0.0,0.0,0.0,0.0,0.0,0.0,0.0,0.0,0.0,0.0,3.4523,3.5007,3.502,3.5024,3.5069,3.5146,3.506,3.4968,3.4968,3.5166,3.5353,3.5543,3.5789,3.6005,3.6205,3.6929,3.7328,3.7328,3.7592,3.7817,3.8002,3.7817,3.7829,3.8002,3.8002,3.7953,3.7866,3.7965,3.7903,3.7742,3.7829,3.7543,3.706,3.7072,3.7122,3.7205,3.7093,3.6892,3.6664,0.0,0.0,0.0,0.0,0.0,0.0,0.0,2.7023,2.7734,2.9309,2.9753,2.9901,2.9821,3.1211,3.1587,3.0142,3.1367,3.1269,2.9076,2.9606,2.9335,2.7825,2.8787,2.9935,3.1185,3.122,3.162,3.24,3.2604,3.2702,3.2702,3.2702,3.2702,3.2702,3.2495,3.2517,3.2712,3.2702,3.2842,3.2997,3.2247,3.1903,3.1705,0.0,0.0,0.0,0.0,0.0,0.0,0.0,0.0,0.0,0.0,0.0,0.0,0.0,0.0,0.0,0.0,0.0,0.0,0.0,0.0,0.0,0.0,0.0,0.0,0.0,0.0,0.0,0.0,0.0,0.0,0.0,0.0,0.0,3.4558,3.4808,3.4928,3.4751,3.4717,3.4717,3.4778,3.5232,3.5546,3.5583,3.6095,3.6671,3.7186,3.6969,3.7059,3.7568,3.763,3.7618,3.7655,3.7929,3.8065,3.8103,3.8103,3.8103,3.8103,3.8103,3.7954,3.773,3.7979,3.7792,3.7341,3.7605,3.7687,3.7681,3.7627,3.7443,3.7204,3.6952,3.6699,3.6507,0.0,0.0,0.0,0.0,0.0,0.0,0.0,2.7139,2.7477,2.9273,2.8952,2.891,2.984,3.0682,3.0936,3.0349,3.1555,3.1668,3.0089,3.0032,2.9762,2.9124,2.9963,3.0758,3.1401,3.1861,3.2174,3.24,3.2466,3.2463,3.2463,3.2463,3.2561,3.2712,3.2647,3.2658,3.2702,3.2539,3.2542,3.2593,3.2495,3.2144,3.1625,0.0,0.0,0.0,0.0,0.0,0.0,0.0,0.0,0.0,0.0,0.0,0.0,0.0,0.0,0.0,0.0,0.0,0.0,0.0,0.0,0.0,0.0,0.0,0.0,0.0,0.0,0.0,0.0,0.0,0.0,0.0,3.4155,3.438,3.437,3.4442,3.4681,3.5221,3.5156,3.5446,3.6421,3.6468,3.667,3.7275,3.7121,3.7134,3.7469,3.7419,3.7457,3.7605,3.7966,3.8388,3.8746,3.9052,3.9514,4.0084,4.0084,4.0215,4.0399,4.0399,4.0346,4.0281,4.0359,4.0201,3.9897,3.9964,3.9839,3.9492,3.8131,3.7681,3.7836,3.8117,3.846,3.8719,0.0,0.0,0.0,0.0,0.0,0.0,0.0,2.7236,2.768,2.9549,2.8877,2.8812,3.0419,3.0748,3.0859,3.0891,3.1596,3.1553,3.0462,2.9994,2.9883,3.0139,3.0628,3.1116,3.1571,3.1921,3.2102,3.2102,3.2179,3.2236,3.2236,3.2236,3.2288,3.2408,3.2332,3.2343,3.2397,3.2266,3.2236,3.2247,3.2354,3.2225,3.1898,3.147,3.1082,3.0688,3.0462,3.0347,3.0212,2.9891,0.0,0.0,0.0,0.0,0.0,0.0,0.0,0.0,0.0,0.0,0.0,0.0,0.0,0.0,0.0,0.0,0.0,0.0,0.0,0.0,0.0,0.0,0.0,0.0,3.4757,3.5064,3.5031,3.4821,3.5022,3.5933,3.583,3.613,3.7267,3.7109,3.7209,3.7779,3.7431,3.7515,3.8213,3.8149,3.8269,3.8596,3.9047,3.9343,3.9518,3.9849,4.0236,4.0694,4.0844,4.0911,4.0925,4.106,4.0992,4.0762,4.0871,4.0708,4.0354,4.049,4.0354,3.9956,0.0,0.0,0.0,0.0,3.9331,3.9595,0.0,0.0,0.0,0.0,0.0,0.0,0.0,2.7379,2.8177,2.9977,2.9265,2.9322,3.1265,3.1118,3.1097,3.1588,3.155,3.116,3.0455,2.9825,2.9904,3.0853,3.096,3.1235,3.1715,3.1739,3.1739,3.1739,3.1953,3.2079,3.2057,3.2151,3.2187,3.2176,3.1937,3.1935,3.2079,3.1995,3.1959,3.1959,3.1959,3.2113,3.2275,3.1361,3.1124,3.118,3.0372,3.0183,3.0328,3.0423,0.0,0.0,0.0,0.0,0.0,0.0,0.0,0.0,0.0,0.0,0.0,0.0,0.0,0.0,0.0,0.0,0.0,0.0,0.0,0.0,0.0,0.0,0.0,0.0,3.5405,3.6049,3.6049,3.5636,3.571,3.6725,3.6616,3.6764,3.7555,3.7466,3.7465,3.7803,3.76,3.7992,3.9237,3.9052,0.0,0.0,0.0,4.0335,4.0099,4.0318,4.0466,4.0539,4.0868,4.0868,4.0594,4.0895,4.0731,4.0251,4.0485,4.0292,3.9847,4.0086,4.0016,3.9791,3.9909,3.9995,4.0016,3.9778,3.9729,3.9777,0.0,0.0,0.0,0.0,0.0,0.0,0.0,2.7861,2.8808,3.0048,2.9589,2.9877,3.1757,3.1328,3.1177,3.1866,3.1523,3.1015,3.0448,3.0525,3.0684,3.0877,3.131,3.1687,3.1937,3.1937,3.1937,3.1937,3.2407,3.2559,3.2414,3.3006,3.328,3.3256,3.2809,3.2615,3.2613,3.1997,3.1761,3.1761,3.1761,3.1893,3.2058,3.1873,3.1814,3.1844,3.1878,3.1788,3.1552,3.0984,3.0946,3.0955,3.0167,3.0055,0.0,0.0,0.0,0.0,0.0,0.0,0.0,0.0,0.0,0.0,0.0,0.0,0.0,0.0,0.0,0.0,0.0,0.0,0.0,3.5587,3.6057,3.6305,3.6305,3.6233,3.641,3.7046,3.6896,3.7053,3.7846,3.8082,3.847,3.9174,3.9175,3.9328,3.9808,3.9805,3.9823,4.0001,4.0056,4.0275,4.0634,4.07,4.0947,4.1361,4.1696,0.0,4.1777,4.1847,4.1805,4.1706,4.1748,4.1555,4.1229,4.1262,4.1144,4.0802,4.0002,3.9933,4.0319,4.0248,4.0523,4.0898,0.0,0.0,0.0,0.0,0.0,0.0,0.0,2.7794,2.8634,2.9171,2.9152,2.9614,3.1002,3.0849,3.0836,3.1362,3.0927,3.0575,3.0417,3.0719,3.1021,3.1297,3.1562,3.175,3.1849,3.1849,3.1983,3.2238,3.2528,3.2749,3.2911,3.3291,3.3458,3.3434,3.3168,3.3047,3.3012,3.2379,3.2104,3.208,3.1802,3.1761,3.1849,3.1849,3.1849,3.1871,3.1992,3.1959,3.1801,3.1535,3.1449,3.139,3.1019,3.0722,3.0443,0.0,0.0,0.0,0.0,0.0,0.0,0.0,0.0,0.0,0.0,0.0,0.0,0.0,0.0,3.4246,3.4872,0.0,3.5738,3.6141,3.6535,3.6795,3.6795,3.7263,3.7551,3.7406,3.7397,3.7733,3.853,3.884,3.9237,3.9751,3.9674,3.983,4.0363,4.0415,4.0467,4.0604,4.072,4.0865,4.0991,4.0991,4.1136,4.1416,4.1716,4.1773,4.1655,4.1787,4.1773,4.1655,4.1655,4.1545,4.1416,4.1416,4.1316,4.1139,4.0609,4.0547,4.0802,4.0802,4.097,4.1187,0.0,0.0,0.0,0.0,0.0,0.0,0.0,2.77,2.8419,2.8317,2.8731,2.9308,3.0054,3.0341,3.05,3.062,3.0438,3.0343,3.0393,3.0815,3.1249,3.1682,3.1706,3.1706,3.1706,3.1706,3.196,3.2491,3.2611,3.2923,3.3428,3.3549,3.3597,3.3584,3.3477,3.3428,3.3404,3.2875,3.2587,3.2466,3.2032,3.1802,3.1706,3.1706,3.1706,3.1706,3.1706,3.1706,3.1728,3.1882,3.1838,3.1763,3.2003,3.1696,3.1179,3.1015,3.1013,0.0,0.0,0.0,0.0,0.0,0.0,0.0,0.0,3.3008,3.3224,3.427,3.4823,3.5232,3.5677,3.6181,3.6555,3.6555,3.7012,3.7386,3.7493,3.8249,3.8594,3.8047,3.8192,3.8573,3.9199,3.9578,3.985,4.0061,3.9975,4.0188,4.0851,4.089,4.0971,4.1187,4.1416,4.143,4.1187,4.1187,4.1187,4.1187,4.143,4.1416,4.1201,4.143,4.1416,4.1187,4.1187,4.1187,4.1187,4.1187,4.1187,4.1187,4.1187,4.1187,4.1187,4.1187,4.1187,4.1187,0.0,0.0,0.0,0.0,0.0,0.0,0.0,0.0,2.8824,2.8371,2.9001,2.964,2.9909,3.0382,3.0495,3.0024,3.0664,3.0867,3.0427,3.1153,3.1634,3.1706,3.1706,3.1706,3.1706,3.1706,3.196,3.2491,3.2983,3.3441,3.3922,3.4414,3.4631,3.4607,3.4114,3.3922,3.3874,3.3404,3.2935,3.2491,3.2442,3.2128,3.1706,3.1706,3.1706,3.1706,3.1706,3.1706,3.1706,3.1739,3.1728,3.1778,3.2284,3.2393,3.2181,3.1466,3.1422,3.139,3.0441,3.1112,3.216,3.2659,3.3001,3.3573,0.0,3.4871,3.4847,3.5917,3.6194,3.623,3.6314,3.6747,3.7108,3.7108,3.7554,3.8083,3.8561,3.873,3.8936,3.9324,3.9406,3.9454,3.9554,4.0008,4.0321,4.0349,4.0768,4.1057,4.1133,4.1172,4.1182,4.1187,4.1215,4.1215,4.1187,4.1187,4.1187,4.1187,4.1215,4.1215,4.1187,4.1215,4.1215,4.1187,4.1187,4.1187,4.1187,4.1187,4.1187,4.1187,4.1187,4.1187,4.1187,4.1187,4.1187,4.1187,0.0,0.0,0.0,0.0,0.0,0.0,0.0,0.0,0.0,2.7945,2.8428,2.885,2.8852,2.9504,2.9756,2.9296,3.0149,3.0579,3.0246,3.1147,3.1706,3.1706,3.1706,3.1706,3.1706,3.1706,3.196,3.2491,3.2731,3.3092,3.3609,3.4102,3.433,3.433,3.4438,3.4282,3.397,3.3501,3.2983,3.2466,3.2165,3.1887,3.1706,3.1706,3.1706,3.1684,3.1505,3.1676,0.0,3.1569,3.188,3.2404,3.2469,3.2604,3.2658,3.234,3.2425,3.2639,3.264,3.2829,3.3196,3.3839,3.409,3.4426,3.5388,3.5436,3.558,3.6651,3.6867,3.6964,3.7265,3.7506,3.7674,3.7674,3.8118,3.8537,3.8778,3.9331,3.9812,4.0042,4.0331,4.0403,4.009,4.0547,4.0874,4.0874,4.1066,4.1187,4.1187,4.1187,4.1187,4.1187,4.1187,4.1187,4.1187,4.1187,4.1187,4.1187,4.1187,4.1187,4.1187,4.1187,4.1187,4.1187,4.1187,4.1187,4.1187,4.1187,4.1187,4.1187,4.1187,4.1187,4.1187,4.1187,4.1187,4.1187,0.0,0.0,0.0,0.0,0.0,0.0,0.0,0.0,0.0,0.0,2.8105,2.8473,2.8476,2.9101,2.9356,2.8934,2.9728,3.0223,3.0117,3.1014,3.1603,3.1693,3.1761,3.1761,3.1706,3.1706,3.196,3.2491,3.2491,3.2779,3.332,3.3657,3.3814,3.3826,3.4198,3.4174,3.379,3.3452,3.2983,3.2466,3.208,3.1826,3.1706,3.1706,3.1734,3.1789,3.1575,3.1781,3.2055,3.1738,3.2154,3.2782,3.2754,3.2851,3.2995,3.2913,3.29,3.3038,3.3705,3.3849,3.3969,3.4581,3.4966,3.5376,3.5917,3.6037,3.6302,3.7228,3.7434,3.753,3.7915,3.7987,3.8059,3.8203,3.8551,3.8898,3.9211,3.9922,4.0451,4.0609,4.097,4.1042,4.0657,4.097,4.1187,4.1187,4.1187,4.1187,4.1187,4.1187,4.1187,4.1187,4.1187,4.1187,4.1187,4.1187,4.1187,4.1187,4.1187,4.1187,4.1187,4.1187,4.1187,4.1187,4.1187,4.1187,4.1187,4.1187,4.1187,4.1211,4.1355,4.1427,4.1451,4.174,4.1572,4.1187,0.0,0.0,0.0,0.0,0.0,0.0,0.0,0.0,0.0,0.0,0.0,0.0,0.0,2.9672,2.9595,2.9131,2.9607,2.9963,3.0093,3.079,3.1369,3.1693,3.1882,3.1893,3.1706,3.1706,3.196,3.2491,3.2491,3.2779,3.3296,3.332,3.332,3.332,3.3344,3.3344,3.332,3.332,3.2983,3.2491,3.2491,3.2165,3.1706,3.1706,3.1874,3.2089,3.2078,3.2102,3.2151,3.2394,3.2489,3.2606,3.3112,3.3276,3.3252,3.2976,3.2397,3.1944,3.2429,3.3324,3.4162,3.4432,3.5443,3.6483,3.7036,3.7156,3.7313,3.7867,3.7976,3.7987,3.7987,3.7987,3.8179,3.8682,3.8802,3.9163,4.021,4.0379,4.0595,4.1114,4.1187,4.1187,4.1187,4.1187,4.1187,4.1187,4.1187,4.1187,4.1187,4.1187,4.1187,4.1187,4.1187,4.1187,4.1187,4.1187,4.1187,4.1187,4.1187,4.1187,4.1187,4.1187,4.1187,4.1187,4.1187,4.1187,4.1187,4.1187,4.1187,4.1235,4.1764,4.1971,4.2077,4.3072,4.2471,4.1187,0.0,0.0,0.0,0.0,0.0,0.0,0.0,0.0,0.0,0.0,0.0,0.0,0.0,0.0,0.0,0.0,2.9592,2.9803,2.9587,3.0596,3.1186,3.1176,3.17,3.1904,3.1706,3.1706,3.1778,3.196,3.196,3.2056,3.226,3.2598,3.2779,3.2779,3.3151,3.3103,3.2779,3.2779,3.2454,3.196,3.196,3.1874,3.1719,3.1912,3.2027,3.2187,0.0,3.2909,3.2593,3.2323,3.2719,3.3292,3.3298,3.3425,3.3498,3.324,3.3343,3.3595,3.3918,3.4671,3.5524,3.6137,3.6611,3.706,3.7602,3.7722,3.777,3.7963,3.8102,3.8193,3.8193,3.8493,3.8779,3.8956,3.9471,3.9994,4.0355,4.0705,4.0994,4.1187,4.1187,4.1187,4.1187,4.1187,4.1187,4.1187,4.1187,4.1187,4.1187,4.1187,4.1187,4.1187,4.1187,4.1187,4.1187,4.1548,4.173,4.173,4.2091,4.226,4.226,4.226,4.226,4.226,4.226,4.226,4.226,4.226,4.226,4.2284,4.2452,4.2525,4.2573,4.291,4.2717,4.2356,0.0,0.0,0.0,0.0,0.0,0.0,0.0,0.0,0.0,0.0,0.0,0.0,0.0,0.0,0.0,0.0,0.0,2.9575,2.9411,3.0178,3.0617,3.0623,3.1153,3.1323,3.1128,3.1117,3.1181,3.1275,3.1373,3.1469,3.1573,3.2011,3.2213,3.2237,3.2574,3.2537,3.2213,3.2213,3.2072,3.1837,3.1837,3.1889,3.1992,3.2176,3.2286,0.0,3.3202,3.3286,3.301,3.2848,3.3138,3.3522,3.3357,3.3528,3.375,3.3513,3.403,3.472,3.4901,3.559,3.6437,3.7056,3.7324,3.7578,3.7915,3.7987,3.7987,3.7987,3.8165,3.8292,3.8292,3.8733,3.9133,3.9225,3.9797,4.0295,4.0473,4.0808,4.1081,4.1196,4.1187,4.1187,4.1187,4.1187,4.1187,4.1187,4.1187,4.1187,4.1187,4.1379,4.149,4.149,4.1682,4.1779,4.1779,4.2116,4.2284,4.2284,4.2636,4.2804,4.2804,4.2804,4.2804,4.2804,4.2804,4.2804,4.2804,4.2804,4.2804,4.2828,4.2982,4.3039,4.3087,4.3472,4.3616,4.3641,0.0,0.0,0.0,0.0,0.0,0.0,0.0,0.0,0.0,0.0,0.0,0.0,0.0,0.0,0.0,0.0,0.0,0.0,2.9541,2.959,2.9755,3.0034,3.0292,3.0302,3.0096,3.0096,3.0209,3.0464,3.0737,3.0989,3.1259,3.1527,3.1673,3.1673,3.1673,3.1673,3.1673,3.1697,3.184,3.2067,3.208,3.2262,3.25,3.25,3.2674,3.2933,3.3169,3.3278,3.3397,3.3831,3.3683,3.333,3.3355,3.3641,3.3955,3.3816,3.4475,3.5243,3.5257,3.6039,3.6916,3.7176,3.7626,3.7987,3.7987,3.7987,3.8011,3.8022,3.8186,3.8336,3.8322,3.8801,3.9253,3.949,3.9789,4.0131,4.0663,4.0735,4.085,4.1144,4.1187,4.1211,4.1235,4.1235,4.1259,4.1283,4.1259,4.1259,4.1283,4.1764,4.2043,4.2043,4.2525,4.2804,4.2804,4.2828,4.2837,4.2886,4.2886,4.2886,4.2886,4.2886,4.2886,4.2886,4.2886,4.2886,4.2886,4.2886,4.2886,4.291,4.3361,4.3538,4.3658,4.4676,4.5061,4.4845,0.0,0.0,0.0,0.0,0.0,0.0,0.0,0.0,0.0,0.0,0.0,0.0,0.0,0.0,0.0,0.0,0.0,0.0,2.9016,2.957,2.9782,2.9515,3.0063,3.0302,3.0096,3.0096,3.0063,2.9973,3.0397,3.0548,3.0494,3.095,3.1185,3.1185,3.1185,3.1185,3.1209,3.1541,3.1744,3.1829,3.2019,3.2265,3.25,3.2492,3.2675,3.3002,3.3757,3.3937,3.3818,3.3728,3.3657,3.3618,3.3817,3.3972,3.4125,3.4432,3.5125,3.5883,3.6286,3.7042,3.7715,3.7781,3.7891,3.7987,3.7987,3.7987,3.8041,3.8206,3.842,3.8638,3.8802,3.9413,3.9928,4.0011,4.0497,4.0928,4.1057,4.1057,4.111,4.1196,4.1187,4.1355,4.1755,4.1803,4.1971,4.2356,4.2019,4.1971,4.2356,4.2525,4.2597,4.2597,4.2732,4.2804,4.2804,4.3159,4.3514,4.3923,4.3923,4.3923,4.3923,4.3923,4.3923,4.3923,4.3923,4.3923,4.3923,4.3923,4.3923,4.3931,4.4051,4.41,4.4148,4.4396,4.4493,4.4444,0.0,0.0,0.0,0.0,0.0,0.0,0.0,0.0,0.0,0.0,0.0,0.0,0.0,0.0,0.0,0.0,0.0,0.0,0.0,2.9604,2.9588,2.9237,2.9525,2.9589,2.9388,2.948,2.9488,2.9405,2.9907,3.0155,3.0196,3.0748,3.1006,3.1006,3.1006,3.1006,3.103,3.149,3.1773,0.0,0.0,3.2599,3.2842,3.2863,3.2869,3.2982,3.3588,3.3831,3.3864,3.4055,3.4011,3.3891,3.4062,3.4241,3.4488,3.486,3.5637,3.6433,3.6848,3.7484,3.7987,3.7987,3.7987,3.8019,3.8126,3.8133,3.8196,3.843,3.8657,3.8863,3.8971,3.9653,4.015,4.0042,4.0551,4.0995,4.0995,4.0995,4.1052,4.1172,4.1403,4.1682,4.1971,4.2212,4.2573,4.3063,4.2645,4.2477,4.2765,4.3006,4.3111,4.3111,4.3352,4.3457,4.3457,4.373,4.4003,4.43,4.43,4.43,4.43,4.43,4.43,4.43,4.43,4.43,4.43,4.43,4.43,4.43,4.43,4.3935,4.342,4.342,4.302,4.2492,0.0,0.0,0.0,0.0,0.0,0.0,0.0,0.0,0.0,0.0,0.0,0.0,0.0,0.0,0.0,0.0,0.0,0.0,0.0,0.0,2.9428,2.9199,2.8978,2.8796,2.8568,2.8756,2.8855,2.8899,2.9402,2.9798,3.0103,3.0609,3.0858,3.0894,3.0894,3.0894,3.0929,3.1398,3.1775,3.2098,3.2595,3.3006,3.3305,0.0,3.3105,3.2947,3.3247,3.3488,3.3785,3.4619,3.4559,3.4138,3.4174,3.4528,3.4967,3.5264,3.6065,3.6926,3.7211,3.765,3.7987,3.7987,3.7987,3.8051,3.8241,3.8292,3.8386,3.8681,3.8895,3.8998,3.9024,3.9666,4.0086,3.989,4.0343,4.072,4.0764,4.0778,4.0879,4.1182,4.1682,4.2019,4.2091,4.2573,4.3087,4.3562,4.3232,4.3006,4.3006,4.3385,4.361,4.361,4.4075,4.43,4.43,4.43,4.43,4.43,4.43,4.43,4.43,4.43,4.43,4.43,4.43,4.43,4.4285,4.4114,4.4037,4.4021,4.3826,4.3036,4.2023,4.2023,4.1248,4.0192,0.0,0.0,0.0,0.0,0.0,0.0,0.0,0.0,0.0,0.0,2.9753,0.0,0.0,0.0,0.0,0.0,0.0,0.0,0.0,0.0,0.0,2.9607,2.9409,2.9194,2.9003,2.9032,2.8983,2.8818,2.9192,2.943,2.955,2.986,3.0138,3.0329,3.0329,3.0329,3.0375,3.0905,3.1401,3.1872,3.2135,3.2662,3.328,3.3055,0.0,0.0,3.3876,3.4046,3.4007,3.5088,3.4965,3.4384,3.4604,3.5036,3.5576,3.6058,3.6635,3.7248,3.7733,3.7915,3.7987,3.7987,3.7987,3.8051,3.8241,3.8292,3.8426,3.8872,3.8985,3.9042,3.9233,3.96,3.9925,4.0115,4.045,4.0807,4.1057,4.11,4.1115,4.1196,4.1682,4.2164,4.2636,4.3087,4.3586,4.4124,4.41,4.4051,4.4051,4.4124,4.4156,4.4156,4.4252,4.43,4.43,4.43,4.43,4.43,4.43,4.43,4.43,4.43,4.43,4.43,4.43,4.43,4.4207,4.3083,4.2641,4.2531,4.1377,4.0759,4.0549,4.0549,4.0403,4.0192,0.0,0.0,0.0,0.0,0.0,0.0,0.0,0.0,0.0,2.9718,3.0168,3.0287,0.0,0.0,0.0,0.0,0.0,0.0,0.0,0.0,0.0,0.0,3.0136,2.9829,2.9419,2.9704,2.9642,2.9106,0.0,2.9885,3.0086,3.0237,3.0487,3.0769,3.0769,3.0634,3.0431,3.0986,3.1286,3.1433,3.2069,3.2551,3.2902,0.0,0.0,0.0,3.3711,3.397,3.4107,3.5057,3.5136,3.4814,3.481,3.5159,3.5701,3.623,3.6771,3.7313,3.7843,3.7987,3.7987,3.7987,3.7987,3.8083,3.8443,3.8499,3.8638,3.9068,3.916,3.9185,3.9277,3.9582,3.9846,3.9969,4.0377,4.0764,4.0923,4.1096,4.1307,4.1572,4.2091,4.2621,4.3111,4.361,4.4027,4.4276,4.43,4.43,4.43,4.43,4.43,4.43,4.43,4.43,4.43,4.43,4.43,4.43,4.43,4.43,4.43,4.43,4.43,4.43,4.43,4.43,4.4207,4.2847,4.2309,4.2166,4.0743,3.9736,3.9118,3.9118,3.8639,3.8009,0.0,0.0,0.0,0.0,0.0,0.0,0.0,2.9791,3.0049,2.9921,3.0419,3.0657,3.0256,2.9798,2.9679,0.0,0.0,0.0,0.0,0.0,0.0,0.0,0.0,0.0,2.9983,0.0,0.0,2.9739,3.0107,0.0,0.0,0.0,0.0,0.0,3.1337,3.1186,3.1005,3.1372,3.1413,0.0,0.0,3.243,0.0,0.0,0.0,0.0,0.0,3.3697,3.3981,3.4896,3.5084,3.4957,3.496,3.53,3.5781,3.6333,3.6873,3.7403,3.7878,3.7987,3.7987,3.7987,3.7987,3.8115,3.8594,3.8704,3.8802,3.9219,3.9308,3.9308,3.9308,3.9514,3.9714,3.9787,4.0197,4.0561,4.0691,4.0937,4.1331,4.1932,4.2477,4.2982,4.3442,4.3979,4.43,4.43,4.43,4.43,4.43,4.43,4.43,4.43,4.43,4.43,4.43,4.43,4.43,4.43,4.43,4.43,4.43,4.43,4.43,4.43,4.43,4.4145,4.3764,4.242,4.1665,4.1264,3.985,3.8623,3.7662,3.7662,3.6961,3.5999,0.0,0.0,0.0,0.0,0.0,0.0,0.0,2.9791,3.0049,2.9921,3.0419,3.0746,3.056,3.0349,3.0363,0.0,0.0,0.0,0.0,0.0,0.0,0.0,0.0,0.0,0.0,0.0,0.0,3.0842,3.0653,0.0,0.0,0.0,0.0,0.0,0.0,3.1733,3.2152,3.1992,0.0,0.0,0.0,0.0,0.0,0.0,0.0,0.0,0.0,3.3453,3.3479,3.4767,3.4711,3.4277,3.5218,3.5728,3.6065,3.6623,3.7146,3.7631,3.7921,3.7987,3.7987,3.7987,3.7987,3.8115,3.8594,3.8704,3.8802,3.9219,3.9308,3.9308,3.9308,3.9338,3.9441,3.9743,3.9846,4.0065,4.0633,4.0735,4.107,4.1903,4.2477,4.2982,4.3442,4.3979,4.43,4.43,4.43,4.43,4.43,4.43,4.43,4.43,4.43,4.43,4.43,4.43,4.43,4.43,4.43,4.43,4.43,4.43,4.43,4.43,4.43,4.3608,4.2388,4.0975,3.9638,3.8341,3.6944,3.6321,3.6203,3.6203,3.6101,3.5999,0.0,0.0,0.0,0.0,0.0,0.0,0.0,3.0893,3.0769,3.0646,3.0741,3.0761,3.0605,3.053,3.0502,0.0,0.0,0.0,0.0,0.0,0.0,0.0,0.0,0.0,0.0,0.0,3.1532,3.1179,3.119,0.0,0.0,0.0,0.0,0.0,0.0,3.2315,3.2348,3.2261,0.0,0.0,0.0,0.0,0.0,0.0,0.0,0.0,0.0,0.0,3.3804,3.4676,3.4842,3.4871,3.5746,3.5991,3.6046,3.6622,3.7178,3.7662,3.7945,3.7987,3.7987,3.7987,3.7878,3.7925,3.8567,3.8526,3.8576,3.9189,3.9308,3.9308,3.9308,3.9308,3.9338,3.947,3.967,3.9875,4.0124,4.0748,4.1445,4.2117,4.2799,4.3433,4.3931,4.418,4.43,4.43,4.43,4.43,4.43,4.43,4.43,4.43,4.43,4.43,4.43,4.43,4.43,4.43,4.43,4.43,4.43,4.43,4.43,4.4254,4.3451,4.2783,4.2134,3.9866,3.8623,3.7959,3.6556,3.5999,3.5999,3.5999,3.5999,3.5999,0.0,0.0,0.0,0.0,0.0,0.0,3.2004,3.1655,3.1307,3.1117,3.0977,3.0828,3.0613,3.059,3.0538,3.0402,0.0,0.0,0.0,0.0,0.0,0.0,0.0,0.0,0.0,0.0,3.2046,3.1643,3.1735,3.1866,0.0,0.0,3.2143,3.2848,0.0,0.0,0.0,0.0,0.0,0.0,0.0,0.0,0.0,0.0,0.0,0.0,0.0,0.0,0.0,0.0,0.0,3.4986,3.5807,3.5929,3.5902,3.6592,3.7098,3.7505,3.7799,3.7945,3.7987,3.7987,3.7799,3.7753,3.8327,3.8325,3.8364,3.8976,3.9193,3.9308,3.9308,3.9308,3.9308,3.9308,3.9485,3.9684,3.9787,4.0628,4.1433,4.2082,4.2778,4.3446,4.4089,4.4254,4.43,4.43,4.43,4.43,4.43,4.43,4.43,4.43,4.43,4.43,4.43,4.43,4.43,4.43,4.3888,4.3701,4.3686,4.3271,4.3083,4.3036,4.2079,4.1441,4.091,3.8937,3.7842,3.7378,3.6386,3.5999,3.5999,3.5999,3.5999,3.5999,0.0,0.0,0.0,0.0,0.0,0.0,0.0,3.1719,3.1402,3.1124,3.1087,3.0969,3.0635,3.059,3.059,3.059,0.0,0.0,0.0,0.0,0.0,0.0,0.0,0.0,0.0,0.0,3.239,3.239,3.2255,3.2091,3.189,3.1705,3.2112,3.3004,0.0,0.0,0.0,0.0,0.0,0.0,0.0,0.0,0.0,0.0,0.0,0.0,0.0,0.0,0.0,0.0,0.0,0.0,0.0,3.5506,3.5652,3.6468,3.6877,3.7183,3.7515,3.7799,3.7987,3.7987,3.7799,3.7658,3.787,3.8069,3.8271,3.8554,3.8964,3.9308,3.9308,3.9308,3.9308,3.9308,3.9308,3.9411,3.9743,4.0205,4.0836,4.1705,4.2214,4.2846,4.3708,4.4106,4.43,4.43,4.43,4.43,4.43,4.43,4.43,4.43,4.43,4.43,4.43,4.43,4.43,4.4285,4.2941,4.2325,4.2277,4.0894,4.0241,4.0241,4.0224,3.9425,3.8142,3.8109,3.7277,3.6016,3.5999,3.5999,3.5999,3.5999,3.5999,3.5999,0.0,0.0,0.0,0.0,0.0,0.0,0.0,3.2114,3.1603,3.1517,3.1139,3.0858,3.0761,3.0643,3.059,3.059,0.0,0.0,0.0,0.0,0.0,0.0,0.0,0.0,0.0,0.0,0.0,3.2614,3.2408,3.2309,3.2255,3.2091,3.2293,3.2801,3.3015,3.3357,0.0,0.0,0.0,0.0,0.0,0.0,3.4145,0.0,0.0,0.0,0.0,0.0,0.0,0.0,0.0,0.0,0.0,0.0,0.0,3.6421,3.663,3.6901,3.7183,3.7331,3.7374,3.7374,3.7183,3.7109,3.7537,3.7776,3.8044,3.851,3.8964,3.9308,3.9308,3.9308,3.9308,3.9308,3.9308,3.9338,3.9441,4.0559,4.1481,4.1766,4.2934,4.3845,4.4121,4.4238,4.43,4.43,4.43,4.43,4.43,4.43,4.43,4.43,4.43,4.43,4.43,4.3389,4.2925,4.291,4.1537,4.0862,4.0862,4.0387,4.0192,4.0165,3.9162,3.8507,3.8025,3.7059,3.6386,3.5999,3.5999,3.5999,3.5999,3.5999,3.5999,3.5999,0.0,0.0,0.0,0.0,0.0,0.0,0.0,3.2358,3.1789,3.1718,3.1227,3.0888,3.0821,3.0672,3.059,3.059,0.0,0.0,0.0,0.0,0.0,0.0,0.0,0.0,0.0,0.0,0.0,0.0,0.0,3.2399,3.2399,3.2182,3.2306,3.2722,3.3128,3.343,0.0,0.0,0.0,0.0,0.0,0.0,3.4401,0.0,0.0,0.0,0.0,0.0,0.0,0.0,0.0,0.0,0.0,0.0,0.0,0.0,3.6576,3.6752,3.6914,3.7036,3.7163,3.7351,3.7054,3.6851,3.7385,3.7673,3.7899,3.822,3.8826,3.9308,3.9308,3.9308,3.9308,3.9308,3.9308,3.9338,3.9455,4.0698,4.1794,4.2315,4.3391,4.4106,4.4106,4.4238,4.43,4.43,4.43,4.43,4.43,4.43,4.4083,4.3561,4.4052,4.4068,4.3545,4.272,4.2038,4.1489,4.0078,3.9392,3.9376,3.8871,3.8623,3.8573,3.7696,3.731,0.0,3.6372,3.5999,3.5999,3.5999,3.5999,3.5999,3.5999,3.5999,3.5999,0.0,0.0,0.0,0.0,0.0,0.0,0.0,0.0,0.0,0.0,3.1409,3.1058,3.0851,3.0687,3.0605,0.0,0.0,0.0,0.0,0.0,0.0,0.0,0.0,0.0,0.0,0.0,0.0,3.3014,3.2623,3.2426,3.2408,0.0,3.2177,3.2687,3.3114,3.3565,0.0,0.0,0.0,0.0,0.0,0.0,0.0,0.0,0.0,0.0,0.0,0.0,0.0,0.0,0.0,0.0,0.0,0.0,0.0,0.0,0.0,0.0,0.0,3.6864,3.7197,3.7676,3.7251,3.6828,3.7325,3.7636,0.0,3.7835,3.8611,3.9308,3.9308,3.9308,3.9308,3.9308,3.9308,3.9434,3.9804,4.0776,4.1891,4.3193,4.3615,4.3818,4.3787,4.409,4.43,4.43,4.43,4.4254,4.4161,4.4161,4.3592,4.234,4.342,4.342,4.2166,4.2054,4.1344,4.0029,3.8623,3.7942,3.7909,3.6589,3.5999,3.5999,3.5999,3.5999,3.5999,3.5999,3.5999,3.5999,3.5999,3.5999,3.5999,3.5999,3.5999,3.5999,0.0,0.0,0.0,0.0,0.0,0.0,0.0,0.0,0.0,0.0,3.1853,3.1416,3.1065,3.0866,3.0695,0.0,0.0,0.0,0.0,0.0,0.0,0.0,0.0,0.0,0.0,0.0,3.3218,3.3218,3.2819,3.2632,3.2623,3.2282,0.0,0.0,3.3181,0.0,0.0,0.0,0.0,0.0,0.0,0.0,0.0,0.0,0.0,0.0,3.5241,3.5264,0.0,0.0,0.0,0.0,0.0,0.0,0.0,0.0,3.6507,3.6928,3.6522,0.0,3.7032,3.6742,3.6696,3.6735,0.0,3.7359,3.7864,3.8076,3.8741,3.9308,3.9308,3.9308,3.9308,3.9308,3.9308,3.9564,4.0321,4.1736,4.2928,4.3591,4.3982,4.4075,4.3818,4.409,4.43,4.43,4.43,4.3842,4.2815,4.2768,4.2626,4.2309,4.1569,4.1001,4.0716,3.9621,3.8937,3.859,3.7159,3.6488,3.6471,3.6152,3.5999,3.5999,3.5999,3.5999,3.5999,3.5999,3.5999,3.5999,3.5999,3.5999,3.5999,3.5999,3.5999,3.5999,0.0,0.0,0.0,0.0,0.0,0.0,0.0,0.0,0.0,0.0,0.0,0.0,0.0,0.0,0.0,0.0,0.0,0.0,0.0,0.0,0.0,0.0,0.0,0.0,0.0,3.3352,3.3308,0.0,0.0,3.2793,0.0,0.0,0.0,0.0,0.0,0.0,0.0,0.0,0.0,0.0,3.4272,0.0,0.0,0.0,0.0,0.0,3.5537,3.5775,0.0,3.5576,3.5611,3.569,0.0,0.0,0.0,0.0,3.6597,3.7049,3.6752,3.6783,3.6866,3.6662,3.6656,3.6717,3.6836,3.728,3.7728,3.7973,3.8629,3.9194,3.9277,3.9544,3.9609,3.9352,3.9544,4.0049,4.1011,4.2126,4.3086,4.3724,4.3966,4.4059,4.4028,4.4207,4.43,4.43,4.43,4.3701,4.2372,4.2309,4.1713,4.0403,3.9621,3.9561,4.0192,3.8805,3.7779,3.7126,3.6372,3.5999,3.5999,3.5999,3.5999,3.5999,3.5999,3.5999,3.5999,3.5999,3.5999,3.5999,3.5999,3.5999,3.5999,3.5999,3.5999,3.5999,0.0,0.0,0.0,0.0,0.0,0.0,0.0,0.0,0.0,0.0,0.0,0.0,0.0,0.0,0.0,0.0,0.0,0.0,0.0,0.0,0.0,0.0,0.0,3.3649,3.3596,3.3483,3.3387,3.3308,0.0,0.0,0.0,0.0,3.2391,0.0,0.0,0.0,0.0,0.0,0.0,0.0,3.4439,0.0,0.0,0.0,0.0,0.0,0.0,0.0,0.0,3.6476,3.6382,3.6284,3.5774,0.0,0.0,0.0,0.0,0.0,3.6935,3.6871,3.6859,3.6985,3.6873,3.6773,3.698,3.7225,3.7516,3.7861,3.8469,3.9036,3.9393,3.977,3.9902,3.9455,3.9983,4.081,4.1858,4.2454,4.3033,4.3708,4.3833,4.3966,4.4207,4.4269,4.43,4.43,4.43,4.3623,4.207,4.1968,4.0797,3.8175,3.7875,3.8457,3.9866,3.849,3.7176,3.5999,3.5999,3.5999,3.5999,3.5999,3.5999,3.5999,3.5999,3.5999,3.5999,3.5999,3.5999,3.5999,3.5999,3.5999,3.5999,3.5999,3.5999,3.5999,0.0,0.0,0.0,0.0,0.0,0.0,0.0,0.0,0.0,0.0,0.0,0.0,0.0,0.0,0.0,0.0,0.0,0.0,0.0,0.0,0.0,0.0,3.4374,3.3879,3.3605,3.3836,3.3741,3.3308,3.328,0.0,3.2695,3.2381,3.2716,3.3627,0.0,0.0,0.0,0.0,0.0,0.0,3.4663,0.0,0.0,0.0,0.0,0.0,0.0,0.0,0.0,3.6799,3.6494,3.6245,3.5745,0.0,0.0,0.0,0.0,0.0,3.6234,3.6761,3.7405,3.7156,3.6893,3.6766,3.7035,3.7071,3.7354,3.8367,3.8621,3.8943,3.9881,3.9711,3.95,3.9699,4.0752,4.1872,4.276,4.3552,4.3972,4.3818,4.4044,4.4121,4.3904,4.4121,4.43,4.43,4.43,4.3177,4.0646,4.0522,3.9768,3.8142,3.6944,3.6991,3.8407,3.7045,3.6219,3.5999,3.5999,3.5999,3.5999,3.5999,3.5999,3.5999,3.5999,3.5999,3.5999,3.5999,3.5999,3.5999,3.5999,3.5999,3.5999,3.5999,3.5999,3.5999,0.0,0.0,0.0,0.0,0.0,0.0,0.0,0.0,0.0,0.0,0.0,0.0,0.0,0.0,0.0,0.0,0.0,0.0,0.0,0.0,0.0,0.0,3.4868,3.4526,3.4208,3.425,3.4136,3.3879,3.369,3.3435,3.3173,3.257,3.289,3.3898,0.0,0.0,0.0,0.0,0.0,0.0,0.0,0.0,0.0,0.0,0.0,0.0,0.0,0.0,0.0,0.0,3.6556,3.6048,3.5536,0.0,0.0,0.0,0.0,0.0,3.647,3.698,3.7596,3.7599,3.7385,3.721,3.7331,3.7556,3.7936,3.8577,3.8919,3.9304,4.0056,4.013,4.0253,4.0896,4.1453,4.2084,4.2924,4.3447,4.3764,4.3787,4.395,4.4028,4.4059,4.4223,4.43,4.43,4.43,4.3098,4.0338,4.0192,3.9195,3.7025,3.6338,3.6321,3.6961,3.6319,3.5999,3.5999,3.5999,3.5999,3.5999,3.5999,3.5999,3.5999,3.5999,3.5999,3.5999,3.5999,3.5999,3.5999,3.5999,3.5999,3.5999,3.5999,3.5999,3.5999,0.0,0.0,0.0,0.0,0.0,0.0,0.0,0.0,0.0,0.0,0.0,0.0,0.0,0.0,0.0,0.0,0.0,0.0,0.0,0.0,3.591,3.5451,3.5354,3.5108,3.4706,3.4639,3.4547,3.4382,3.4051,3.3678,3.3296,3.265,3.2899,3.3898,0.0,0.0,0.0,0.0,0.0,0.0,0.0,0.0,0.0,0.0,0.0,0.0,0.0,0.0,0.0,0.0,0.0,0.0,0.0,0.0,0.0,3.5115,3.5827,3.6608,3.6608,3.7136,3.7732,3.7958,3.7732,3.7529,3.7662,3.8,3.8386,3.8745,3.9189,3.9664,4.0225,4.0559,4.1024,4.1827,4.2048,4.2403,4.3191,4.344,4.3639,4.3904,4.3919,4.4013,4.4285,4.43,4.43,4.43,4.4021,4.2768,4.0322,3.9883,3.8573,3.6084,3.5999,3.5999,3.5999,3.5999,3.5999,3.5999,3.5999,3.5999,3.5999,3.5999,3.5999,3.5999,3.5999,3.5999,3.5999,3.5999,3.5999,3.5999,3.5999,3.5999,3.5999,3.5999,3.5999,3.5999,0.0,0.0,0.0,0.0,0.0,0.0,0.0,0.0,0.0,0.0,0.0,0.0,0.0,0.0,0.0,0.0,0.0,0.0,0.0,0.0,3.6359,3.6133,3.5824,3.5348,3.4714,3.4997,3.4914,3.4382,3.4184,3.3529,3.248,3.23,3.2816,3.3879,0.0,0.0,0.0,0.0,0.0,0.0,0.0,0.0,0.0,0.0,0.0,0.0,0.0,0.0,0.0,0.0,0.0,0.0,0.0,0.0,3.5163,3.4908,3.5417,3.6063,3.6063,3.6983,3.7974,3.7987,3.7548,3.7267,3.7828,3.7939,3.817,3.8991,3.933,3.9745,4.0538,4.0852,4.1161,4.1724,4.2494,4.3276,4.4079,4.4214,4.4238,4.4269,4.4269,4.4269,4.43,4.43,4.43,4.43,4.3153,4.1777,4.0273,3.897,3.7562,3.605,3.5999,3.5999,3.5999,3.5999,3.5999,3.5999,3.5999,3.5999,3.5999,3.5999,3.5999,3.5999,3.5999,3.5999,3.5999,3.5999,3.5999,3.5999,3.5999,3.5999,3.5999,3.5999,3.5999,3.5999,0.0,0.0,0.0,0.0,0.0,0.0,0.0,0.0,0.0,0.0,0.0,0.0,0.0,0.0,0.0,0.0,0.0,0.0,0.0,0.0,3.6406,3.6203,3.607,3.5784,3.5346,3.5367,3.5494,3.5697,3.5381,3.4632,3.3518,3.3456,3.3735,3.4261,0.0,0.0,0.0,0.0,0.0,0.0,0.0,0.0,0.0,0.0,0.0,0.0,0.0,0.0,0.0,0.0,3.7355,3.6629,3.6452,3.5728,3.492,3.4823,3.5482,3.622,3.6054,3.6985,3.7987,3.7987,3.7828,3.7748,3.8146,3.8631,3.8986,3.9108,3.9732,4.0433,4.1086,4.1426,4.1891,4.271,4.3127,4.3569,4.4213,4.43,4.43,4.43,4.43,4.43,4.43,4.43,4.3935,4.3122,4.2594,4.1312,3.9035,3.8391,3.7461,3.6033,3.5999,3.5999,3.5999,3.5999,3.5999,3.5999,3.5999,3.5999,3.5999,3.5999,3.5999,3.5999,3.5999,3.5999,3.5999,3.5999,3.5999,3.5999,3.5999,3.5999,3.5999,3.5999,3.5999,3.5999,0.0,0.0,0.0,0.0,0.0,0.0,0.0,0.0,0.0,0.0,0.0,0.0,0.0,0.0,0.0,0.0,0.0,0.0,0.0,3.6816,3.6562,3.6352,3.6203,3.6022,3.5792,3.5821,3.597,3.6301,3.5805,3.5039,3.4085,3.4022,3.4196,0.0,0.0,0.0,0.0,0.0,0.0,0.0,0.0,3.529,0.0,0.0,0.0,0.0,0.0,0.0,0.0,0.0,3.7227,3.6393,3.6393,3.5668,3.4799,3.4799,3.5618,3.6474,3.6207,3.7115,3.8093,3.8013,3.7987,3.804,3.8236,3.8951,3.954,3.9308,4.004,4.0848,4.1409,4.183,4.2385,4.3233,4.3597,4.3883,4.4252,4.43,4.43,4.43,4.43,4.43,4.43,4.43,4.3928,4.2988,4.2134,4.0813,3.8871,3.7909,3.7011,3.6033,3.5999,3.5999,3.5999,3.5999,3.5999,3.5999,3.5999,3.5999,3.5999,3.5999,3.5999,3.5999,3.5999,3.5999,3.5999,3.5999,3.5999,3.5999,3.5999,3.5999,3.5999,3.5999,3.5999,3.5999,0.0,0.0,0.0,0.0,0.0,0.0,0.0,0.0,0.0,0.0,0.0,0.0,0.0,0.0,0.0,0.0,0.0,0.0,3.7201,3.7059,3.6915,3.6716,3.625,3.5997,3.5997,3.6307,3.6293,3.5924,3.5183,3.4471,3.3802,3.3692,3.3928,0.0,0.0,0.0,0.0,0.0,0.0,0.0,3.5386,3.529,0.0,0.0,0.0,0.0,0.0,0.0,0.0,0.0,3.7227,3.6393,3.6381,3.5668,3.4799,3.4799,3.573,3.674,3.6474,3.7374,3.8317,3.8053,3.7987,3.7987,3.8011,3.8815,3.9595,3.9595,4.0182,4.0872,4.1424,4.1962,4.2486,4.3024,4.3779,4.43,4.43,4.43,4.43,4.43,4.43,4.43,4.43,4.43,4.4285,4.4254,4.1745,4.0192,4.0176,3.7528,3.5999,3.6016,3.5999,3.5999,3.5999,3.5999,3.5999,3.5999,3.5999,3.5999,3.5999,3.5999,3.5999,3.5999,3.5999,3.5999,3.5999,3.5999,3.5999,3.5999,3.5999,3.5999,3.5999,3.5999,3.5999,3.5999,0.0,0.0,0.0,0.0,0.0,0.0,0.0,0.0,0.0,0.0,0.0,0.0,0.0,0.0,0.0,0.0,0.0,0.0,3.7075,3.6877,3.6716,3.6562,3.6297,3.6108,3.5997,3.6035,3.6241,3.6534,3.6591,3.5904,3.4511,3.4861,0.0,3.4506,0.0,0.0,0.0,0.0,0.0,0.0,3.5599,3.5477,0.0,0.0,0.0,0.0,0.0,0.0,0.0,0.0,0.0,0.0,3.5967,3.5356,3.4799,3.4799,3.5341,3.6017,3.6327,3.698,3.7621,3.7941,3.7987,3.8107,3.8479,3.909,3.9812,4.0585,4.0722,4.1054,4.2212,4.2544,4.2952,4.3793,4.4142,4.43,4.43,4.43,4.43,4.43,4.43,4.43,4.43,4.43,4.3514,4.1569,4.0646,3.9768,3.8788,3.6994,3.6437,3.7445,3.6505,3.5999,3.5999,3.5999,3.5999,3.5999,3.5999,3.5999,3.5999,3.5999,3.5999,3.5999,3.5999,3.5999,3.5999,3.5999,3.5999,3.5999,3.5999,3.5999,3.5999,3.5999,3.5999,3.5999,0.0,0.0,0.0,0.0,0.0,0.0,0.0,0.0,0.0,0.0,0.0,0.0,0.0,0.0,0.0,0.0,0.0,0.0,0.0,0.0,3.6739,3.6585,3.6289,3.615,3.6191,3.639,3.6568,3.6687,3.6468,3.5898,3.4999,3.5117,3.5059,3.4874,0.0,3.569,0.0,0.0,3.569,3.569,3.569,3.5619,3.5588,0.0,0.0,0.0,0.0,0.0,0.0,0.0,0.0,0.0,3.6144,3.5536,3.4933,3.4823,3.5402,3.6127,3.634,3.7017,3.7733,3.7941,3.7987,3.8203,3.8946,3.9523,4.0162,4.1018,4.1052,4.1291,4.2567,4.2804,4.3135,4.4148,4.43,4.43,4.43,4.43,4.43,4.43,4.43,4.43,4.43,4.43,4.3608,4.1952,4.1344,4.0646,3.9801,3.7892,3.7227,3.8059,3.7277,3.6843,3.6843,3.6843,3.6843,3.6826,3.627,3.5999,3.5999,3.5999,3.5999,3.5999,3.5999,3.5999,3.5999,3.5999,3.5999,3.5999,3.5999,3.5999,3.5999,3.5999,3.5999,3.5999,0.0,0.0,0.0,0.0,0.0,0.0,0.0,0.0,0.0,0.0,0.0,0.0,0.0,0.0,0.0,0.0,0.0,0.0,0.0,0.0,3.6908,3.6693,3.6242,3.6162,3.6493,3.6985,3.6985,3.6493,3.5528,3.5098,3.5227,3.4862,3.4923,3.5377,0.0,3.569,3.569,3.569,3.569,3.569,3.569,3.5717,3.5862,3.6459,0.0,0.0,0.0,0.0,0.0,0.0,0.0,0.0,3.658,3.5954,3.5175,3.4908,3.5731,3.6667,3.6475,3.735,3.8243,3.8053,3.8059,3.8396,3.9393,4.0042,4.0609,4.109,4.1235,4.1586,4.2612,4.2837,4.3183,4.4132,4.43,4.43,4.43,4.43,4.43,4.43,4.43,4.43,4.43,4.43,4.4254,4.413,4.2862,4.2118,4.2118,3.9556,3.8158,3.8291,3.8291,3.8291,3.8291,3.8291,3.8291,3.8275,3.6876,3.6203,3.6186,3.605,3.5999,3.5999,3.5999,3.5999,3.5999,3.5999,3.5999,3.5999,3.5999,3.5999,3.5999,3.5999,3.5999,3.5999,0.0,0.0,0.0,0.0,0.0,0.0,0.0,0.0,0.0,0.0,0.0,0.0,0.0,0.0,0.0,0.0,0.0,0.0,0.0,0.0,3.6862,3.6546,3.6187,3.6162,3.6493,3.6118,3.6088,3.6493,3.6726,3.6154,0.0,0.0,0.0,3.494,0.0,3.569,3.569,3.569,3.569,3.569,3.569,3.5971,3.6459,3.7073,3.7568,0.0,0.0,0.0,0.0,0.0,0.0,0.0,3.5668,3.5512,3.5464,3.5199,3.5612,3.6244,3.6606,3.7073,3.7547,3.7904,3.8637,3.932,3.9561,4.0331,4.1066,4.1187,4.1523,4.2019,4.2684,4.3087,4.3562,4.4204,4.43,4.43,4.43,4.43,4.43,4.43,4.43,4.43,4.43,4.43,4.3857,4.2799,4.1441,4.0668,4.0668,3.9035,3.8623,3.9703,3.9736,3.9736,3.9736,3.9736,3.9736,3.9719,3.8325,3.7662,3.7612,3.6505,3.5999,3.5999,3.5999,3.5999,3.5999,3.5999,3.5999,3.5999,3.5999,3.5999,3.5999,3.5999,3.5999,3.5999,0.0,0.0,0.0,0.0,0.0,0.0,0.0,0.0,0.0,0.0,0.0,0.0,0.0,0.0,0.0,0.0,0.0,0.0,0.0,0.0,0.0,3.6739,3.6586,3.6487,3.6502,3.6156,3.6156,3.6493,3.6823,0.0,0.0,0.0,0.0,3.5256,0.0,3.569,3.569,3.569,3.569,3.5707,3.5903,3.6231,3.6703,3.7482,3.7979,3.8308,3.8726,0.0,0.0,0.0,0.0,0.0,0.0,0.0,3.574,3.5476,3.5868,3.645,3.6718,3.7194,3.765,3.7915,3.8805,3.9595,3.9595,4.0427,4.1187,4.1187,4.1634,4.2164,4.2693,4.3183,4.3682,4.4204,4.43,4.43,4.43,4.43,4.43,4.43,4.43,4.43,4.43,4.43,4.4021,4.3326,4.2594,4.2159,4.2159,4.0856,4.0457,4.1184,4.1216,4.1216,4.1216,4.1216,4.0878,4.0176,3.8772,3.7762,3.7059,3.6338,3.5999,3.5999,3.5999,3.5999,3.5999,3.5999,3.5999,3.5999,3.5999,3.5999,3.5999,3.5999,3.5999,3.5999,0.0,0.0,0.0,0.0,0.0,0.0,0.0,0.0,0.0,0.0,0.0,0.0,0.0,0.0,0.0,0.0,0.0,0.0,0.0,0.0,0.0,3.684,3.6815,3.6682,3.6344,3.6335,3.6362,3.6393,0.0,0.0,0.0,0.0,0.0,3.569,0.0,3.569,3.569,3.569,3.569,3.5734,3.6172,3.651,3.6856,0.0,0.0,3.8597,3.8869,3.8841,3.8605,3.8243,0.0,0.0,0.0,0.0,3.6015,3.5752,3.6272,3.6929,3.6929,3.7491,3.8053,3.8,3.8805,3.9595,3.9595,4.0427,4.1187,4.1187,4.1692,4.226,4.2732,4.3256,4.3787,4.4228,4.43,4.43,4.43,4.43,4.43,4.43,4.43,4.43,4.43,4.43,4.43,4.43,4.4099,4.3935,4.3935,4.2894,4.2309,4.2309,4.2515,4.2641,4.2641,4.242,4.1713,4.0532,3.8904,3.7361,3.5999,3.5999,3.5999,3.5999,3.5999,3.5999,3.5999,3.5999,3.5999,3.5999,3.5999,3.5999,3.5999,3.5999,3.5999,3.5999,0.0,0.0,0.0,0.0,0.0,0.0,0.0,0.0,0.0,0.0,0.0,0.0,0.0,0.0,0.0,0.0,0.0,0.0,3.7014,0.0,0.0,3.6165,3.6141,3.5973,3.5639,3.5631,3.5743,3.5971,0.0,0.0,0.0,0.0,0.0,3.569,0.0,0.0,3.569,3.569,3.569,3.5744,3.632,3.6889,0.0,0.0,0.0,0.0,0.0,3.856,3.7707,3.7821,3.7132,0.0,0.0,0.0,3.6287,3.6027,3.6664,3.7493,3.7493,3.7902,3.8278,3.8053,3.8805,3.9595,3.9595,4.0427,4.1187,4.1187,4.1995,4.2732,4.278,4.3562,4.4228,4.4276,4.43,4.43,4.43,4.43,4.43,4.43,4.43,4.43,4.43,4.43,4.43,4.43,4.3208,4.2562,4.2562,4.2404,4.2309,4.2309,4.3436,4.4037,4.4037,4.2878,4.2213,4.2007,3.9343,3.7361,3.5999,3.5999,3.5999,3.5999,3.5999,3.5999,3.5999,3.5999,3.5999,3.5999,3.5999,3.5999,3.5999,3.5999,3.5999,3.5999,0.0,0.0,0.0,0.0,0.0,0.0,0.0,0.0,0.0,0.0,0.0,0.0,0.0,0.0,0.0,3.6982,3.7305,3.7361,3.7014,3.6569,3.641,3.6558,3.6106,3.5907,3.6074,3.6058,3.6165,0.0,0.0,0.0,0.0,3.6426,3.6138,0.0,0.0,0.0,0.0,0.0,3.589,3.6232,3.6741,3.7305,0.0,0.0,0.0,0.0,0.0,0.0,0.0,3.7583,3.7062,3.6583,3.6324,0.0,0.0,0.0,3.687,3.7667,3.798,3.8212,3.8342,3.8053,3.8805,3.9595,3.9595,4.0427,4.1187,4.1187,4.1812,4.2428,4.2741,4.3385,4.3955,4.4252,4.43,4.43,4.43,4.43,4.43,4.43,4.43,4.43,4.43,4.43,4.43,4.43,4.3748,4.342,4.342,4.342,4.342,4.342,4.4005,4.43,4.43,4.3717,4.2657,4.1087,3.8275,3.6589,3.5999,3.5999,3.5999,3.5999,3.5999,3.5999,3.5999,3.5999,3.5999,3.5999,3.5999,3.5999,3.5999,3.5999,3.5999,3.5999,0.0,0.0,0.0,0.0,0.0,0.0,0.0,0.0,0.0,0.0,0.0,0.0,0.0,0.0,0.0,0.0,3.7458,3.7294,3.6946,3.6515,3.6408,3.6732,3.6134,3.5995,3.6493,3.6393,0.0,0.0,0.0,0.0,3.685,3.6318,3.5948,0.0,3.569,0.0,0.0,0.0,0.0,0.0,0.0,0.0,0.0,0.0,0.0,0.0,0.0,0.0,0.0,0.0,0.0,3.6863,3.6511,3.6393,0.0,0.0,0.0,3.7829,3.8468,3.8579,3.8447,3.8159,3.8846,3.9595,3.9595,4.0427,4.1187,4.1187,4.1523,4.1971,4.2515,4.3087,4.3682,4.4204,4.43,4.43,4.43,4.43,4.43,4.43,4.43,4.43,4.43,4.43,4.43,4.43,4.43,4.43,4.43,4.43,4.43,4.43,4.43,4.4145,4.3795,4.3083,4.1713,3.9643,3.7159,3.5999,3.5999,3.5999,3.5999,3.5999,3.5999,3.5999,3.5999,3.5999,3.5999,3.5999,3.5999,3.5999,3.5999,3.5999,3.5999,3.5999,0.0,0.0,0.0,0.0,0.0,0.0,0.0,0.0,0.0,0.0,0.0,0.0,0.0,3.7645,3.7611,3.7517,3.7329,3.7058,3.6747,3.6562,3.6367,3.6066,3.602,0.0,3.6493,3.6115,0.0,0.0,0.0,0.0,3.6435,3.6206,3.5948,3.569,3.569,3.569,3.5754,0.0,0.0,0.0,0.0,0.0,0.0,0.0,0.0,0.0,0.0,0.0,0.0,0.0,0.0,0.0,0.0,3.6393,3.6393,0.0,0.0,0.0,3.9024,3.9024,3.871,3.846,3.9005,3.9595,3.9595,4.0427,4.1187,4.1187,4.1211,4.1403,4.1947,4.2832,4.3682,4.4204,4.43,4.43,4.43,4.43,4.43,4.43,4.43,4.43,4.43,4.43,4.43,4.43,4.43,4.43,4.43,4.43,4.43,4.43,4.43,4.3686,4.242,3.9752,3.8358,3.8192,3.6708,3.5999,3.5999,3.5999,3.5999,3.5999,3.5999,3.5999,3.5999,3.5999,3.5999,3.5999,3.5999,3.5999,3.5999,3.5999,3.5999,3.5999,0.0,0.0,0.0,0.0,0.0,0.0,0.0,0.0,0.0,0.0,0.0,0.0,0.0,3.7628,3.7554,3.751,3.7249,3.6915,3.6585,3.632,3.6068,3.5808,3.614,3.6262,3.6115,3.6768,0.0,0.0,0.0,3.6879,3.6405,3.6335,3.6078,3.569,3.569,3.569,3.5754,3.6334,0.0,0.0,0.0,0.0,0.0,0.0,0.0,0.0,0.0,0.0,0.0,0.0,0.0,0.0,0.0,0.0,0.0,3.6969,3.7566,3.8179,3.9063,3.905,3.8736,3.8473,3.8994,3.9595,3.9595,4.0427,4.1187,4.1187,4.1187,4.1355,4.1899,4.2573,4.3207,4.3706,4.4075,4.43,4.43,4.43,4.43,4.43,4.43,4.43,4.43,4.43,4.43,4.43,4.43,4.43,4.43,4.43,4.43,4.43,4.43,4.3654,4.2309,3.9507,3.8092,3.8075,3.6674,3.5999,3.5999,3.5999,3.5999,3.5999,3.5999,3.5999,3.5999,3.5999,3.5999,3.5999,3.5999,3.5999,3.5999,3.5999,3.5999,3.5999,0.0,0.0,0.0,0.0,0.0,0.0,0.0,0.0,0.0,0.0,0.0,0.0,0.0,0.0,3.7458,3.7339,3.7075,3.677,3.6422,3.6464,3.6395,3.614,3.655,3.6743,3.6646,0.0,0.0,0.0,0.0,0.0,0.0,3.6375,3.6148,3.5717,3.5988,3.6059,0.0,0.0,0.0,3.7848,0.0,0.0,3.9438,0.0,0.0,0.0,0.0,0.0,0.0,0.0,0.0,0.0,0.0,0.0,0.0,0.0,0.0,3.8203,3.9166,3.9206,3.8893,3.8618,3.9129,3.9695,3.9623,4.0427,4.1187,4.1187,4.1187,4.1307,4.1682,4.2164,4.2726,4.3385,4.3955,4.43,4.43,4.43,4.43,4.43,4.43,4.43,4.43,4.43,4.43,4.43,4.43,4.43,4.43,4.43,4.43,4.43,4.3396,4.272,4.2309,3.9031,3.7645,3.8075,3.6674,3.5999,3.5999,3.5999,3.5999,3.5999,3.5999,3.5999,3.5999,3.5999,3.5999,3.5999,3.5999,3.5999,3.5999,3.5999,3.5999,3.5999,0.0,0.0,0.0,0.0,0.0,0.0,0.0,0.0,0.0,0.0,0.0,0.0,0.0,0.0,0.0,3.7022,3.6808,3.6569,3.6242,3.7012,3.7316,3.703,3.7274,3.7604,3.8047,0.0,0.0,0.0,0.0,0.0,0.0,0.0,3.6158,3.5757,3.6549,3.6801,3.667,0.0,3.7848,3.8488,0.0,3.9417,3.9116,0.0,0.0,0.0,3.8566,3.8149,0.0,3.6723,0.0,0.0,0.0,0.0,0.0,0.0,0.0,0.0,0.0,0.0,0.0,3.888,3.9387,3.9919,3.9654,4.0417,4.1187,4.1187,4.1187,4.1187,4.1187,4.1658,4.2317,4.3313,4.3907,4.4276,4.43,4.43,4.43,4.43,4.43,4.43,4.43,4.43,4.43,4.43,4.43,4.4285,4.4238,4.4238,4.4238,4.4238,4.1617,4.0862,4.2229,3.8092,3.6691,3.8009,3.6657,3.5999,3.5999,3.5999,3.5999,3.5999,3.5999,3.5999,3.5999,3.5999,3.5999,3.5999,3.5999,3.5999,3.5999,3.5999,3.5999,3.5999,0.0,0.0,0.0,0.0,0.0,0.0,0.0,0.0,0.0,0.0,0.0,0.0,0.0,0.0,3.7202,3.7014,3.6808,3.6747,3.6915,3.6911,3.6973,3.7071,3.7345,3.7331,3.7014,0.0,0.0,0.0,0.0,0.0,0.0,0.0,0.0,0.0,3.6681,3.7102,3.7504,3.7961,0.0,0.0,3.9343,3.9515,0.0,0.0,0.0,0.0,0.0,3.6896,3.6758,0.0,3.6393,3.6369,0.0,0.0,0.0,0.0,0.0,0.0,3.9509,0.0,0.0,0.0,0.0,0.0,3.9568,4.0138,4.073,4.1114,4.1187,4.1187,4.1187,4.1658,4.2091,4.2365,4.3144,4.3859,4.4252,4.43,4.43,4.43,4.43,4.43,4.43,4.43,4.43,4.43,4.43,4.3896,4.2894,4.2847,4.2847,4.2847,4.1136,4.0392,4.0781,3.7612,3.6203,3.6573,3.6186,3.5999,3.5999,3.5999,3.5999,3.5999,3.5999,3.5999,3.5999,3.5999,3.5999,3.5999,3.5999,3.5999,3.5999,3.5999,3.5999,3.5999,0.0,0.0,0.0,0.0,0.0,0.0,0.0,0.0,0.0,0.0,0.0,0.0,0.0,0.0,0.0,3.6892,3.6979,3.7022,3.7002,3.7383,3.7563,3.741,3.7637,3.7585,3.7147,0.0,0.0,0.0,0.0,0.0,0.0,0.0,0.0,0.0,0.0,0.0,0.0,0.0,0.0,0.0,3.9314,0.0,0.0,3.8549,3.8027,0.0,0.0,0.0,3.6733,3.6733,3.6884,0.0,0.0,0.0,0.0,0.0,0.0,0.0,0.0,0.0,0.0,3.8906,0.0,0.0,3.9699,4.0102,4.0589,4.1224,4.1273,4.1187,4.1187,4.1466,4.173,4.1971,4.2486,4.3144,4.3859,4.3979,4.4051,4.4276,4.43,4.43,4.43,4.43,4.43,4.43,4.43,4.3701,4.2372,4.2831,4.2878,4.2325,4.1505,4.0775,4.0214,3.7992,3.6573,3.5999,3.5999,3.5999,3.5999,3.5999,3.5999,3.5999,3.5999,3.5999,3.5999,3.5999,3.5999,3.5999,3.5999,3.5999,3.5999,3.5999,3.5999,3.5999,0.0,0.0,0.0,0.0,0.0,0.0,0.0,0.0,0.0,0.0,0.0,0.0,0.0,0.0,0.0,0.0,3.7262,3.738,3.6957,3.8081,3.8483,3.7858,3.8004,3.8014,3.7786,3.7269,0.0,0.0,0.0,0.0,0.0,0.0,0.0,0.0,0.0,0.0,0.0,0.0,0.0,3.9258,3.928,3.8969,0.0,0.0,3.783,3.7015,3.7092,3.714,3.7198,3.7274,3.7613,0.0,0.0,0.0,0.0,0.0,3.8944,0.0,0.0,0.0,0.0,0.0,3.917,0.0,3.982,4.0106,4.0578,4.1355,4.1368,4.123,4.123,4.123,4.1413,4.187,4.1957,4.2289,4.3289,4.3481,4.3682,4.4156,4.4252,4.43,4.43,4.43,4.43,4.43,4.4161,4.3498,4.215,4.3193,4.3287,4.2102,4.207,4.1473,4.0208,3.8805,3.7394,3.5999,3.5999,3.5999,3.5999,3.5999,3.5999,3.5999,3.5999,3.5999,3.5999,3.5999,3.5999,3.5999,3.5999,3.5999,3.5999,3.5999,3.5999,3.5999,0.0,0.0,0.0,0.0,0.0,0.0,0.0,0.0,0.0,0.0,0.0,0.0,0.0,0.0,0.0,0.0,3.7698,3.8024,3.8438,3.8023,3.787,3.812,3.772,3.7375,3.7182,3.7056,3.6969,0.0,0.0,0.0,0.0,0.0,0.0,0.0,0.0,0.0,0.0,0.0,0.0,3.8986,3.9203,0.0,3.7959,3.7933,3.7361,3.6585,3.7027,3.7182,3.7274,3.7688,3.7914,3.8002,0.0,0.0,0.0,0.0,0.0,0.0,0.0,0.0,0.0,0.0,0.0,0.0,3.9015,3.9588,4.0248,4.0838,4.1272,4.1521,4.1521,4.1521,4.1569,4.1666,4.1666,4.1968,4.2819,4.3265,4.3538,4.3634,4.4051,4.43,4.43,4.43,4.43,4.43,4.331,4.2063,4.0684,4.0856,4.0872,4.0635,4.0619,4.0468,4.0192,3.8805,3.7394,3.5999,3.5999,3.5999,3.5999,3.5999,3.5999,3.5999,3.5999,3.5999,3.5999,3.5999,3.5999,3.5999,3.5999,3.5999,3.5999,3.5999,3.5999,3.5999,0.0,0.0,0.0,0.0,0.0,0.0,0.0,0.0,0.0,0.0,0.0,0.0,0.0,0.0,0.0,0.0,0.0,0.0,0.0,0.0,3.7976,3.7901,3.75,3.7202,3.6998,3.6998,3.6998,3.6998,0.0,0.0,0.0,0.0,0.0,0.0,0.0,0.0,0.0,0.0,3.9303,3.8941,3.8671,0.0,3.7419,3.7187,3.6969,3.6833,3.7098,3.7562,3.814,3.868,3.8843,0.0,0.0,3.9057,3.9283,0.0,3.9484,3.9697,0.0,0.0,0.0,3.8919,0.0,0.0,0.0,3.9443,3.9992,4.0665,4.1128,4.1416,4.1416,4.1416,4.1416,4.1416,4.1416,4.1455,4.1576,4.2269,4.2847,4.3111,4.3586,4.3907,4.3907,4.4132,4.43,4.43,4.3051,4.2007,4.1296,4.0587,4.0522,4.1232,4.1248,4.1248,4.1248,3.985,3.8441,3.7045,3.6338,3.5999,3.5999,3.5999,3.5999,3.5999,3.5999,3.5999,3.5999,3.5999,3.5999,3.5999,3.5999,3.5999,3.5999,3.5999,3.5999,3.5999,0.0,0.0,0.0,0.0,0.0,0.0,0.0,0.0,0.0,0.0,0.0,0.0,0.0,0.0,0.0,0.0,0.0,0.0,0.0,0.0,0.0,3.7682,3.7404,3.7173,3.7056,3.7017,3.6998,3.6998,3.7129,3.741,0.0,0.0,0.0,0.0,0.0,0.0,0.0,0.0,0.0,3.8696,0.0,3.7632,3.7371,3.6898,3.6984,3.7374,3.7487,3.819,3.912,3.9559,3.9697,3.9697,3.9697,3.9697,0.0,0.0,0.0,0.0,0.0,0.0,0.0,0.0,0.0,3.8505,0.0,0.0,0.0,4.0481,4.0898,4.1152,4.1249,4.1273,4.1249,4.1128,4.12,4.1056,4.0415,4.1152,4.1938,4.2372,4.2973,4.3382,4.3367,4.3859,4.4223,4.4276,4.3263,4.2399,4.192,4.0829,4.0603,4.1457,4.1745,4.1761,4.1489,4.0613,3.9343,3.7696,3.6539,3.5999,3.5999,3.5999,3.5999,3.5999,3.5999,3.5999,3.5999,3.5999,3.5999,3.5999,3.5999,3.5999,3.5999,3.5999,3.5999,3.5999,3.8379,3.8301,0.0,0.0,0.0,0.0,0.0,0.0,0.0,0.0,0.0,0.0,0.0,0.0,0.0,0.0,0.0,0.0,3.8697,0.0,0.0,3.7853,3.7318,3.7105,3.725,3.7085,3.6998,3.6998,3.755,3.7821,3.7934,0.0,0.0,0.0,3.9615,0.0,0.0,0.0,3.8376,0.0,3.7632,3.7948,0.0,3.8035,3.7864,3.799,3.8504,3.9095,3.9635,0.0,3.9697,3.9697,0.0,3.9697,3.9697,3.9697,0.0,0.0,0.0,0.0,0.0,0.0,3.8605,0.0,0.0,0.0,3.9491,4.0001,0.0,4.0991,4.1452,0.0,0.0,4.0918,4.1233,4.1185,4.0189,4.0554,4.0966,4.1015,4.2117,4.2886,4.2876,4.3414,4.3924,4.4275,4.4006,4.2809,4.0543,4.0273,3.9687,3.8623,3.9785,3.9834,3.859,3.9654,3.8871,3.6236,3.6084,3.5999,3.5999,3.5999,3.5999,3.5999,3.5999,3.5999,3.5999,3.5999,3.5999,3.5999,3.5999,3.5999,3.5999,3.5999,3.5999,3.5999,0.0,0.0,0.0,0.0,0.0,0.0,0.0,0.0,0.0,0.0,0.0,0.0,0.0,0.0,0.0,0.0,0.0,3.8658,0.0,0.0,0.0,0.0,0.0,0.0,0.0,3.7037,3.7157,3.7522,3.7765,3.8271,3.9012,3.9556,0.0,0.0,3.964,0.0,3.8706,0.0,3.8132,0.0,0.0,3.8262,0.0,3.8001,3.7952,3.8605,3.9157,3.9509,3.9697,0.0,3.9697,0.0,0.0,0.0,0.0,0.0,0.0,0.0,0.0,0.0,0.0,0.0,0.0,0.0,3.8276,0.0,3.915,0.0,0.0,0.0,0.0,0.0,0.0,0.0,4.1228,4.0986,3.9909,4.0223,4.0632,4.0776,4.144,4.2067,4.2515,4.3364,4.3868,4.3833,4.3468,4.3044,4.2602,4.0289,3.9458,4.0484,3.9523,3.9101,3.9331,3.9101,3.8391,3.721,3.6386,3.5999,3.5999,3.5999,3.5999,3.5999,3.5999,3.5999,3.5999,3.5999,3.5999,3.5999,3.5999,3.5999,3.5999,3.5999,3.5999,3.5999,0.0,0.0,0.0,0.0,0.0,0.0,0.0,0.0,0.0,0.0,0.0,0.0,3.96,3.9307,0.0,0.0,0.0,3.8454,0.0,0.0,3.7596,0.0,0.0,0.0,0.0,0.0,3.7729,3.8169,3.8337,3.8899,3.9809,3.9968,0.0,0.0,0.0,3.8836,3.7902,0.0,3.7734,3.7902,3.7673,3.8362,3.9358,3.8303,3.8404,3.917,3.9559,3.9697,3.9697,3.9697,3.9697,3.9697,3.9697,3.9697,3.9697,0.0,0.0,0.0,3.9697,0.0,0.0,0.0,0.0,0.0,0.0,0.0,0.0,0.0,3.9801,0.0,0.0,0.0,4.1139,4.0994,0.0,4.0954,3.9864,4.0307,4.063,4.0278,4.0706,4.1365,4.2208,4.3037,4.3486,4.3415,4.3136,4.302,4.3177,4.0322,3.9266,4.0516,3.8948,3.8407,3.9031,3.8424,3.7909,3.7512,3.6488,3.5999,3.5999,3.5999,3.5999,3.5999,3.5999,3.5999,3.5999,3.5999,3.5999,3.5999,3.5999,3.5999,3.5999,3.5999,3.5999,3.5999,0.0,3.9752,0.0,0.0,0.0,0.0,0.0,0.0,0.0,0.0,0.0,0.0,0.0,0.0,0.0,0.0,0.0,3.8212,3.8193,0.0,3.7758,0.0,0.0,3.8057,0.0,0.0,0.0,3.8864,3.9444,3.9753,3.9809,4.0417,4.044,0.0,3.9231,3.865,3.8145,3.7433,3.6994,3.6799,3.7369,3.8135,3.8969,3.9434,3.9647,3.9685,3.9697,3.9697,3.9697,3.9697,3.9697,3.9697,3.9697,3.9697,0.0,0.0,0.0,0.0,0.0,0.0,0.0,3.9297,0.0,0.0,0.0,0.0,3.8179,0.0,0.0,0.0,4.0331,4.085,4.1042,0.0,4.1092,0.0,0.0,4.0933,4.0958,3.9098,3.9844,4.0908,4.1924,4.2171,4.253,4.3153,4.3492,4.2702,4.0456,4.0214,3.8937,3.6287,3.7445,3.7478,3.6152,3.7445,3.7411,3.6067,3.6016,3.5999,3.5999,3.5999,3.5999,3.5999,3.5999,3.5999,3.5999,3.5999,3.5999,3.5999,3.5999,3.5999,3.5999,3.5999,3.5999,3.5999,0.0,0.0,0.0,0.0,0.0,0.0,0.0,3.9769,0.0,0.0,0.0,0.0,0.0,3.8445,3.8202,0.0,0.0,3.832,3.863,3.836,0.0,0.0,0.0,3.8694,0.0,0.0,0.0,0.0,0.0,3.9848,3.9929,4.0152,3.9985,3.9502,0.0,3.8243,0.0,0.0,0.0,0.0,0.0,3.8957,3.8944,3.9484,3.9697,3.9697,3.9697,3.9697,3.9697,3.9697,3.9697,3.9747,4.0124,4.0236,4.0287,4.065,4.075,4.075,4.075,4.0684,4.0516,3.997,3.9686,3.9376,0.0,0.0,0.0,0.0,0.0,0.0,0.0,0.0,0.0,0.0,0.0,4.1434,0.0,4.1049,4.1056,4.0749,4.1384,4.1673,4.1318,4.1343,4.1765,4.2623,4.1799,4.1576,4.2335,4.0114,3.8805,3.8788,3.7428,3.6471,3.5999,3.6454,3.6454,3.5999,3.5999,3.5999,3.5999,3.5999,3.5999,3.5999,3.5999,3.5999,3.5999,3.5999,3.5999,3.5999,3.5999,3.5999,3.5999,3.5999,3.5999,3.5999,4.058,0.0,0.0,0.0,0.0,0.0,0.0,0.0,0.0,0.0,3.8621,0.0,3.8566,0.0,3.8551,0.0,3.8754,3.8987,3.9187,3.9049,0.0,3.9602,3.9508,0.0,0.0,0.0,0.0,0.0,0.0,4.0071,3.9996,3.9996,3.9656,3.904,3.8542,3.8053,3.7523,3.7036,3.7184,0.0,0.0,3.9308,3.922,3.9584,3.9697,3.9697,3.9697,3.9697,3.9722,3.9923,3.9985,4.0074,4.0613,4.0775,4.0851,4.1188,4.1289,4.1289,4.1289,4.1289,4.1173,4.0651,4.0469,4.0187,3.943,3.9634,4.0023,0.0,0.0,0.0,0.0,0.0,0.0,0.0,0.0,0.0,0.0,4.1773,4.1684,4.1858,4.198,4.1839,4.1234,4.1344,4.1427,4.1455,4.0729,4.0612,4.1326,3.9142,3.8141,3.8705,3.6961,3.5999,3.5999,3.5999,3.5999,3.5999,3.5999,3.5999,3.5999,3.5999,3.5999,3.5999,3.5999,3.5999,3.5999,3.5999,3.5999,3.5999,3.5999,3.5999,3.5999,3.5999,3.5999,3.5999,0.0,0.0,0.0,0.0,4.0569,0.0,0.0,0.0,3.9019,0.0,3.8504,3.826,3.8289,3.886,3.9247,3.9247,3.977,0.0,3.9869,3.9849,0.0,0.0,4.031,4.0633,4.0828,0.0,0.0,0.0,0.0,0.0,3.9952,3.993,3.9463,3.861,3.861,3.8087,3.7173,3.7173,3.7223,3.7386,3.8492,3.9233,3.9697,3.9697,3.9697,3.9697,3.9697,3.9735,3.9823,4.0337,4.0512,4.0625,4.1177,4.1339,4.1339,4.1378,4.1364,4.1364,4.1364,4.1364,4.1364,4.1326,4.115,4.0825,4.0278,4.0364,4.0435,0.0,0.0,0.0,0.0,0.0,0.0,0.0,0.0,0.0,4.2922,4.2964,4.2763,4.2249,4.1613,4.1364,4.1696,4.1938,4.1468,3.9934,4.0387,3.9809,3.777,3.7519,3.7056,3.6234,3.6067,3.6033,3.6101,3.6033,3.5999,3.5999,3.5999,3.5999,3.5999,3.5999,3.5999,3.5999,3.5999,3.5999,3.5999,3.5999,3.5999,3.5999,3.5999,3.5999,3.5999,3.5999,3.5999,3.5999,4.0487,4.0191,3.9954,0.0,3.9924,3.9702,0.0,0.0,0.0,0.0,3.9024,3.9102,3.9567,3.977,3.9857,3.9857,4.0002,0.0,0.0,0.0,0.0,4.1478,4.13,4.1253,4.1472,4.1148,0.0,4.1001,0.0,0.0,3.9458,3.9129,3.8861,3.8676,3.8676,3.8572,3.835,3.835,3.8405,3.8517,3.922,3.9584,3.9697,3.9697,3.9697,3.9697,3.9697,3.9948,4.0312,4.0462,4.075,4.1202,4.1795,4.1984,4.206,4.2448,4.2559,4.2559,4.2559,4.2559,4.2418,4.1745,4.1727,4.167,4.0866,4.1232,4.1729,4.1579,4.1897,4.2188,4.2188,4.2129,0.0,0.0,0.0,0.0,0.0,0.0,4.235,4.2224,4.1019,4.0679,4.1954,4.119,4.087,4.1435,3.9405,3.8668,3.9819,3.788,3.7471,3.9059,3.7092,3.6488,3.7545,3.6522,3.5999,3.5999,3.5999,3.5999,3.5999,3.5999,3.5999,3.5999,3.5999,3.5999,3.5999,3.5999,3.5999,3.5999,3.5999,3.5999,3.5999,3.5999,3.5999,3.5999,4.0007,0.0,0.0,3.9856,0.0,0.0,3.9343,3.9315,0.0,3.9567,3.9596,0.0,4.006,4.035,4.0534,4.0534,4.0825,0.0,4.135,0.0,0.0,4.1918,4.1773,4.1752,4.1877,4.1096,0.0,4.0862,0.0,0.0,3.8995,3.8955,3.8859,3.8698,3.8986,3.8973,3.88,3.8823,3.8867,3.8944,3.9484,3.9697,0.0,3.9697,3.9848,4.0049,4.0049,4.0236,4.0588,4.1091,4.143,4.1781,4.2361,4.2537,4.2626,4.2914,4.3014,4.3014,4.3014,4.3014,4.2883,4.2391,4.2412,4.2345,4.1629,4.2025,4.2475,4.2249,4.2474,4.2734,4.2734,4.2594,4.2538,0.0,0.0,0.0,0.0,0.0,0.0,4.2537,4.1737,4.1555,4.2468,4.105,4.0399,4.1167,3.9302,3.8358,3.8915,3.7348,3.7238,3.9061,3.7091,3.6674,3.8092,3.6708,3.5999,3.5999,3.5999,3.5999,3.5999,3.5999,3.5999,3.5999,3.5999,3.5999,3.5999,3.5999,3.5999,3.5999,3.5999,3.5999,3.5999,3.5999,3.5999,3.5999,3.9438,0.0,0.0,0.0,0.0,0.0,0.0,4.0091,0.0,4.0235,0.0,4.0263,4.035,4.0873,4.1221,4.1221,0.0,4.1991,4.1765,4.196,4.2009,4.1765,4.1856,4.1887,4.1887,4.0724,0.0,0.0,0.0,0.0,3.8602,3.9081,3.9134,3.8829,3.9394,3.9391,3.8957,3.8994,3.8994,3.9044,3.9509,3.9697,3.971,3.9772,4.0099,4.0512,4.0663,4.0713,4.0877,4.1858,4.2249,4.24,4.2864,4.3014,4.3014,4.3014,4.3014,4.3014,4.3014,4.3014,4.3014,4.3014,4.3014,4.2889,4.24,4.2676,4.2864,4.24,4.2676,4.3014,4.3014,4.3014,4.3014,0.0,0.0,0.0,0.0,0.0,0.0,0.0,4.2707,0.0,4.2961,4.1429,4.0404,4.0319,3.9736,3.864,3.6902,3.6487,3.6729,3.762,3.6526,3.6614,3.8092,3.6708,3.5999,3.5999,3.5999,3.5999,3.5999,3.5999,3.5999,3.5999,3.5999,3.5999,3.5999,3.5999,3.5999,3.5999,3.5999,3.5999,3.5999,3.5999,3.5999,3.5999,0.0,0.0,0.0,0.0,0.0,4.0933,4.0846,4.0439,4.0332,4.0854,4.0931,4.1144,4.1686,4.186,4.1918,4.1918,4.2034,0.0,0.0,0.0,0.0,4.204,4.1286,4.0848,4.0848,3.9733,3.9287,0.0,0.0,0.0,3.8591,3.8762,3.9042,3.9456,3.9788,3.9897,3.9855,3.965,3.9559,3.9584,3.966,3.9697,3.9747,4.0186,4.0412,4.0613,4.1544,4.1884,4.1947,4.2123,4.2487,4.2889,4.2964,4.3014,4.3014,4.3014,4.3014,4.3014,4.3014,4.3014,4.3014,4.3014,4.3014,4.2989,4.2889,4.2925,4.2975,4.2889,4.2925,4.3014,4.3014,4.3014,4.3014,4.3014,0.0,0.0,0.0,0.0,0.0,0.0,0.0,4.1071,4.2838,4.2442,4.1907,4.1464,4.0467,3.9165,3.7514,3.6785,3.6712,3.7439,3.619,3.6333,3.8075,3.6708,3.5999,3.5999,3.5999,3.5999,3.5999,3.5999,3.5999,3.5999,3.5999,3.5999,3.5999,3.5999,3.5999,3.5999,3.5999,3.5999,3.5999,3.5999,3.5999,3.5999,0.0,0.0,0.0,0.0,0.0,0.0,0.0,4.1337,4.125,4.157,4.1628,4.1744,4.2063,4.2092,4.2092,4.2092,4.2092,4.2092,4.2092,4.2092,4.2092,4.2092,4.1629,0.0,4.0614,3.9585,3.9155,3.9354,0.0,0.0,3.9128,3.9433,3.9744,4.0007,4.0199,4.0273,4.0275,3.9877,3.9697,3.9697,3.9697,3.9697,3.976,4.03,4.0675,4.1026,4.1884,4.2375,4.2612,4.2612,4.2788,4.3014,4.3014,4.3014,4.3014,4.3014,4.3014,4.3014,4.3014,4.3014,4.3014,4.3014,4.3014,4.3014,4.3014,4.3014,4.3014,4.3014,4.3014,4.3014,4.3014,4.3014,4.3014,4.3014,4.3014,0.0,0.0,0.0,0.0,0.0,0.0,0.0,4.2457,4.225,4.2101,4.2126,4.0972,3.9549,3.7887,3.7663,3.7484,3.7255,3.6677,3.6931,3.8092,3.6708,3.5999,3.5999,3.5999,3.5999,3.5999,3.5999,3.5999,3.5999,3.5999,3.5999,3.5999,3.5999,3.5999,3.5999,3.5999,3.5999,3.5999,3.5999,3.5999,3.5999,0.0,4.0783,0.0,0.0,4.1846,4.2092,4.2092,4.2208,4.2248,4.2131,4.2092,4.216,4.2266,4.2295,4.2364,4.2498,4.2498,4.244,4.2295,4.2295,4.2125,4.1793,4.1606,4.1022,4.0032,3.9196,3.8842,0.0,0.0,3.8578,3.9346,4.0047,4.0414,4.0409,4.0463,4.0453,4.0287,3.989,3.9697,3.9697,3.9697,3.9772,3.9923,4.0462,4.1001,4.1567,4.216,4.2637,4.3014,4.3014,4.3014,4.3014,4.3014,4.3014,4.3014,4.3014,4.3014,4.3014,4.3014,4.3014,4.3014,4.3014,4.3014,4.3014,4.3014,4.3014,4.3014,4.3014,4.3014,4.3014,4.3014,4.3014,4.2986,4.2916,4.2902,4.2863,0.0,0.0,0.0,0.0,0.0,0.0,4.2124,4.1903,4.1946,4.2286,4.1194,3.9781,3.8125,3.8485,3.8324,3.7412,3.7295,3.7525,3.803,3.6665,3.5999,3.5999,3.5999,3.5999,3.5999,3.5999,3.5999,3.5999,3.5999,3.5999,3.5999,3.5999,3.5999,3.5999,3.5999,3.5999,3.5999,3.5999,3.5999,3.5999,0.0,0.0,0.0,0.0,0.0,4.2092,4.2092,4.2567,4.2712,4.2179,4.2092,4.2295,4.2857,4.2915,4.3177,4.3757,4.3816,4.3554,4.2974,4.2915,4.2257,4.0792,3.9935,3.9033,3.8081,3.7617,3.7521,0.0,0.0,3.8625,3.8451,3.9779,4.0425,4.0478,4.0516,4.0236,3.9774,3.9723,3.9697,3.9697,3.9697,3.9998,4.0487,4.1026,4.1605,4.2199,4.2738,4.2964,4.3014,4.3014,4.3014,4.3014,4.3014,4.3014,4.3014,4.3014,4.3014,4.3014,4.3014,4.3014,4.3014,4.3014,4.3014,4.3014,4.3014,4.3014,4.3014,4.3014,4.3014,4.3014,4.3014,4.3014,4.2916,4.2597,4.2541,4.2467,4.2238,0.0,4.2181,4.2153,0.0,0.0,4.211,4.2089,4.1981,4.1789,4.0972,3.9792,3.818,3.8592,3.8698,3.8292,3.7529,3.7345,3.7826,3.6606,3.5999,3.5999,3.5999,3.5999,3.5999,3.5999,3.5999,3.5999,3.5999,3.5999,3.5999,3.5999,3.5999,3.5999,3.5999,3.5999,3.5999,3.5999,3.5999,3.5999,4.113,4.1475,4.1773,4.2063,4.2092,4.2208,4.2586,4.2857,4.3061,4.3235,4.3235,4.3322,4.3573,4.3612,4.3699,4.399,4.399,4.3903,4.3612,4.2994,4.235,4.1705,4.0748,3.9769,3.8791,3.8585,3.8558,0.0,0.0,0.0,3.9874,4.0438,4.0625,4.0504,4.0326,4.0147,3.9929,3.9774,3.9697,3.9722,4.0049,4.0312,4.0588,4.1505,4.1984,4.2274,4.2813,4.3014,4.3014,4.3014,4.3014,4.3014,4.3014,4.3014,4.3014,4.3014,4.3014,4.3014,4.3014,4.3014,4.3014,4.3014,4.3014,4.3014,4.3014,4.3014,4.3014,4.3014,4.3014,4.3014,4.3014,4.3014,4.2972,4.2807,4.2625,4.2442,4.2369,0.0,0.0,4.183,0.0,4.1745,4.1573,4.141,4.1202,4.095,4.0773,4.0213,3.9132,3.8774,3.8198,3.7292,3.6997,3.6691,3.6345,3.6119,3.5999,3.5999,3.5999,3.5999,3.5999,3.5999,3.5999,3.5999,3.5999,3.5999,3.5999,3.5999,3.5999,3.5999,3.5999,3.5999,3.5999,3.5999,3.5999,3.5999,4.1368,4.1773,4.2092,4.2092,4.2248,4.2509,4.2944,4.3322,4.3728,4.4193,4.4425,4.4483,4.428,4.4251,4.4338,4.4541,4.457,4.4363,4.3847,4.3115,4.2339,4.1553,4.085,0.0,3.9013,3.9144,3.9234,3.9184,3.9599,0.0,4.0399,4.0487,4.0463,4.0364,4.0185,4.007,3.9968,3.9787,3.9697,3.9747,4.0287,4.0575,4.0839,4.1833,4.2299,4.2487,4.2864,4.3014,4.3014,4.3014,4.3014,4.3014,4.3014,4.3014,4.3014,4.3014,4.3014,4.3014,4.3014,4.3014,4.3014,4.3014,4.3014,4.3014,4.3014,4.3014,4.3014,4.3014,4.3014,4.3014,4.3014,4.3014,4.2972,4.2863,4.2594,4.2354,4.2245,4.2001,0.0,4.1621,4.1606,4.1535,4.1344,4.1138,4.0918,4.067,4.0819,4.0612,3.993,3.9188,3.8377,3.7483,3.7045,3.6516,3.5901,3.5978,3.5999,3.5999,3.5999,3.5999,3.5999,3.5999,3.5999,3.5999,3.5999,3.5999,3.5999,3.5999,3.5999,3.5999,3.5999,3.5999,3.5999,3.5999,3.5999,3.5999,4.1957,4.2092,4.2092,4.2092,4.2586,4.3003,4.3003,4.4077,4.489,4.489,4.5471,4.5616,4.4948,4.489,4.5151,4.5819,4.5877,4.5153,4.3533,4.3397,4.2205,3.9554,3.942,3.8977,3.8052,3.8605,3.8919,3.8894,0.0,3.9791,3.9234,3.9496,3.9777,4.0109,4.0109,3.9942,3.9697,3.9697,3.9697,3.9747,4.0287,4.0826,4.1352,4.1984,4.2526,4.2989,4.3014,4.3014,4.3014,4.3014,4.3014,4.3014,4.3014,4.3014,4.3014,4.3014,4.3014,4.3014,4.3014,4.3014,4.3014,4.3014,4.3014,4.3014,4.3014,4.3014,4.3014,4.3014,4.3014,4.3014,4.3014,4.3014,4.2902,4.2555,4.2284,4.1986,4.1663,4.1387,0.0,4.1578,4.1606,4.1606,4.1606,4.1582,4.1462,4.1216,4.1187,4.097,4.0427,3.9937,3.9663,3.9671,3.7994,3.7085,3.709,3.635,3.5999,3.5999,3.5999,3.5999,3.5999,3.5999,3.5999,3.5999,3.5999,3.5999,3.5999,3.5999,3.5999,3.5999,3.5999,3.5999,3.5999,3.5999,3.5999,3.5999,4.2073,4.2422,4.2702,4.2702,4.3264,4.3816,4.4222,4.4629,4.5064,4.5529,4.5761,4.5542,4.4601,4.5124,4.5375,4.4834,4.4816,4.4275,4.3081,4.2313,4.1529,4.0658,3.9964,3.9474,3.9183,3.9358,3.9434,3.9434,3.9892,3.9994,3.9817,3.9893,3.9893,3.9814,3.9814,3.9787,3.9697,3.9697,3.9898,4.0287,4.0826,4.1391,4.197,4.2537,4.2838,4.3014,4.3014,4.3014,4.3014,4.3014,4.3014,4.3014,4.3014,4.3014,4.3014,4.3014,4.3014,4.3014,4.3014,4.3014,4.3014,4.3014,4.3014,4.3014,4.3014,4.3014,4.3014,4.3014,4.3014,4.3014,4.3014,4.3014,4.2972,4.2874,4.2411,4.2068,4.1958,4.1502,4.1215,4.1316,4.133,4.133,4.133,4.133,4.1372,4.1462,4.1466,4.1416,4.1299,3.9247,3.8171,3.8409,3.6493,3.5451,3.5451,3.5818,3.5999,3.5999,3.5999,3.5999,3.5999,3.5999,3.5999,3.5999,3.5999,3.5999,3.5999,3.5999,3.5999,3.5999,3.5999,3.5999,3.5999,3.5999,3.5999,3.5999,4.2382,4.2741,4.309,4.3322,4.3903,4.4454,4.4832,4.4782,4.4969,4.5803,4.5561,4.5035,4.4371,4.4897,4.4874,4.3831,4.3748,4.3309,4.2269,4.158,4.1019,4.0642,4.0045,3.9697,3.9697,3.9697,3.9697,3.9697,3.9865,3.9942,3.9942,3.9942,3.9852,3.9697,3.9697,3.9697,3.9697,3.9697,4.0023,4.0563,4.1088,4.1656,4.2249,4.2788,4.3014,4.3014,4.3014,4.3014,4.3014,4.3014,4.3014,4.3014,4.3014,4.3014,4.3014,4.3014,4.3014,4.3014,4.3014,4.3014,4.3014,4.3014,4.3014,4.3014,4.3014,4.3014,4.3014,4.3014,4.3014,4.3014,4.3014,4.3014,4.3014,4.3014,4.2481,4.211,4.211,4.1573,4.123,4.1344,4.1359,4.1359,4.1359,4.1359,4.1387,4.1435,4.1435,4.146,4.151,3.8945,3.7528,3.7618,3.5722,3.4707,3.4707,3.5569,3.5999,3.5999,3.5999,3.5999,3.5999,3.5999,3.5999,3.5999,3.5999,3.5999,3.5999,3.5999,3.5999,3.5999,3.5999,3.5999,3.5999,3.5999,3.5999,3.5999,4.2886,4.3061,4.3301,4.3874,4.4527,4.4933,4.4771,4.4487,4.4643,4.5572,4.4816,4.4172,4.4102,4.409,4.3689,4.2671,4.2659,4.2245,4.1157,4.1094,4.068,3.9749,3.9697,3.9697,3.9697,3.9697,3.9697,3.9697,3.9697,3.9697,3.9697,3.9697,3.9697,3.9697,3.9697,3.9697,3.9697,3.9697,4.0023,4.0613,4.1088,4.1667,4.2299,4.2813,4.3014,4.3014,4.3014,4.3014,4.3014,4.3014,4.3014,4.3014,4.3014,4.3014,4.3014,4.3014,4.3014,4.3014,4.3014,4.3014,4.3014,4.3014,4.3014,4.3014,4.3014,4.3014,4.3014,4.3014,4.3014,4.3014,4.3014,4.3014,4.3014,4.3014,4.2481,4.211,4.211,4.1573,4.1287,4.1535,4.1578,4.1578,4.1578,4.1578,4.1478,4.1244,4.1215,4.1215,4.1215,3.9054,3.7663,3.7324,3.5595,3.4707,3.4707,3.5569,3.5999,3.5999,3.5999,3.5999,3.5999,3.5999,3.5999,3.5999,3.5999,3.5999,3.5999,3.5999,3.5999,3.5999,3.5999,3.5999,3.5999,3.5999,3.5999,3.5999,4.2963,4.3787,4.4264,4.3663,4.4729,4.512,4.3538,4.3861,4.4125,4.3594,4.3309,4.2852,4.201,4.1924,4.1531,4.0516,4.1145,4.1158,4.0134,4.007,3.9942,3.971,3.9697,3.9697,3.9697,3.9697,3.9697,3.9697,3.9697,3.9697,3.9697,3.9697,3.9697,3.9697,3.9697,3.9697,3.9697,3.9697,4.0249,4.1113,4.1239,4.1918,4.2813,4.2964,4.3014,4.3014,4.3014,4.3014,4.3014,4.3014,4.3014,4.3014,4.3014,4.3014,4.3014,4.3014,4.3014,4.3014,4.3014,4.3014,4.3014,4.3014,4.3014,4.3014,4.3014,4.3014,4.3014,4.3014,4.3014,4.3014,4.3014,4.3014,4.3014,4.3014,4.2481,4.211,4.211,4.1573,4.1215,4.1287,4.1287,4.1287,4.1287,4.1287,4.1359,4.1478,4.1506,4.1506,4.1506,3.9149,3.7663,3.7324,3.5595,3.4707,3.4707,3.5569,3.5999,3.5999,3.5999,3.5999,3.5999,3.5999,3.5999,3.5999,3.5999,3.5999,3.5999,3.5999,3.5999,3.5999,3.5999,3.5999,3.5999,3.5999,3.5999,3.5999,4.3409,4.3873,4.4134,4.3871,4.4197,4.4118,4.2973,4.2864,4.2861,4.2816,4.2379,4.1852,4.1257,4.1194,4.0806,3.98,4.0185,4.0275,3.9749,3.9697,3.9697,3.9697,3.9697,3.9697,3.9697,3.9697,3.9697,3.9697,3.9697,3.9697,3.9697,3.9697,3.9697,3.9697,3.9697,3.9697,3.9735,3.9973,4.0538,4.1314,4.1592,4.2247,4.3014,4.3014,4.3014,4.3014,4.3014,4.3014,4.3014,4.3014,4.3014,4.3014,4.3014,4.3014,4.3014,4.3014,4.3014,4.3014,4.3014,4.3014,4.3014,4.3014,4.3014,4.3014,4.3014,4.3014,4.3014,4.3014,4.3014,4.3014,4.3014,4.3014,4.3014,4.3014,4.2481,4.211,4.211,4.1573,4.1187,4.1187,4.1187,4.1187,4.1187,4.1187,4.1258,4.1416,4.143,4.143,4.143,3.898,3.7555,3.7569,3.5701,3.4805,3.5019,3.5667,3.5999,3.5999,3.5999,3.5999,3.5999,3.5999,3.5999,3.5999,3.5999,3.5999,3.5999,3.5999,3.5999,3.5999,3.5999,3.5999,3.5999,3.5999,3.5999,3.5999,4.3625,4.3516,4.3429,4.3767,4.3273,4.2695,4.2379,4.1692,4.1468,4.2233,4.1531,4.0983,4.0983,4.0983,4.0617,3.9774,3.9697,3.9697,3.9697,3.9697,3.9697,3.9697,3.9697,3.9697,3.9697,3.9697,3.9697,3.9697,3.9697,3.9697,3.9697,3.9697,3.9697,3.9697,3.9697,3.9697,3.9735,4.0261,4.08,4.1339,4.1959,4.2526,4.3014,4.3014,4.3014,4.3014,4.3014,4.3014,4.3014,4.3014,4.3014,4.3014,4.3014,4.3014,4.3014,4.3014,4.3014,4.3014,4.3014,4.3014,4.3014,4.3014,4.3014,4.3014,4.3014,4.3014,4.3014,4.3014,4.3014,4.3014,4.3014,4.3014,4.2986,4.2919,4.2453,4.2082,4.2015,4.1545,4.1187,4.1187,4.1187,4.1187,4.1187,4.1187,4.1187,4.1187,4.1187,4.1187,4.1187,3.8714,3.7518,3.7987,3.5843,3.4961,3.5488,3.5823,3.5999,3.5999,3.5999,3.5999,3.5999,3.5999,3.5999,3.5999,3.5999,3.5999,3.5999,3.5999,3.5999,3.5999,3.5999,3.5999,3.5999,3.5999,3.5999,3.5999,4.2469,4.2775,4.2647,4.1826,4.2306,4.2208,4.0453,4.0756,4.0957,4.0262,4.0045,3.9929,3.9929,3.9929,3.9865,3.971,3.9697,3.9697,3.9697,3.9697,3.9697,3.9697,3.9697,3.9697,3.9697,3.9697,3.9697,3.9697,3.9697,3.9697,3.9697,3.9697,3.9697,3.9697,3.9697,3.9697,3.9735,4.0261,4.08,4.1339,4.1959,4.2526,4.3014,4.3014,4.3014,4.3014,4.3014,4.3014,4.3014,4.3014,4.3014,4.3014,4.3014,4.3014,4.3014,4.3014,4.3014,4.3014,4.3014,4.3014,4.3014,4.3014,4.3014,4.3014,4.3014,4.3014,4.3014,4.3014,4.3014,4.3014,4.3014,4.3014,4.2916,4.2611,4.2298,4.1986,4.1706,4.1402,4.1187,4.1187,4.1187,4.1187,4.1187,4.1187,4.1187,4.1187,4.1187,4.1187,4.1187,3.8714,3.7671,3.8472,3.6042,3.5098,3.5901,3.5979,3.5999,3.5999,3.5999,3.5999,3.5999,3.5999,3.5999,3.5999,3.5999,3.5999,3.5999,3.5999,3.5999,3.5999,3.5999,3.5999,3.5999,3.5999,3.5999,3.5999,4.1569,4.1785,4.179,4.1282,4.1171,4.082,3.9865,4.0096,4.0224,3.9774,3.9697,3.9697,3.9697,3.9697,3.9697,3.9697,3.9697,3.9697,3.9697,3.9697,3.9697,3.9697,3.9697,3.9697,3.9697,3.9697,3.9697,3.9697,3.9697,3.9697,3.9697,3.9697,3.9697,3.9697,3.9697,3.9697,3.9747,4.0588,4.1063,4.1378,4.2272,4.2788,4.3014,4.3014,4.3014,4.3014,4.3014,4.3014,4.3014,4.3014,4.3014,4.3014,4.3014,4.3014,4.3014,4.3014,4.3014,4.3014,4.3014,4.3014,4.3014,4.3014,4.3014,4.3014,4.3014,4.3014,4.3014,4.3014,4.3014,4.3014,4.3014,4.3014,4.2902,4.2541,4.227,4.1972,4.1649,4.1373,4.1187,4.1187,4.1187,4.1187,4.1187,4.1187,4.1187,4.1187,4.1187,4.1187,4.1187,3.8714,3.77,3.8559,3.6517,3.5589,3.5999,3.5999,3.5999,3.5999,3.5999,3.5999,3.5999,3.5999,3.5999,3.5999,3.5999,3.5999,3.5999,3.5999,3.5999,3.5999,3.5999,3.5999,3.5999,3.5999,3.5999,3.5999,4.0582,4.0753,4.0857,4.0857,4.0198,3.9697,3.9697,3.9697,3.9697,3.9697,3.9697,3.9697,3.9697,3.9697,3.9697,3.9697,3.9697,3.9697,3.9697,3.9697,3.9697,3.9697,3.9697,3.9697,3.9697,3.9697,3.9697,3.9697,3.9697,3.9697,3.9697,3.9697,3.9697,3.9697,3.9697,3.9697,3.9772,4.0851,4.1289,4.1389,4.2534,4.3014,4.2986,4.2667,4.2737,4.2972,4.2653,4.2737,4.3014,4.3014,4.3014,4.3014,4.3014,4.3014,4.3014,4.3014,4.3014,4.3014,4.3014,4.3014,4.3014,4.3014,4.3014,4.3014,4.3014,4.3014,4.3014,4.3014,4.3014,4.3014,4.3014,4.2944,4.279,4.2467,4.2171,4.1873,4.1549,4.133,4.1187,4.1187,4.1187,4.1187,4.1187,4.1187,4.1187,4.1187,4.1187,4.1187,4.1187,3.8798,3.7561,3.7853,3.6656,3.5999,3.5999,3.5999,3.5999,3.5999,3.5999,3.5999,3.5999,3.5999,3.5999,3.5999,3.5999,3.5999,3.5999,3.5999,3.5999,3.5999,3.5999,3.5999,3.5999,3.5999,3.5999,3.5999,3.9363,3.9683,3.9826,3.9826,3.9762,3.9697,3.9697,3.9697,3.9697,3.9697,3.9697,3.9697,3.9697,3.9697,3.9697,3.9697,3.9697,3.9697,3.9697,3.9697,3.9697,3.9697,3.9697,3.9697,3.9697,3.9697,3.9697,3.9697,3.9697,3.9697,3.9697,3.9697,3.9697,3.9697,3.9697,3.9697,3.9772,4.0851,4.1289,4.1389,4.2534,4.3014,4.2863,4.1696,4.1966,4.2835,4.1657,4.1994,4.3014,4.3014,4.3014,4.3014,4.3014,4.3014,4.3014,4.3014,4.3014,4.3014,4.3014,4.3014,4.3014,4.3014,4.3014,4.3014,4.3014,4.3014,4.3014,4.3014,4.3014,4.3014,4.3014,4.2737,4.2453,4.2181,4.1859,4.1535,4.1273,4.1201,4.1187,4.1187,4.1187,4.1187,4.1187,4.1187,4.1187,4.1187,4.1187,4.1187,4.1187,3.907,3.7165,3.5676,3.5866,3.5999,3.5999,3.5999,3.5999,3.5999,3.5999,3.5999,3.5999,3.5999,3.5999,3.5999,3.5999,3.5999,3.5999,3.5999,3.5999,3.5999,3.5999,3.5999,3.5999,3.5999,3.5999,3.5999,3.8405,3.888,3.9308,3.9647,3.9697,3.9697,3.9697,3.9697,3.9697,3.9697,3.9697,3.9697,3.9697,3.9697,3.9697,3.9697,3.9697,3.9697,3.9697,3.9697,3.9697,3.9697,3.9697,3.9697,3.9697,3.9697,3.9697,3.9697,3.9697,3.9697,3.9697,3.9697,3.9697,3.9697,3.9697,3.9697,3.9747,4.0487,4.1001,4.1378,4.2171,4.2688,4.2958,4.2471,4.2583,4.2944,4.2457,4.2597,4.3014,4.3014,4.3014,4.3014,4.3014,4.3014,4.3014,4.3014,4.3014,4.3014,4.3014,4.3014,4.3014,4.3014,4.3014,4.3014,4.3014,4.3014,4.3014,4.3014,4.3014,4.3014,4.3014,4.2748,4.2425,4.2153,4.183,4.1506,4.123,4.1187,4.1187,4.1187,4.1187,4.1187,4.1187,4.1187,4.1187,4.1187,4.1187,4.1187,4.1187,3.9379,3.7429,3.5455,3.5784,3.5999,3.5999,3.5999,3.5999,3.5999,3.5999,3.5999,3.5999,3.5999,3.5999,3.5999,3.5999,3.5999,3.5999,3.5999,3.5999,3.5999,3.5999,3.5999,3.5999,3.5999,3.5999,3.5999,3.7688,3.8379,3.9019,3.9383,3.9584,3.9697,3.9697,3.9697,3.9697,3.9697,3.9697,3.9697,3.9697,3.9697,3.9697,3.9697,3.9697,3.9697,3.9697,3.9697,3.9697,3.9697,3.9697,3.9697,3.9697,3.9697,3.9697,3.9697,3.9697,3.9697,3.9697,3.9697,3.9697,3.9697,3.9697,3.9697,3.9735,4.0261,4.08,4.1339,4.1959,4.2526,4.2972,4.2555,4.2653,4.2958,4.2555,4.2653,4.3014,4.3014,4.3014,4.3014,4.3014,4.3014,4.3014,4.3014,4.3014,4.3014,4.3014,4.3014,4.3014,4.3014,4.3014,4.3014,4.3014,4.3014,4.3014,4.3014,4.3014,4.3014,4.3014,4.2748,4.2425,4.2153,4.183,4.1506,4.123,4.1187,4.1187,4.1187,4.1187,4.1187,4.1187,4.1187,4.1187,4.1187,4.1187,4.097,4.0419,3.9415,3.7851,3.565,3.5862,3.5999,3.5999,3.5999,3.5999,3.5999,3.5999,3.5999,3.5999,3.5999,3.5999,3.5999,3.5999,3.5999,3.5999,3.5999,3.5999,3.5999,3.5999,3.5999,3.5999,3.5999,3.5999,3.5999,3.7198,3.8115,3.8894,3.8894,3.9333,3.9697,3.9697,3.9697,3.9697,3.9697,3.9697,3.9697,3.9697,3.9697,3.9697,3.9697,3.9697,3.9697,3.9697,3.9697,3.9697,3.9697,3.9697,3.9697,3.9697,3.9697,3.9697,3.9697,3.9697,3.9697,3.9697,3.9697,3.9697,3.9697,3.9697,3.9697,3.9722,4.0261,4.08,4.1352,4.1959,4.2526,4.2863,4.1586,4.1909,4.2821,4.1558,4.1937,4.3014,4.3014,4.3014,4.3014,4.3014,4.3014,4.3014,4.3014,4.3014,4.3014,4.3014,4.3014,4.3014,4.3014,4.3014,4.3014,4.3014,4.3014,4.3014,4.3014,4.3014,4.3014,4.3014,4.2748,4.2425,4.2153,4.183,4.1506,4.123,4.1187,4.1187,4.1187,4.1187,4.1187,4.1187,4.1196,4.1196,4.1187,4.1187,4.0425,3.87,3.9114,3.8352,3.6064,3.5999,3.5999,3.5999,3.5999,3.5999,3.5999,3.5999,3.5999,3.5999,3.5999,3.5999,3.5999,3.5999,3.5999,3.5999,3.5999,3.5999,3.5999,3.5999,3.5999,3.5999,3.5999,3.5999,3.5999,3.7135,3.7776,3.8404,3.8818,3.9333,3.9697,3.9697,3.9697,3.9697,3.9697,3.9697,3.9697,3.9697,3.9697,3.9697,3.9697,3.9697,3.9697,3.9697,3.9697,3.9697,3.9697,3.9697,3.9697,3.9697,3.9697,3.9697,3.9697,3.9697,3.9697,3.9697,3.9697,3.9697,3.9697,3.9697,3.9697,3.971,3.9873,4.0236,4.0775,4.1327,4.192,4.2434,4.2434,4.2667,4.2958,4.2569,4.2681,4.3014,4.3014,4.3014,4.3014,4.3014,4.3014,4.3014,4.3014,4.3014,4.3014,4.3014,4.3014,4.3014,4.3014,4.3014,4.3014,4.3014,4.3014,4.3014,4.3014,4.3014,4.3014,4.3014,4.2748,4.2425,4.2153,4.183,4.1506,4.123,4.1187,4.1187,4.1187,4.1187,4.1187,4.1187,4.0345,4.0185,4.1115,4.1548,4.0852,3.87,3.9114,3.8352,3.6064,3.5999,3.5999,3.5999,3.5999,3.5999,3.5999,3.5999,3.5999,3.5999,3.5999,3.5999,3.5999,3.5999,3.5999,3.5999,3.5999,3.5999,3.5999,3.5999,3.5999,3.5999,3.5999,3.5999,3.5999,3.6808,3.7324,3.7864,3.8454,3.9007,3.9459,3.9685,3.9697,3.9697,3.9697,3.9697,3.9697,3.9697,3.9697,3.9697,3.9697,3.9697,3.9697,3.9697,3.9697,3.9697,3.9697,3.9697,3.9697,3.9697,3.9697,3.9697,3.9697,3.9697,3.9697,3.9697,3.9697,3.9697,3.9697,3.9697,3.9697,3.9697,3.9697,4.0023,4.0538,4.0851,4.148,4.2238,4.2576,4.2813,4.3014,4.3014,4.3014,4.3014,4.3014,4.3014,4.3014,4.3014,4.3014,4.3014,4.3014,4.3014,4.3014,4.3014,4.3014,4.3014,4.3014,4.3014,4.3014,4.3014,4.3014,4.3014,4.3014,4.3014,4.3014,4.3014,4.2821,4.258,4.2181,4.193,4.1673,4.1244,4.1187,4.1187,4.1187,4.1187,4.1187,4.1187,3.9995,3.9548,4.0345,4.1582,4.1242,3.8722,3.9304,3.8575,3.6084,3.5999,3.5999,3.5999,3.5999,3.5999,3.5999,3.5999,3.5999,3.5999,3.5999,3.5999,3.5999,3.5999,3.5999,3.5999,3.5999,3.5999,3.5999,3.5999,3.5999,3.5999,3.5999,3.5999,3.5999,3.6393,3.6833,3.7349,3.7839,3.8454,3.907,3.9559,3.9685,3.9697,3.9697,3.9697,3.9697,3.9697,3.9697,3.9697,3.9697,3.9697,3.9697,3.9697,3.9697,3.9697,3.9697,3.9697,3.9697,3.9697,3.9697,3.9697,3.9697,3.9697,3.9697,3.9697,3.9697,3.9697,3.9697,3.9697,3.9697,3.9697,3.9697,3.9973,4.0437,4.0487,4.1117,4.2048,4.2149,4.2487,4.2925,4.2975,4.3014,4.3014,4.3014,4.3014,4.3014,4.3014,4.3014,4.3014,4.3014,4.3014,4.3014,4.3014,4.3014,4.3014,4.3014,4.3014,4.3014,4.3014,4.3014,4.3014,4.3014,4.3014,4.3014,4.3014,4.3014,4.2804,4.2209,4.211,4.1897,4.1273,4.1187,4.1187,4.1187,4.1187,4.1187,4.1187,4.0097,3.9275,3.9054,4.1371,4.1516,3.8587,3.9555,3.892,3.6084,3.5999,3.5999,3.5999,3.5999,3.5999,3.5999,3.5999,3.5999,3.5999,3.5999,3.5999,3.5999,3.5999,3.5999,3.5999,3.5999,3.5999,3.5999,3.5999,3.5999,3.5999,3.5999,3.5999,3.5999,3.6393,3.6833,3.7248,3.7349,3.8215,3.8944,3.9044,3.9434,3.9697,3.9697,3.9697,3.9697,3.9697,3.9697,3.9697,3.9697,3.9697,3.9697,3.9697,3.9697,3.9697,3.9697,3.9697,3.9697,3.9697,3.9697,3.9697,3.9697,3.9697,3.9697,3.9697,3.9697,3.9697,3.9697,3.9697,3.9697,3.9697,3.9697,3.9785,3.9898,4.0337,4.0638,4.0978,4.1858,4.2274,4.2425,4.2838,4.3014,4.3014,4.3014,4.3014,4.3014,4.3014,4.3014,4.3014,4.3014,4.3014,4.3014,4.3014,4.3014,4.3014,4.3014,4.3014,4.3014,4.3014,4.3014,4.3014,4.3014,4.3014,4.3014,4.3014,4.3014,4.2804,4.2209,4.211,4.1897,4.1273,4.1187,4.1187,4.1187,4.1187,4.1187,4.1187,4.0942,3.9922,3.788,4.0856,4.1136,3.7329,3.9072,3.892,3.6084,3.5999,3.5999,3.5999,3.5999,3.5999,3.5999,3.5999,3.5999,3.5999,3.5999,3.5999,3.5999,3.5999,3.5999,3.5999,3.5999,3.5999,3.5999,3.5999,3.5999,3.5999,3.5999,3.5999,3.5999,3.6393,3.6619,3.6909,3.716,3.7675,3.8266,3.8818,3.9145,3.9409,3.9685,3.9697,3.9697,3.9697,3.9697,3.9697,3.9697,3.9697,3.9697,3.9697,3.9697,3.9697,3.9697,3.9697,3.9697,3.9697,3.9697,3.9697,3.9697,3.9697,3.9697,3.9697,3.9697,3.9697,3.9697,3.9697,3.9697,3.9697,3.9697,3.9697,3.9722,3.9998,4.0261,4.0563,4.1153,4.1733,4.2249,4.2526,4.2788,4.3014,4.3014,4.3014,4.3014,4.3014,4.3014,4.3014,4.3014,4.3014,4.3014,4.3014,4.3014,4.3014,4.3014,4.3014,4.3014,4.3014,4.3014,4.3014,4.3014,4.3014,4.3014,4.3014,4.3014,4.2804,4.2209,4.211,4.1897,4.1273,4.1187,4.1187,4.1187,4.1187,4.0956,4.0301,4.0817,4.0383,3.8358,4.1059,4.1584,3.876,3.962,3.9233,3.7059,3.6355,3.5999,3.5999,3.5999,3.5999,3.5999,3.5999,3.5999,3.5999,3.5999,3.5999,3.5999,3.5999,3.5999,3.5999,3.5999,3.5999,3.5999,3.5999,3.5999,3.5999,3.5999,3.5999,3.5999,3.6393,3.6393,3.6544,3.6984,3.7135,3.7512,3.8467,3.8693,3.8931,3.9484,3.9559,3.9609,3.9697,3.9697,3.9697,3.9697,3.9697,3.9697,3.9697,3.9697,3.9697,3.9697,3.9697,3.9697,3.9697,3.9697,3.9697,3.9697,3.9697,3.9697,3.9697,3.9697,3.9697,3.9697,3.9697,3.9697,3.9697,3.9697,3.9697,3.9697,3.9697,3.9973,4.0362,4.0462,4.1078,4.1947,4.2123,4.2537,4.3014,4.3014,4.3014,4.3014,4.3014,4.3014,4.3014,4.3014,4.3014,4.3014,4.3014,4.3014,4.3014,4.3014,4.3014,4.3014,4.3014,4.3014,4.3014,4.3014,4.3014,4.3014,4.3014,4.3014,4.2818,4.2256,4.2139,4.1911,4.1344,4.1215,4.1187,4.1187,4.1187,4.0759,3.965,4.0557,4.0557,3.898,4.1312,4.1977,4.0133,4.0132,3.954,3.8142,3.6742,3.5999,3.5999,3.5999,3.5999,3.5999,3.5999,3.5999,3.5999,3.5999,3.5999,3.5999,3.5999,3.5999,3.5999,3.5999,3.5999,3.5999,3.5999,3.5999,3.5999,3.5999,3.5999,3.5999,3.6393,3.6393,3.6418,3.6494,3.6884,3.7248,3.7411,3.7814,3.8341,3.8944,3.9019,3.9183,3.9647,3.9697,3.9697,3.9697,3.9697,3.9697,3.9697,3.9697,3.9697,3.9697,3.9697,3.9697,3.9697,3.9697,3.9697,3.9697,3.9697,3.9697,3.9697,3.9697,3.9697,3.9697,3.9697,3.9697,3.9697,3.9697,3.9697,3.9697,3.9697,3.9747,3.9848,4.0312,4.0588,4.0852,4.1847,4.2537,4.3014,4.3014,4.3014,4.3014,4.3014,4.3014,4.3014,4.3014,4.3014,4.3014,4.3014,4.3014,4.3014,4.3014,4.3014,4.3014,4.3014,4.3014,4.3014,4.3014,4.3014,4.3014,4.3014,4.3014,4.2888,4.2524,4.2241,4.1958,4.1592,4.1359,4.1187,4.1187,4.1187,4.1115,4.0956,4.1086,4.0185,3.7745,4.0796,4.1197,3.7514,3.9153,3.954,3.8142,3.6742,3.5999,3.5999,3.5999,3.5999,3.5999,3.5999,3.5999,3.5999,3.5999,3.5999,3.5999,3.5999,3.5999,3.5999,3.5999,3.5999,3.5999,3.5999,3.5999,3.5999,3.5999,3.5999,3.5999,3.6393,3.6393,3.6393,3.6393,3.6594,3.6859,3.7148,3.7399,3.7751,3.8329,3.8693,3.8994,3.9245,3.9534,3.9697,3.9697,3.9697,3.9697,3.9697,3.9697,3.9697,3.9697,3.9697,3.9697,3.9697,3.9697,3.9697,3.9697,3.9697,3.9697,3.9697,3.9697,3.9697,3.9697,3.9697,3.9697,3.9697,3.9697,3.9697,3.9697,3.9697,3.9697,3.9735,3.9973,4.0236,4.0638,4.1783,4.2537,4.3014,4.3014,4.3014,4.3014,4.3014,4.3014,4.3014,4.3014,4.3014,4.3014,4.3014,4.3014,4.3014,4.3014,4.3014,4.3014,4.3014,4.3014,4.3014,4.3014,4.3014,4.3014,4.3014,4.3014,4.2902,4.2541,4.2411,4.2157,4.1678,4.1492,4.1373,4.1215,4.1187,4.0913,4.0156,4.0083,3.9313,3.7444,3.974,4.0585,3.9112,4.0246,4.0423,3.931,3.7909,3.6809,3.6016,3.5999,3.5999,3.5999,3.5999,3.5999,3.5999,3.5999,3.5999,3.5999,3.5999,3.5999,3.5999,3.5999,3.5999,3.5999,3.5999,3.5999,3.5999,3.5999,3.5999,3.5999]},{"header":{"parameterUnit":"m.s-1","parameterCategory":1,"la1":30.6,"la2":28.766,"lo1":-90.7593,"lo2":-88.6598,"dy":0.0162,"dx":0.0183,"nx":116,"ny":114,"refTime":"2023-05-20T12:00:00:Z","depth":0,"parameterNumber":3,"parameterNumberName":"V-component_of_WINDS"},"data":[0.0,0.0,0.0,0.0,0.0,0.0,0.0,0.0,0.0,0.0,0.0,0.0,0.0,0.0,0.0,0.0,0.0,0.0,0.0,0.0,0.0,0.0,0.0,0.0,0.0,0.0,0.0,0.0,0.0,0.0,0.0,0.0,0.0,0.0,0.0,0.0,0.0,0.0,0.0,0.0,0.0,0.0,0.0,0.0,0.0,0.0,0.0,0.0,0.0,0.0,0.0,0.0,0.0,0.0,0.0,0.0,0.0,0.0,0.0,0.0,0.0,0.0,0.0,0.0,0.0,0.0,0.0,0.0,0.0,0.0,0.0,0.0,0.0,0.0,0.0,0.0,0.0,0.0,0.0,0.0,0.0,0.0,0.0,0.0,0.0,0.0,0.0,0.0,0.0,0.0,0.0,0.0,0.0,0.0,0.0,0.0,0.0,0.0,0.0,0.0,0.0,0.0,0.0,0.0,0.0,0.0,0.0,0.0,0.0,0.0,0.0,0.0,0.0,0.0,0.0,0.0,0.0,0.0,0.0,0.0,0.0,0.0,0.0,0.0,0.0,0.0,0.0,0.0,0.0,0.0,0.0,0.0,0.0,0.0,0.0,0.0,0.0,0.0,0.0,0.0,0.0,0.0,0.0,0.0,0.0,0.0,0.0,0.0,0.0,0.0,0.0,0.0,0.0,0.0,0.0,0.0,0.0,0.0,0.0,0.0,0.0,0.0,0.0,0.0,0.0,0.0,0.0,0.0,0.0,0.0,0.0,0.0,0.0,0.0,0.0,0.0,0.0,0.0,0.0,0.0,0.0,0.0,0.0,0.0,0.0,0.0,0.0,0.0,0.0,0.0,0.0,0.0,0.0,0.0,0.0,0.0,0.0,0.0,0.0,0.0,0.0,0.0,0.0,0.0,0.0,0.0,0.0,0.0,0.0,0.0,0.0,0.0,0.0,0.0,0.0,0.0,0.0,0.0,0.0,0.0,0.0,0.0,0.0,0.0,0.0,0.0,0.0,0.0,0.0,0.0,0.0,0.0,0.0,0.0,0.0,0.0,0.0,0.0,0.0,0.0,0.0,0.0,0.0,0.0,0.0,0.0,0.0,0.0,0.0,0.0,0.0,0.0,0.0,0.0,0.0,0.0,0.0,0.0,0.0,0.0,0.0,0.0,0.0,0.0,0.0,0.0,0.0,0.0,0.0,0.0,0.0,0.0,0.0,0.0,0.0,0.0,0.0,0.0,0.0,0.0,0.0,0.0,0.0,0.0,0.0,0.0,0.0,0.0,0.0,0.0,0.0,0.0,0.0,0.0,0.0,0.0,0.0,0.0,0.0,0.0,0.0,0.0,0.0,0.0,0.0,0.0,0.0,0.0,0.0,0.0,0.0,0.0,0.0,0.0,0.0,0.0,0.0,0.0,0.0,0.0,0.0,0.0,0.0,0.0,0.0,0.0,0.0,0.0,0.0,0.0,0.0,0.0,0.0,0.0,0.0,0.0,0.0,0.0,0.0,0.0,0.0,0.0,0.0,0.0,0.0,0.0,0.0,0.0,0.0,0.0,0.0,0.0,0.0,0.0,0.0,0.0,0.0,0.0,0.0,0.0,0.0,0.0,0.0,0.0,0.0,0.0,0.0,0.0,0.0,0.0,0.0,0.0,0.0,0.0,0.0,0.0,0.0,0.0,0.0,0.0,0.0,0.0,0.0,0.0,0.0,0.0,0.0,0.0,0.0,0.0,0.0,0.0,0.0,0.0,0.0,0.0,0.0,0.0,0.0,0.0,0.0,0.0,0.0,0.0,0.0,0.0,0.0,0.0,0.0,0.0,0.0,0.0,0.0,0.0,0.0,0.0,0.0,0.0,0.0,0.0,0.0,0.0,0.0,0.0,0.0,0.0,0.0,0.0,0.0,0.0,0.0,0.0,0.0,0.0,0.0,0.0,0.0,0.0,0.0,0.0,0.0,0.0,0.0,0.0,0.0,0.0,0.0,0.0,0.0,0.0,0.0,0.0,0.0,0.0,0.0,0.0,0.0,0.0,0.0,0.0,0.0,0.0,0.0,0.0,0.0,0.0,0.0,0.0,0.0,0.0,0.0,0.0,0.0,0.0,0.0,0.0,0.0,0.0,0.0,0.0,0.0,0.0,0.0,0.0,0.0,0.0,0.0,0.0,0.0,0.0,0.0,0.0,0.0,0.0,0.0,0.0,0.0,0.0,0.0,0.0,0.0,0.0,0.0,0.0,0.0,0.0,0.0,0.0,0.0,0.0,0.0,0.0,0.0,0.0,0.0,0.0,0.0,0.0,0.0,0.0,0.0,0.0,0.0,0.0,0.0,0.0,0.0,0.0,0.0,0.0,0.0,0.0,0.0,0.0,0.0,0.0,0.0,0.0,0.0,0.0,0.0,0.0,0.0,0.0,0.0,0.0,0.0,0.0,0.0,0.0,0.0,0.0,0.0,0.0,0.0,0.0,0.0,0.0,0.0,0.0,0.0,0.0,0.0,0.0,0.0,0.0,0.0,0.0,0.0,0.0,0.0,0.0,0.0,0.0,0.0,0.0,0.0,0.0,0.0,0.0,0.0,0.0,0.0,0.0,0.0,0.0,0.0,0.0,0.0,0.0,0.0,0.0,0.0,0.0,0.0,0.0,0.0,0.0,0.0,0.0,0.0,0.0,0.0,0.0,0.0,0.0,0.0,0.0,0.0,0.0,0.0,0.0,0.0,0.0,0.0,0.0,0.0,0.0,0.0,0.0,0.0,0.0,0.0,0.0,0.0,0.0,0.0,0.0,0.0,0.0,0.0,0.0,0.0,0.0,0.0,0.0,0.0,0.0,0.0,0.0,0.0,0.0,0.0,0.0,0.0,0.0,0.0,0.0,0.0,0.0,0.0,0.0,0.0,0.0,0.0,0.0,0.0,0.0,0.0,0.0,0.0,0.0,0.0,0.0,0.0,0.0,0.0,0.0,0.0,0.0,0.0,0.0,0.0,0.0,0.0,0.0,0.0,0.0,0.0,0.0,0.0,0.0,0.0,0.0,0.0,0.0,0.0,0.0,0.0,0.0,0.0,0.0,0.0,0.0,0.0,0.0,0.0,0.0,0.0,0.0,0.0,0.0,0.0,0.0,0.0,0.0,0.0,0.0,0.0,0.0,0.0,0.0,0.0,0.0,0.0,0.0,0.0,0.0,0.0,0.0,0.0,0.0,0.0,0.0,0.0,0.0,0.0,0.0,0.0,0.0,0.0,0.0,0.0,0.0,0.0,0.0,0.0,0.0,0.0,0.0,0.0,0.0,0.0,0.0,0.0,0.0,0.0,0.0,0.0,0.0,0.0,0.0,0.0,0.0,0.0,0.0,0.0,0.0,0.0,0.0,0.0,0.0,0.0,0.0,0.0,0.0,0.0,0.0,0.0,0.0,0.0,0.0,0.0,0.0,0.0,0.0,0.0,0.0,0.0,0.0,0.0,0.0,0.0,0.0,0.0,0.0,0.0,0.0,0.0,0.0,0.0,0.0,0.0,0.0,0.0,0.0,0.0,0.0,0.0,0.0,0.0,0.0,0.0,0.0,0.0,0.0,0.0,0.0,0.0,0.0,0.0,0.0,0.0,0.0,0.0,0.0,0.0,0.0,0.0,0.0,0.0,0.0,0.0,0.0,0.0,0.0,0.0,0.0,0.0,0.0,0.0,0.0,0.0,0.0,0.0,0.0,0.0,0.0,0.0,0.0,0.0,0.0,0.0,0.0,0.0,0.0,0.0,0.0,0.0,0.0,0.0,0.0,0.0,0.0,0.0,0.0,0.0,0.0,0.0,0.0,0.0,0.0,0.0,0.0,0.0,0.0,0.0,0.0,0.0,0.0,0.0,0.0,0.0,0.0,0.0,0.0,0.0,0.0,0.0,0.0,0.0,0.0,0.0,0.0,0.0,0.0,0.0,0.0,0.0,0.0,0.0,0.0,0.0,0.0,0.0,0.0,0.0,0.0,0.0,0.0,0.0,0.0,0.0,0.0,0.0,0.0,0.0,0.0,0.0,0.0,0.0,0.0,0.0,0.0,0.0,0.0,0.0,0.0,0.0,0.0,0.0,0.0,0.0,0.0,0.0,0.0,0.0,0.0,0.0,0.0,0.0,0.0,0.0,0.0,0.0,0.0,0.0,0.0,0.0,0.0,0.0,0.0,0.0,0.0,0.0,0.0,0.0,0.0,0.0,0.0,0.0,0.0,0.0,0.0,0.0,0.0,0.0,0.0,0.0,0.0,0.0,0.0,0.0,0.0,0.0,0.0,0.0,0.0,0.0,0.0,0.0,0.0,0.0,0.0,0.0,0.0,0.0,0.0,0.0,0.0,0.0,0.0,0.0,0.0,0.0,0.0,0.0,0.0,0.0,0.0,0.0,0.0,0.0,0.0,0.0,0.0,0.0,0.0,0.0,0.0,0.0,0.0,0.0,0.0,0.0,0.0,0.0,0.0,0.0,0.0,0.0,0.0,0.0,0.0,0.0,0.0,0.0,0.0,0.0,0.0,0.0,0.0,0.0,0.0,0.0,0.0,0.0,0.0,0.0,0.0,0.0,0.0,0.0,0.0,0.0,0.0,0.0,0.0,0.0,0.0,0.0,0.0,0.0,0.0,0.0,0.0,0.0,0.0,0.0,0.0,0.0,0.0,0.0,0.0,0.0,0.0,0.0,0.0,0.0,0.0,0.0,0.0,0.0,0.0,0.0,0.0,0.0,0.0,0.0,0.0,0.0,0.0,0.0,0.0,0.0,0.0,0.0,0.0,0.0,0.0,0.0,0.0,0.0,0.0,0.0,0.0,0.0,0.0,0.0,0.0,0.0,0.0,0.0,0.0,0.0,0.0,0.0,0.0,0.0,0.0,0.0,0.0,0.0,0.0,0.0,0.0,0.0,0.0,0.0,0.0,0.0,0.0,0.0,0.0,0.0,0.0,0.0,0.0,0.0,0.0,0.0,0.0,0.0,0.0,0.0,0.0,0.0,0.0,0.0,0.0,0.0,0.0,0.0,0.0,0.0,0.0,0.0,0.0,0.0,0.0,0.0,0.0,0.0,0.0,0.0,0.0,0.0,0.0,0.0,0.0,0.0,0.0,0.0,0.0,0.0,0.0,0.0,0.0,0.0,0.0,0.0,0.0,0.0,0.0,0.0,0.0,0.0,0.0,0.0,0.0,0.0,0.0,0.0,0.0,0.0,0.0,0.0,0.0,0.0,0.0,0.0,0.0,0.0,0.0,0.0,0.0,0.0,0.0,0.0,0.0,0.0,0.0,0.0,0.0,0.0,0.0,0.0,0.0,0.0,0.0,0.0,0.0,0.0,0.0,0.0,0.0,0.0,0.0,0.0,0.0,0.0,0.0,0.0,0.0,0.0,0.0,0.0,0.0,0.0,0.0,0.0,0.0,0.0,0.0,0.0,0.0,0.0,0.0,0.0,0.0,0.0,0.0,0.0,0.0,0.0,0.0,0.0,0.0,0.0,0.0,0.0,0.0,0.0,0.0,0.0,0.0,0.0,0.0,0.0,0.0,0.0,0.0,0.0,0.0,0.0,0.0,0.0,0.0,0.0,0.0,0.0,0.0,0.0,0.0,0.0,0.0,0.0,0.0,0.0,0.0,0.0,0.0,0.0,0.0,0.0,0.0,0.0,0.0,0.0,0.0,0.0,0.0,0.0,0.0,0.0,0.0,0.0,0.0,0.0,0.0,0.0,0.0,0.0,0.0,0.0,0.0,0.0,0.0,0.0,0.0,0.0,0.0,0.0,0.0,0.0,0.0,0.0,0.0,0.0,0.0,0.0,0.0,0.0,0.0,0.0,0.0,0.0,0.0,0.0,0.0,0.0,0.0,0.0,0.0,0.0,0.0,0.0,0.0,0.0,0.0,0.0,0.0,0.0,0.0,0.0,0.0,0.0,0.0,0.0,0.0,0.0,0.0,0.0,0.0,0.0,0.0,0.0,0.0,0.0,0.0,0.0,0.0,0.0,0.0,0.0,0.0,0.0,0.0,0.0,0.0,0.0,0.0,0.0,0.0,0.0,0.0,0.0,0.0,0.0,0.0,0.0,0.0,0.0,0.0,0.0,0.0,0.0,0.0,0.0,0.0,3.4198,3.4101,0.0,0.0,0.0,0.0,0.0,0.0,0.0,0.0,0.0,0.0,0.0,0.0,0.0,0.0,0.0,0.0,0.0,0.0,0.0,0.0,0.0,0.0,0.0,0.0,0.0,0.0,0.0,0.0,0.0,0.0,0.0,0.0,0.0,0.0,0.0,0.0,0.0,0.0,3.1214,3.1714,3.2691,3.2716,3.2164,3.1152,0.0,0.0,0.0,0.0,0.0,0.0,0.0,0.0,0.0,0.0,0.0,0.0,0.0,0.0,0.0,0.0,0.0,0.0,0.0,0.0,0.0,0.0,0.0,0.0,0.0,0.0,0.0,0.0,0.0,0.0,0.0,0.0,0.0,0.0,0.0,0.0,0.0,0.0,0.0,0.0,0.0,0.0,0.0,0.0,0.0,0.0,0.0,0.0,0.0,0.0,0.0,0.0,0.0,0.0,0.0,0.0,0.0,0.0,0.0,0.0,0.0,0.0,0.0,0.0,0.0,0.0,0.0,0.0,0.0,0.0,3.4522,3.4205,0.0,0.0,0.0,0.0,0.0,0.0,0.0,0.0,0.0,0.0,0.0,0.0,0.0,0.0,0.0,0.0,0.0,0.0,0.0,0.0,0.0,0.0,0.0,2.7328,2.769,2.8058,2.8796,2.9455,0.0,0.0,0.0,0.0,0.0,0.0,0.0,3.1049,3.1409,3.2478,3.255,3.322,3.4485,3.5112,3.4628,3.3168,3.3164,0.0,0.0,0.0,0.0,0.0,0.0,0.0,0.0,0.0,0.0,0.0,0.0,0.0,0.0,0.0,0.0,0.0,0.0,0.0,0.0,0.0,0.0,0.0,0.0,0.0,0.0,0.0,0.0,0.0,0.0,0.0,0.0,0.0,0.0,0.0,0.0,0.0,0.0,0.0,0.0,0.0,0.0,0.0,0.0,0.0,0.0,0.0,0.0,0.0,0.0,0.0,0.0,0.0,0.0,0.0,0.0,0.0,0.0,0.0,0.0,0.0,0.0,0.0,3.7825,3.7796,3.7167,3.7289,3.713,3.669,3.536,3.4666,3.4489,3.4715,0.0,0.0,0.0,0.0,0.0,0.0,0.0,0.0,0.0,0.0,0.0,0.0,0.0,0.0,0.0,0.0,0.0,0.0,0.0,0.0,0.0,2.8239,2.869,2.9152,2.942,2.9871,3.0608,0.0,0.0,0.0,0.0,0.0,3.2525,3.2244,3.2832,3.4329,3.52,3.5574,3.5533,3.6592,3.6877,3.6508,3.5271,3.4155,3.3242,0.0,0.0,0.0,0.0,0.0,0.0,0.0,0.0,0.0,0.0,0.0,0.0,0.0,0.0,0.0,0.0,0.0,0.0,0.0,0.0,0.0,0.0,0.0,0.0,0.0,0.0,0.0,0.0,0.0,0.0,0.0,0.0,0.0,0.0,0.0,0.0,0.0,0.0,0.0,0.0,0.0,3.4083,3.47,0.0,0.0,0.0,0.0,0.0,0.0,0.0,0.0,0.0,0.0,0.0,0.0,0.0,3.8042,3.8202,3.7739,3.752,3.751,3.7808,3.7886,3.7815,3.839,3.8615,3.8554,3.8325,0.0,3.6016,3.6052,0.0,0.0,0.0,0.0,0.0,0.0,0.0,0.0,0.0,0.0,0.0,0.0,0.0,0.0,0.0,0.0,0.0,0.0,0.0,0.0,0.0,2.9297,2.9803,3.0216,3.0699,3.1064,3.1235,3.1566,0.0,0.0,0.0,3.2503,3.3329,3.3554,3.4278,3.5554,3.6797,3.7317,3.712,3.8071,3.8491,3.8407,3.7765,3.6782,3.5653,3.6149,0.0,0.0,0.0,0.0,0.0,0.0,0.0,0.0,0.0,0.0,0.0,0.0,0.0,0.0,0.0,0.0,0.0,0.0,0.0,0.0,0.0,0.0,0.0,0.0,0.0,0.0,0.0,0.0,0.0,0.0,0.0,0.0,0.0,0.0,0.0,0.0,0.0,0.0,0.0,3.4456,3.4991,3.5613,3.6051,3.6504,0.0,0.0,0.0,0.0,0.0,0.0,0.0,0.0,0.0,3.9085,3.8987,3.9257,3.9982,3.9343,3.9006,3.9006,3.9576,3.9615,3.9163,3.9441,3.9556,3.9536,3.9112,3.873,3.841,3.8191,3.8329,3.8702,0.0,0.0,0.0,0.0,3.8784,3.9022,0.0,0.0,0.0,0.0,0.0,0.0,0.0,0.0,0.0,0.0,0.0,0.0,2.9897,3.0308,3.082,3.1465,3.1865,3.204,3.188,3.2519,3.2937,3.3115,3.3238,3.3589,3.422,3.5074,3.5949,3.6848,3.8047,3.8605,3.8519,3.9128,3.9391,3.9391,3.9391,3.8716,3.7634,3.7867,3.7803,3.7532,0.0,0.0,0.0,0.0,0.0,0.0,0.0,0.0,0.0,0.0,0.0,0.0,0.0,0.0,0.0,0.0,0.0,0.0,0.0,0.0,0.0,0.0,0.0,0.0,0.0,0.0,0.0,0.0,0.0,0.0,0.0,0.0,0.0,0.0,0.0,0.0,0.0,3.5301,3.5862,3.647,3.6891,3.7269,0.0,0.0,0.0,0.0,0.0,0.0,3.8857,3.9323,3.9797,4.0186,4.0071,4.0432,4.1394,4.0761,4.0422,4.0432,4.1276,4.1316,4.0695,4.0842,4.092,4.089,4.0294,4.0374,4.0851,4.0007,3.9714,3.9872,4.0236,4.0324,4.0295,4.0402,4.0578,4.0858,0.0,0.0,0.0,0.0,0.0,0.0,0.0,0.0,0.0,0.0,0.0,3.0602,3.1394,3.1189,3.1573,3.3062,3.2508,3.2269,3.2608,3.3448,3.3762,3.3393,3.3877,3.4551,3.5407,3.6945,3.7998,3.8572,3.9113,3.9343,3.9337,3.9373,3.9391,3.9391,3.9391,3.8923,3.8178,3.8516,3.8094,3.7204,3.7048,0.0,0.0,0.0,0.0,0.0,0.0,0.0,0.0,0.0,0.0,0.0,0.0,0.0,0.0,0.0,0.0,0.0,0.0,0.0,0.0,0.0,0.0,0.0,0.0,0.0,0.0,0.0,0.0,0.0,0.0,0.0,0.0,0.0,0.0,0.0,0.0,0.0,0.0,3.6836,3.729,0.0,0.0,0.0,0.0,3.915,3.9731,4.0276,4.0635,4.0713,4.0896,4.1305,4.1307,4.1346,4.1403,4.1365,4.1337,4.1346,4.2022,4.2331,4.2293,4.2871,4.315,4.315,4.3111,4.3111,4.2971,4.091,4.0334,4.0753,4.0772,4.0636,4.0529,4.0916,4.1307,4.1665,0.0,0.0,0.0,0.0,0.0,0.0,0.0,0.0,2.843,2.9595,3.0639,3.1514,3.2115,3.206,3.2424,3.3587,3.3665,3.3755,3.4036,3.4922,3.5355,3.5202,3.4957,3.5553,3.7085,3.797,3.8724,3.9344,3.9513,3.9526,3.9391,3.9535,3.9526,3.9391,3.9391,3.9237,3.898,3.9107,3.9023,3.8761,3.8301,3.7923,0.0,0.0,0.0,0.0,0.0,0.0,0.0,0.0,0.0,0.0,0.0,0.0,0.0,0.0,0.0,0.0,0.0,0.0,0.0,0.0,0.0,0.0,0.0,0.0,0.0,0.0,0.0,0.0,0.0,0.0,0.0,0.0,0.0,0.0,0.0,0.0,0.0,3.8284,3.8505,0.0,3.9585,4.0242,4.0628,4.0628,4.0836,4.1041,4.1185,4.1591,4.1897,4.2041,4.283,4.3269,4.3269,4.3878,4.4098,4.3908,4.4338,4.4429,4.4267,4.4496,4.4576,4.4576,4.4576,4.4576,4.4526,4.3744,4.3388,4.3319,4.3319,4.3608,4.4058,4.4198,4.4426,4.4671,0.0,0.0,0.0,0.0,0.0,0.0,0.0,0.0,2.8477,3.0143,3.1169,3.2045,3.2806,3.3103,3.3687,3.4842,3.5091,3.5221,3.5259,3.6019,3.6332,3.5967,3.596,3.6746,3.8365,3.8702,3.916,3.9794,3.9732,3.9634,3.9499,3.9643,3.9634,3.9499,3.9562,3.9553,3.9499,3.9499,3.9544,3.9547,3.8947,3.8577,3.829,0.0,0.0,0.0,0.0,0.0,0.0,0.0,0.0,0.0,0.0,0.0,0.0,0.0,0.0,0.0,0.0,0.0,0.0,0.0,0.0,0.0,0.0,0.0,0.0,0.0,0.0,0.0,0.0,0.0,0.0,0.0,0.0,0.0,0.0,3.851,3.9072,3.9844,3.9893,4.0165,4.0925,4.146,4.1742,4.1742,4.1932,4.2132,4.2381,4.2888,4.3267,4.3508,4.4328,4.4758,4.4758,4.53,4.547,4.5315,4.547,4.5459,4.5315,4.5315,4.5356,4.5428,4.5346,4.5397,4.5531,4.5459,4.5493,4.5536,4.5173,4.5435,4.6022,4.6062,4.6224,4.6404,0.0,0.0,0.0,0.0,0.0,0.0,0.0,2.7499,2.8115,3.0235,3.1217,3.2258,3.3596,3.4342,3.5371,3.6913,3.6807,3.6531,3.6268,3.6744,3.6611,3.5614,3.6846,3.808,3.9183,3.9205,3.9486,4.0011,3.9794,3.9714,3.9714,3.9714,3.9714,3.9714,3.9883,3.9865,3.9705,3.9714,3.9598,3.9367,3.8924,3.8702,3.8612,0.0,0.0,0.0,0.0,0.0,0.0,0.0,0.0,0.0,0.0,0.0,0.0,0.0,0.0,0.0,0.0,0.0,0.0,0.0,0.0,0.0,0.0,0.0,0.0,0.0,0.0,0.0,0.0,0.0,0.0,0.0,0.0,0.0,4.004,4.0597,4.1213,4.1414,4.1443,4.1443,4.1493,4.2081,4.248,4.25,4.304,4.3678,4.4317,4.4599,4.5032,4.5675,4.5725,4.5736,4.5755,4.5529,4.5415,4.5434,4.5434,4.5434,4.5434,4.5434,4.5559,4.5795,4.5538,4.5693,4.6113,4.5898,4.6436,4.7292,4.6182,4.5879,4.6123,4.6325,4.6526,4.6726,0.0,0.0,0.0,0.0,0.0,0.0,0.0,2.8149,2.9337,3.0379,3.1961,3.3459,3.4669,3.5335,3.6301,3.7751,3.7773,3.7678,3.7659,3.7904,3.7669,3.6779,3.8157,3.8973,3.906,3.9543,3.9842,4.0011,3.9958,3.991,3.991,3.991,3.983,3.9705,3.9759,3.975,3.9714,3.9848,3.9896,3.9803,3.953,3.9211,3.8879,0.0,0.0,0.0,0.0,0.0,0.0,0.0,0.0,0.0,0.0,0.0,0.0,0.0,0.0,0.0,0.0,0.0,0.0,0.0,0.0,0.0,0.0,0.0,0.0,0.0,0.0,0.0,0.0,0.0,0.0,0.0,4.2108,4.2479,4.1325,4.1366,4.1676,4.2091,4.2247,4.2666,4.3429,4.3848,4.4188,4.4497,4.4981,4.5273,4.5302,4.5393,4.5514,4.5695,4.6107,4.662,4.7134,4.7691,4.8121,4.841,4.841,4.8353,4.8199,4.8199,4.8243,4.8298,4.8232,4.8364,4.8615,4.8561,4.8814,4.9096,4.7483,4.7292,4.7968,4.8542,4.9116,4.9558,0.0,0.0,0.0,0.0,0.0,0.0,0.0,2.8327,2.9895,3.1464,3.3073,3.4566,3.5972,3.697,3.779,3.8468,3.8499,3.8383,3.8211,3.8133,3.812,3.8167,3.9026,3.9537,3.9624,3.9995,4.02,4.02,4.0139,4.0143,4.0143,4.0143,4.0051,3.9954,4.0016,4.0007,3.9963,4.0069,4.0143,4.0134,3.9998,3.975,3.9412,3.9255,3.8966,3.858,3.836,3.8302,3.8259,3.7916,0.0,0.0,0.0,0.0,0.0,0.0,0.0,0.0,0.0,0.0,0.0,0.0,0.0,0.0,0.0,0.0,0.0,0.0,0.0,0.0,0.0,0.0,0.0,0.0,4.3379,4.3934,4.3308,4.2976,4.2913,4.3277,4.3514,4.3975,4.4809,4.5092,4.5314,4.545,4.5788,4.6173,4.6511,4.6614,4.6969,4.7609,4.7898,4.8261,4.8773,4.9209,4.9549,4.978,4.9658,4.9602,4.9591,4.9479,4.9535,4.9724,4.9635,4.9769,5.0056,4.9946,5.0056,5.0175,0.0,0.0,0.0,0.0,5.0369,5.0708,0.0,0.0,0.0,0.0,0.0,0.0,0.0,2.8244,3.0019,3.293,3.4133,3.5413,3.7302,3.8686,3.9402,3.916,3.9091,3.8803,3.8266,3.7918,3.8253,3.9445,3.956,3.989,4.0457,4.0487,4.0487,4.0487,4.0419,4.0419,4.0436,4.0511,4.0532,4.0541,4.058,4.0532,4.0419,4.0336,4.0314,4.0314,4.0314,4.0191,4.0012,3.9692,3.948,3.9287,3.9028,3.8828,3.8665,3.8441,0.0,0.0,0.0,0.0,0.0,0.0,0.0,0.0,0.0,0.0,0.0,0.0,0.0,0.0,0.0,0.0,0.0,0.0,0.0,0.0,0.0,0.0,0.0,0.0,4.4611,4.5446,4.5446,4.4926,4.4618,4.475,4.4991,4.5324,4.5787,4.6112,4.6214,4.6089,4.6355,4.6943,4.7944,4.8145,0.0,0.0,0.0,5.0172,5.0411,5.0235,5.0167,5.0258,4.9992,4.9992,5.0214,4.9969,5.0103,5.0489,5.0302,5.0456,5.0858,5.0621,5.0675,5.0902,5.0511,5.0393,5.0476,5.0714,5.0851,5.0913,0.0,0.0,0.0,0.0,0.0,0.0,0.0,2.8538,3.0391,3.2971,3.3852,3.5253,3.7909,3.8969,3.9637,4.0039,3.9563,3.8969,3.8322,3.8808,3.923,3.9476,4.003,4.033,4.0331,4.0331,4.0331,4.0331,4.0856,4.1185,4.1348,4.1727,4.1909,4.1878,4.1385,4.114,4.1092,4.0633,4.047,4.047,4.047,4.0366,4.0235,4.0183,4.013,4.0056,3.983,3.9851,3.9889,3.9392,3.9123,3.8916,3.8742,3.8383,0.0,0.0,0.0,0.0,0.0,0.0,0.0,0.0,0.0,0.0,0.0,0.0,0.0,0.0,0.0,0.0,0.0,0.0,0.0,4.4865,4.5738,4.6338,4.6338,4.6246,4.6057,4.5748,4.592,4.6244,4.6709,4.7422,4.8013,4.8348,4.9249,4.9776,4.9794,4.9846,4.9981,5.0289,5.0245,5.052,5.1083,5.1081,5.1333,5.1852,5.1634,0.0,5.1619,5.1562,5.1596,5.1676,5.1641,5.1747,5.2007,5.1931,5.2074,5.2194,5.1085,5.094,5.1432,5.1487,5.1867,5.2318,0.0,0.0,0.0,0.0,0.0,0.0,0.0,2.8766,3.0555,3.2972,3.387,3.5118,3.7318,3.8351,3.8962,3.9142,3.8989,3.8719,3.8346,3.9054,3.9661,3.999,4.0329,4.0479,4.0401,4.0401,4.0594,4.094,4.1308,4.1681,4.21,4.2348,4.2465,4.2435,4.2097,4.1944,4.1922,4.1326,4.1045,4.1014,4.0636,4.047,4.0401,4.0401,4.0401,4.0383,4.0288,4.0314,4.0339,4.0002,3.9871,3.9818,3.9613,3.93,3.8922,0.0,0.0,0.0,0.0,0.0,0.0,0.0,0.0,0.0,0.0,0.0,0.0,0.0,0.0,4.3784,4.4335,0.0,4.5691,4.5921,4.6605,4.7096,4.7096,4.7722,4.7794,4.6763,4.7119,4.765,4.8115,4.8966,4.9549,4.9639,5.0298,5.0723,5.08,5.0808,5.1016,5.1506,5.1364,5.1548,5.1996,5.1996,5.2181,5.2507,5.2269,5.2223,5.2367,5.2212,5.2223,5.2367,5.2367,5.2405,5.2507,5.2507,5.2586,5.2625,5.1948,5.1898,5.2194,5.2194,5.241,5.2687,0.0,0.0,0.0,0.0,0.0,0.0,0.0,2.8857,3.0542,3.299,3.392,3.4967,3.6581,3.7657,3.813,3.7833,3.833,3.8554,3.8316,3.9177,3.9929,4.0483,4.0513,4.0513,4.0513,4.0513,4.0861,4.1586,4.174,4.214,4.2786,4.294,4.3002,4.2962,4.2848,4.2786,4.2756,4.2078,4.1709,4.1555,4.0953,4.0636,4.0513,4.0513,4.0513,4.0513,4.0513,4.0513,4.0496,4.0375,4.0409,4.0518,4.0528,4.0273,3.9884,3.9764,3.9717,0.0,0.0,0.0,0.0,0.0,0.0,0.0,0.0,4.2272,4.2549,4.3913,4.4622,4.5145,4.569,4.6336,4.6788,4.6788,4.7373,4.7824,4.7989,4.8984,4.926,4.81,4.8582,4.9177,4.9529,5.0374,5.0806,5.059,5.0907,5.1236,5.1559,5.1578,5.1913,5.2687,5.2507,5.2495,5.2687,5.2687,5.2687,5.2687,5.2495,5.2507,5.2676,5.2495,5.2507,5.2687,5.2687,5.2687,5.2687,5.2687,5.2687,5.2687,5.2687,5.2687,5.2687,5.2687,5.2687,5.2687,0.0,0.0,0.0,0.0,0.0,0.0,0.0,0.0,3.016,3.2944,3.3639,3.4685,3.675,3.7624,3.7784,3.716,3.8399,3.8936,3.8338,3.9607,4.0421,4.0513,4.0513,4.0513,4.0513,4.0513,4.0861,4.1586,4.2193,4.2826,4.3491,4.4098,4.4375,4.4344,4.3738,4.3491,4.343,4.2756,4.2131,4.1586,4.1524,4.1076,4.0513,4.0513,4.0513,4.0513,4.0513,4.0513,4.0513,4.0487,4.0496,4.0606,4.1252,4.1414,4.1282,4.0799,4.0537,4.0314,4.0009,4.0775,4.1793,4.2394,4.2525,4.2971,0.0,4.4683,4.4652,4.5998,4.6326,4.6398,4.648,4.7034,4.7496,4.7496,4.804,4.8717,4.9384,4.96,4.9835,5.0276,5.041,5.0471,5.0542,5.1179,5.1579,5.1557,5.2122,5.2491,5.253,5.255,5.2592,5.2687,5.2664,5.2664,5.2687,5.2687,5.2687,5.2687,5.2664,5.2664,5.2687,5.2664,5.2664,5.2687,5.2687,5.2687,5.2687,5.2687,5.2687,5.2687,5.2687,5.2687,5.2687,5.2687,5.2687,5.2687,0.0,0.0,0.0,0.0,0.0,0.0,0.0,0.0,0.0,3.15,3.2168,3.3097,3.4787,3.5971,3.6623,3.6543,3.786,3.8616,3.8432,3.971,4.0513,4.0513,4.0513,4.0513,4.0513,4.0513,4.0861,4.1586,4.1894,4.2355,4.3042,4.3698,4.4015,4.4015,4.4129,4.3953,4.3553,4.2879,4.2193,4.1555,4.1146,4.0768,4.0513,4.0513,4.0513,4.0531,4.0621,4.0933,0.0,4.0818,4.122,4.1851,4.1652,4.1943,4.2297,4.2098,4.2328,4.2705,4.2852,4.2953,4.3164,4.3704,4.3806,4.4089,4.532,4.5382,4.5566,4.6911,4.7188,4.7311,4.7671,4.7978,4.8194,4.8194,4.8789,4.9353,4.9661,5.0369,5.0985,5.1251,5.1621,5.1713,5.1313,5.1898,5.2287,5.2287,5.2533,5.2687,5.2687,5.2687,5.2687,5.2687,5.2687,5.2687,5.2687,5.2687,5.2687,5.2687,5.2687,5.2687,5.2687,5.2687,5.2687,5.2687,5.2687,5.2687,5.2687,5.2687,5.2687,5.2687,5.2687,5.2687,5.2687,5.2687,5.2687,5.2687,0.0,0.0,0.0,0.0,0.0,0.0,0.0,0.0,0.0,0.0,3.1043,3.1972,3.3471,3.4835,3.579,3.6132,3.7247,3.8102,3.8483,3.9518,4.0246,4.0474,4.047,4.047,4.0513,4.0513,4.0861,4.1586,4.1586,4.1955,4.2623,4.3103,4.3328,4.3368,4.3821,4.379,4.3297,4.2817,4.2193,4.1555,4.1014,4.0667,4.0513,4.0513,4.064,4.0895,4.1011,4.1394,4.1775,4.1526,4.2142,4.2891,4.2469,4.274,4.3269,4.3283,4.3684,4.4118,4.4349,4.4337,4.4344,4.4612,4.4906,4.533,4.5998,4.6151,4.649,4.765,4.7886,4.8009,4.8501,4.8594,4.8686,4.8871,4.9343,4.9815,5.0215,5.1097,5.1775,5.1948,5.241,5.2502,5.201,5.241,5.2687,5.2687,5.2687,5.2687,5.2687,5.2687,5.2687,5.2687,5.2687,5.2687,5.2687,5.2687,5.2687,5.2687,5.2687,5.2687,5.2687,5.2687,5.2687,5.2687,5.2687,5.2687,5.2687,5.2687,5.2687,5.2718,5.2902,5.2995,5.3025,5.3395,5.3179,5.2687,0.0,0.0,0.0,0.0,0.0,0.0,0.0,0.0,0.0,0.0,0.0,0.0,0.0,3.4915,3.5643,3.5973,3.6643,3.7459,3.8452,3.8948,3.9635,4.0474,4.0375,4.0366,4.0513,4.0513,4.0861,4.1586,4.1586,4.1955,4.2593,4.2623,4.2623,4.2623,4.2654,4.2654,4.2623,4.2623,4.2193,4.1586,4.1586,4.1146,4.0513,4.0513,4.1027,4.1749,4.1757,4.1788,4.1947,4.2842,4.3163,4.3319,4.3916,4.4134,4.4202,4.4311,4.4058,4.3616,4.3256,4.4147,4.5129,4.4924,4.5723,4.6696,4.7404,4.7558,4.7732,4.844,4.8553,4.8594,4.8594,4.8594,4.884,4.9538,4.9692,5.0154,5.1467,5.1682,5.1959,5.2595,5.2687,5.2687,5.2687,5.2687,5.2687,5.2687,5.2687,5.2687,5.2687,5.2687,5.2687,5.2687,5.2687,5.2687,5.2687,5.2687,5.2687,5.2687,5.2687,5.2687,5.2687,5.2687,5.2687,5.2687,5.2687,5.2687,5.2687,5.2687,5.2687,5.2748,5.3425,5.366,5.3826,5.513,5.436,5.2687,0.0,0.0,0.0,0.0,0.0,0.0,0.0,0.0,0.0,0.0,0.0,0.0,0.0,0.0,0.0,0.0,3.6605,3.7237,3.7806,3.8703,3.9382,3.9837,4.0121,4.0357,4.0513,4.0513,4.0606,4.0861,4.0861,4.0984,4.1221,4.17,4.1955,4.1955,4.2408,4.2346,4.1955,4.1955,4.1516,4.0861,4.0861,4.0729,4.0553,4.1145,4.155,4.2018,0.0,4.397,4.3573,4.3384,4.3966,4.4659,4.4313,4.4609,4.509,4.5281,4.5448,4.5505,4.5216,4.5724,4.64,4.6619,4.6992,4.7434,4.8101,4.8255,4.8317,4.8563,4.9098,4.9522,4.9522,4.9883,5.0254,5.0512,5.0805,5.119,5.1652,5.2071,5.2441,5.2687,5.2687,5.2687,5.2687,5.2687,5.2687,5.2687,5.2687,5.2687,5.2687,5.2687,5.2687,5.2687,5.2687,5.2687,5.2687,5.3148,5.3353,5.3353,5.3814,5.4029,5.4029,5.4029,5.4029,5.4029,5.4029,5.4029,5.4029,5.4029,5.4029,5.406,5.4276,5.4368,5.4429,5.486,5.4614,5.4153,0.0,0.0,0.0,0.0,0.0,0.0,0.0,0.0,0.0,0.0,0.0,0.0,0.0,0.0,0.0,0.0,0.0,3.687,3.7349,3.8087,3.8686,3.9129,3.9407,3.9622,3.9775,3.9784,3.9932,4.0255,4.0179,4.0302,4.0617,4.1019,4.1208,4.1239,4.1669,4.1599,4.1208,4.1208,4.112,4.0956,4.0956,4.1163,4.1528,4.2076,4.2483,0.0,4.4921,4.5344,4.4917,4.4697,4.5065,4.551,4.4952,4.5311,4.5924,4.5759,4.6252,4.6762,4.6236,4.6645,4.7325,4.7536,4.7773,4.8071,4.8501,4.8594,4.8594,4.8594,4.9346,4.9988,4.9988,5.0535,5.1115,5.1438,5.1689,5.1896,5.2154,5.2586,5.2819,5.2729,5.2687,5.2687,5.2687,5.2687,5.2687,5.2687,5.2687,5.2687,5.2687,5.2933,5.3045,5.3045,5.3291,5.3414,5.3414,5.3845,5.406,5.406,5.4479,5.4695,5.4695,5.4695,5.4695,5.4695,5.4695,5.4695,5.4695,5.4695,5.4695,5.4725,5.4952,5.5057,5.5118,5.561,5.5795,5.5826,0.0,0.0,0.0,0.0,0.0,0.0,0.0,0.0,0.0,0.0,0.0,0.0,0.0,0.0,0.0,0.0,0.0,0.0,3.7097,3.7158,3.7575,3.8399,3.8296,3.8288,3.85,3.85,3.8906,3.9746,3.9585,3.9933,4.0761,4.0603,4.0539,4.0539,4.0539,4.0539,4.0539,4.057,4.1053,4.1815,4.1854,4.2403,4.3203,4.3252,4.3805,4.4634,4.5575,4.5882,4.594,4.6591,4.636,4.5796,4.5778,4.6197,4.6548,4.5778,4.6457,4.7249,4.626,4.694,4.7893,4.769,4.8132,4.8594,4.8594,4.8594,4.8625,4.8666,4.9429,5.0102,5.0112,5.068,5.1416,5.2316,5.2236,5.227,5.2993,5.3086,5.2997,5.2721,5.2687,5.2718,5.2748,5.2748,5.2779,5.281,5.2779,5.2779,5.281,5.3425,5.3753,5.3753,5.4368,5.4695,5.4695,5.4725,5.4768,5.4829,5.4829,5.4829,5.4829,5.4829,5.4829,5.4829,5.4829,5.4829,5.4829,5.4829,5.4829,5.486,5.5499,5.5757,5.5911,5.7247,5.774,5.7463,0.0,0.0,0.0,0.0,0.0,0.0,0.0,0.0,0.0,0.0,0.0,0.0,0.0,0.0,0.0,0.0,0.0,0.0,3.6416,3.6823,3.7254,3.7714,3.8028,3.8288,3.85,3.85,3.8674,3.904,3.9502,3.9879,4.0215,4.0702,4.0965,4.0965,4.0965,4.0965,4.0996,4.1479,4.1816,4.2095,4.2733,4.3086,4.3301,4.4086,4.4436,4.4778,4.6837,4.7141,4.66,4.6906,4.6379,4.5536,4.5389,4.5468,4.5646,4.5953,4.6507,4.7109,4.7342,4.7894,4.8409,4.8358,4.8471,4.8594,4.8594,4.8594,4.88,4.9511,5.0382,5.1246,5.1904,5.2422,5.2866,5.3097,5.2776,5.2592,5.2788,5.2788,5.2796,5.2729,5.2687,5.2902,5.3383,5.3445,5.366,5.4153,5.3722,5.366,5.4153,5.4368,5.446,5.446,5.4602,5.4695,5.4695,5.521,5.5727,5.625,5.625,5.625,5.625,5.625,5.625,5.625,5.625,5.625,5.625,5.625,5.625,5.6293,5.6447,5.6508,5.657,5.6921,5.7044,5.6982,0.0,0.0,0.0,0.0,0.0,0.0,0.0,0.0,0.0,0.0,0.0,0.0,0.0,0.0,0.0,0.0,0.0,0.0,0.0,3.6193,3.6558,3.6839,3.7159,3.7407,3.7615,3.7543,3.7785,3.8343,3.9041,3.9589,4.0048,4.0757,4.11,4.11,4.11,4.11,4.1131,4.1812,4.2332,0.0,0.0,4.4055,4.4409,4.5025,4.5214,4.5421,4.7198,4.7457,4.6905,4.6766,4.612,4.5334,4.5254,4.5413,4.5715,4.5973,4.6707,4.7426,4.7698,4.8194,4.8594,4.8594,4.8594,4.8717,4.9129,4.9222,4.947,5.0423,5.1329,5.2103,5.2606,5.3072,5.3432,5.3562,5.3177,5.2886,5.2886,5.2886,5.2841,5.2698,5.2964,5.3291,5.366,5.3968,5.4429,5.5087,5.4522,5.4306,5.4676,5.4983,5.5149,5.5149,5.5457,5.5622,5.5622,5.6004,5.6385,5.6798,5.6798,5.6798,5.6798,5.6798,5.6798,5.6798,5.6798,5.6798,5.6798,5.6798,5.6798,5.6798,5.6798,5.7031,5.7424,5.7424,5.7676,5.8018,0.0,0.0,0.0,0.0,0.0,0.0,0.0,0.0,0.0,0.0,0.0,0.0,0.0,0.0,0.0,0.0,0.0,0.0,0.0,0.0,3.568,3.5918,3.6046,3.6242,3.6422,3.6273,3.6643,3.7599,3.8296,3.9075,3.9971,4.0666,4.1066,4.1185,4.1185,4.1185,4.1207,4.1881,4.2672,4.3502,4.4252,4.5065,4.5814,0.0,4.5959,4.6216,4.7153,4.7413,4.7202,4.6545,4.5809,4.5148,4.512,4.5587,4.6088,4.6009,4.6921,4.7934,4.7762,4.8163,4.8594,4.8594,4.8594,4.8841,4.9781,4.9988,5.0309,5.136,5.2176,5.2732,5.2858,5.3209,5.3529,5.3724,5.3385,5.3097,5.3064,5.3053,5.2975,5.274,5.3291,5.3722,5.3814,5.4429,5.5118,5.5788,5.5303,5.4983,5.4983,5.553,5.585,5.585,5.6477,5.6798,5.6798,5.6798,5.6798,5.6798,5.6798,5.6798,5.6798,5.6798,5.6798,5.6798,5.6798,5.6798,5.681,5.6942,5.7002,5.7014,5.7115,5.7664,5.8407,5.8407,5.8908,5.9587,0.0,0.0,0.0,0.0,0.0,0.0,0.0,0.0,0.0,0.0,2.7776,0.0,0.0,0.0,0.0,0.0,0.0,0.0,0.0,0.0,0.0,3.548,3.5696,3.5871,3.6076,3.6053,3.6193,3.6473,3.7322,3.8225,3.9214,4.0056,4.0822,4.1506,4.1506,4.1506,4.1569,4.2294,4.2997,4.3717,4.4587,4.5267,4.5832,4.5995,0.0,0.0,4.752,4.8119,4.8146,4.7364,4.6138,4.4911,4.4742,4.5148,4.5818,4.6334,4.7023,4.7783,4.8296,4.8501,4.8594,4.8594,4.8594,4.8841,4.9781,4.9988,5.0475,5.2144,5.2596,5.2943,5.3722,5.3792,5.3649,5.3507,5.3255,5.3031,5.2788,5.2754,5.2743,5.2729,5.3291,5.3906,5.4479,5.5118,5.5819,5.6539,5.6508,5.6447,5.6447,5.6539,5.6613,5.6613,5.6736,5.6798,5.6798,5.6798,5.6798,5.6798,5.6798,5.6798,5.6798,5.6798,5.6798,5.6798,5.6798,5.6798,5.687,5.7629,5.7956,5.8038,5.8818,5.9201,5.9345,5.9345,5.9444,5.9587,0.0,0.0,0.0,0.0,0.0,0.0,0.0,0.0,0.0,2.6481,2.7208,2.789,0.0,0.0,0.0,0.0,0.0,0.0,0.0,0.0,0.0,0.0,3.5032,3.5294,3.5688,3.54,3.5502,3.5943,0.0,3.7571,3.8508,3.9428,4.0366,4.1181,4.1181,4.1281,4.1479,4.2235,4.279,4.3263,4.4394,4.5009,4.5286,0.0,0.0,0.0,4.7207,4.7597,4.7596,4.7485,4.6548,4.532,4.478,4.5053,4.572,4.6398,4.7065,4.7732,4.8409,4.8594,4.8594,4.8594,4.8594,4.8964,5.0413,5.0714,5.1246,5.3069,5.3438,5.3564,5.4029,5.3952,5.3757,5.3616,5.331,5.3064,5.2942,5.2807,5.2841,5.3179,5.3814,5.4491,5.5149,5.585,5.6416,5.6767,5.6798,5.6798,5.6798,5.6798,5.6798,5.6798,5.6798,5.6798,5.6798,5.6798,5.6798,5.6798,5.6798,5.6798,5.6798,5.6798,5.6798,5.6798,5.6798,5.6798,5.687,5.7805,5.82,5.8303,5.9212,5.9892,6.0344,6.0344,6.0652,6.1049,0.0,0.0,0.0,0.0,0.0,0.0,0.0,2.5627,2.6164,2.637,2.6927,2.7482,2.7923,2.8355,2.8928,0.0,0.0,0.0,0.0,0.0,0.0,0.0,0.0,0.0,3.5164,0.0,0.0,3.5421,3.5979,0.0,0.0,0.0,0.0,0.0,4.0404,4.062,4.1052,4.1656,4.2163,0.0,0.0,4.4228,0.0,0.0,0.0,0.0,0.0,4.7024,4.7013,4.7457,4.6929,4.5997,4.5356,4.5488,4.6004,4.6713,4.7382,4.8009,4.8481,4.8594,4.8594,4.8594,4.8594,4.9088,5.0985,5.1391,5.1904,5.3733,5.4103,5.4103,5.4103,5.3952,5.3854,5.38,5.3495,5.3219,5.312,5.293,5.302,5.3641,5.4306,5.4952,5.5634,5.6354,5.6798,5.6798,5.6798,5.6798,5.6798,5.6798,5.6798,5.6798,5.6798,5.6798,5.6798,5.6798,5.6798,5.6798,5.6798,5.6798,5.6798,5.6798,5.6798,5.6798,5.6798,5.6918,5.7163,5.8119,5.8614,5.8897,5.9816,6.0662,6.1309,6.1309,6.178,6.2391,0.0,0.0,0.0,0.0,0.0,0.0,0.0,2.5627,2.6164,2.637,2.6927,2.7382,2.7531,2.7764,2.8267,0.0,0.0,0.0,0.0,0.0,0.0,0.0,0.0,0.0,0.0,0.0,0.0,3.4517,3.4685,0.0,0.0,0.0,0.0,0.0,0.0,3.9495,4.006,4.0288,0.0,0.0,0.0,0.0,0.0,0.0,0.0,0.0,0.0,4.7198,4.7371,4.7552,4.7205,4.6748,4.6975,4.6932,4.6921,4.7674,4.8356,4.8821,4.8646,4.8594,4.8594,4.8594,4.8594,4.9088,5.0985,5.1391,5.1904,5.3733,5.4103,5.4103,5.4103,5.4081,5.4006,5.3833,5.3757,5.3593,5.3164,5.3086,5.3222,5.3664,5.4306,5.4952,5.5634,5.6354,5.6798,5.6798,5.6798,5.6798,5.6798,5.6798,5.6798,5.6798,5.6798,5.6798,5.6798,5.6798,5.6798,5.6798,5.6798,5.6798,5.6798,5.6798,5.6798,5.6798,5.6798,5.7282,5.8142,5.9099,5.9957,6.0841,6.179,6.2203,6.2272,6.2272,6.2332,6.2391,0.0,0.0,0.0,0.0,0.0,0.0,0.0,2.608,2.6527,2.6728,2.7093,2.7365,2.7481,2.7565,2.7828,0.0,0.0,0.0,0.0,0.0,0.0,0.0,0.0,0.0,0.0,0.0,3.3888,3.4213,3.415,0.0,0.0,0.0,0.0,0.0,0.0,3.8919,3.9902,3.9973,0.0,0.0,0.0,0.0,0.0,0.0,0.0,0.0,0.0,0.0,4.7092,4.7618,4.7546,4.7476,4.8529,4.8445,4.7916,4.797,4.8479,4.8944,4.8676,4.8594,4.8594,4.8594,4.8728,4.9285,5.1006,5.1476,5.2073,5.3754,5.4103,5.4103,5.4103,5.4103,5.4081,5.3985,5.3887,5.3735,5.3549,5.3617,5.392,5.4487,5.4996,5.5592,5.6293,5.6644,5.6798,5.6798,5.6798,5.6798,5.6798,5.6798,5.6798,5.6798,5.6798,5.6798,5.6798,5.6798,5.6798,5.6798,5.6798,5.6798,5.6798,5.6798,5.6798,5.6834,5.7401,5.7852,5.8326,5.9805,6.0662,6.108,6.202,6.2391,6.2391,6.2391,6.2391,6.2391,0.0,0.0,0.0,0.0,0.0,0.0,2.5902,2.6327,2.6739,2.696,2.7121,2.729,2.7473,2.7498,2.7556,2.7706,0.0,0.0,0.0,0.0,0.0,0.0,0.0,0.0,0.0,0.0,3.3403,3.3785,3.3698,3.4004,0.0,0.0,3.5816,3.7333,0.0,0.0,0.0,0.0,0.0,0.0,0.0,0.0,0.0,0.0,0.0,0.0,0.0,0.0,0.0,0.0,0.0,4.7633,4.9114,4.917,4.8657,4.8532,4.8786,4.9016,4.879,4.8676,4.8594,4.8594,4.879,4.9367,5.0746,5.1382,5.2083,5.3523,5.3945,5.4103,5.4103,5.4103,5.4103,5.4103,5.3974,5.3876,5.38,5.4099,5.4519,5.5154,5.5655,5.6175,5.6814,5.6834,5.6798,5.6798,5.6798,5.6798,5.6798,5.6798,5.6798,5.6798,5.6798,5.6798,5.6798,5.6798,5.6798,5.6798,5.7067,5.7211,5.7223,5.7488,5.7629,5.7664,5.8318,5.8773,5.9144,6.0461,6.1152,6.1483,6.212,6.2391,6.2391,6.2391,6.2391,6.2391,0.0,0.0,0.0,0.0,0.0,0.0,0.0,2.6249,2.6628,2.6952,2.6994,2.713,2.7448,2.7498,2.7498,2.7498,0.0,0.0,0.0,0.0,0.0,0.0,0.0,0.0,0.0,0.0,3.3014,3.3014,3.3201,3.3413,3.3605,3.3833,3.4682,3.6038,0.0,0.0,0.0,0.0,0.0,0.0,0.0,0.0,0.0,0.0,0.0,0.0,0.0,0.0,0.0,0.0,0.0,0.0,0.0,4.8898,4.8986,4.9453,4.9441,4.926,4.9057,4.879,4.8594,4.8594,4.879,4.9243,5.0113,5.1038,5.1957,5.2913,5.3629,5.4103,5.4103,5.4103,5.4103,5.4103,5.4103,5.4028,5.3833,5.4365,5.4967,5.5439,5.6083,5.6634,5.7058,5.6899,5.6798,5.6798,5.6798,5.6798,5.6798,5.6798,5.6798,5.6798,5.6798,5.6798,5.6798,5.6798,5.6798,5.681,5.7735,5.8188,5.8223,5.9155,5.9554,5.9554,5.9565,6.0097,6.0966,6.0986,6.1544,6.2381,6.2391,6.2391,6.2391,6.2391,6.2391,6.2391,0.0,0.0,0.0,0.0,0.0,0.0,0.0,2.5702,2.6328,2.6431,2.6875,2.7256,2.7365,2.744,2.7498,2.7498,0.0,0.0,0.0,0.0,0.0,0.0,0.0,0.0,0.0,0.0,0.0,3.2793,3.2997,3.3148,3.3201,3.3413,3.403,3.5002,3.5656,3.6562,0.0,0.0,0.0,0.0,0.0,0.0,4.0851,0.0,0.0,0.0,0.0,0.0,0.0,0.0,0.0,0.0,0.0,0.0,0.0,4.973,4.9673,4.9472,4.926,4.9149,4.9066,4.9066,4.926,4.961,5.0411,5.1255,5.2124,5.2944,5.3629,5.4103,5.4103,5.4103,5.4103,5.4103,5.4103,5.4081,5.4006,5.4687,5.5266,5.5394,5.6174,5.6755,5.6887,5.6846,5.6798,5.6798,5.6798,5.6798,5.6798,5.6798,5.6798,5.6798,5.6798,5.6798,5.6798,5.7448,5.7746,5.7758,5.8705,5.9177,5.9177,5.9455,5.9587,5.9652,6.0269,6.0736,6.1038,6.1676,6.212,6.2391,6.2391,6.2391,6.2391,6.2391,6.2391,6.2391,0.0,0.0,0.0,0.0,0.0,0.0,0.0,2.5394,2.6103,2.619,2.6773,2.7222,2.7298,2.7406,2.7498,2.7498,0.0,0.0,0.0,0.0,0.0,0.0,0.0,0.0,0.0,0.0,0.0,0.0,0.0,3.3005,3.3005,3.3271,3.3803,3.4539,3.539,3.6283,0.0,0.0,0.0,0.0,0.0,0.0,4.0123,0.0,0.0,0.0,0.0,0.0,0.0,0.0,0.0,0.0,0.0,0.0,0.0,0.0,4.9713,4.9583,4.9462,4.9372,4.9373,4.9623,4.965,4.9801,5.0524,5.1379,5.2133,5.2576,5.3439,5.4103,5.4103,5.4103,5.4103,5.4103,5.4103,5.4081,5.3995,5.4875,5.5715,5.6154,5.6612,5.6899,5.6899,5.6846,5.6798,5.6798,5.6798,5.6798,5.6798,5.6798,5.6966,5.7318,5.699,5.6978,5.733,5.7898,5.8395,5.8739,5.9664,6.0119,6.0129,6.0504,6.0662,6.0694,6.1288,6.1524,0.0,6.2173,6.2391,6.2391,6.2391,6.2391,6.2391,6.2391,6.2391,6.2391,0.0,0.0,0.0,0.0,0.0,0.0,0.0,0.0,0.0,0.0,2.6619,2.7028,2.7264,2.739,2.7481,0.0,0.0,0.0,0.0,0.0,0.0,0.0,0.0,0.0,0.0,0.0,0.0,3.239,3.2784,3.2979,3.2997,0.0,3.3871,3.4464,3.5297,3.6211,0.0,0.0,0.0,0.0,0.0,0.0,0.0,0.0,0.0,0.0,0.0,0.0,0.0,0.0,0.0,0.0,0.0,0.0,0.0,0.0,0.0,0.0,0.0,4.9451,4.9446,5.0112,4.9942,4.977,5.0471,5.1358,0.0,5.1986,5.3113,5.4103,5.4103,5.4103,5.4103,5.4103,5.4103,5.4059,5.3885,5.5012,5.6227,5.7351,5.7227,5.7072,5.7096,5.6911,5.6798,5.6798,5.6798,5.6834,5.6906,5.6906,5.7294,5.8177,5.7424,5.7424,5.8303,5.8384,5.8841,5.9696,6.0662,6.109,6.1111,6.2001,6.2391,6.2391,6.2391,6.2391,6.2391,6.2391,6.2391,6.2391,6.2391,6.2391,6.2391,6.2391,6.2391,6.2391,0.0,0.0,0.0,0.0,0.0,0.0,0.0,0.0,0.0,0.0,2.6025,2.6551,2.702,2.7248,2.7381,0.0,0.0,0.0,0.0,0.0,0.0,0.0,0.0,0.0,0.0,0.0,3.2237,3.2237,3.2587,3.2775,3.2784,3.3174,0.0,0.0,3.4965,0.0,0.0,0.0,0.0,0.0,0.0,0.0,0.0,0.0,0.0,0.0,4.2632,4.3523,0.0,0.0,0.0,0.0,0.0,0.0,0.0,0.0,4.9084,4.9452,4.9753,0.0,4.9423,4.9882,4.9819,4.9644,0.0,5.098,5.1966,5.181,5.3018,5.4103,5.4103,5.4103,5.4103,5.4103,5.4103,5.4206,5.4522,5.5417,5.6326,5.7098,5.6995,5.6923,5.7072,5.6911,5.6798,5.6798,5.6798,5.7103,5.7828,5.7863,5.7968,5.82,5.8683,5.9033,5.9277,5.9968,6.0461,6.0683,6.1615,6.206,6.207,6.2302,6.2391,6.2391,6.2391,6.2391,6.2391,6.2391,6.2391,6.2391,6.2391,6.2391,6.2391,6.2391,6.2391,6.2391,0.0,0.0,0.0,0.0,0.0,0.0,0.0,0.0,0.0,0.0,0.0,0.0,0.0,0.0,0.0,0.0,0.0,0.0,0.0,0.0,0.0,0.0,0.0,0.0,0.0,3.2155,3.22,0.0,0.0,3.2614,0.0,0.0,0.0,0.0,0.0,0.0,0.0,0.0,0.0,0.0,3.8315,0.0,0.0,0.0,0.0,0.0,4.1978,4.2849,0.0,4.4525,4.5096,4.563,0.0,0.0,0.0,0.0,4.887,4.9361,4.9583,4.9511,4.9595,5.0231,4.9993,4.9706,5.0152,5.0844,5.1484,5.1789,5.2713,5.3606,5.4029,5.3931,5.3835,5.4071,5.3931,5.4092,5.4983,5.5808,5.6501,5.7046,5.7007,5.6935,5.6959,5.687,5.6798,5.6798,5.6798,5.7211,5.8153,5.82,5.858,5.9444,5.9968,6.0054,5.9587,6.0546,6.1237,6.1635,6.2173,6.2391,6.2391,6.2391,6.2391,6.2391,6.2391,6.2391,6.2391,6.2391,6.2391,6.2391,6.2391,6.2391,6.2391,6.2391,6.2391,6.2391,0.0,0.0,0.0,0.0,0.0,0.0,0.0,0.0,0.0,0.0,0.0,0.0,0.0,0.0,0.0,0.0,0.0,0.0,0.0,0.0,0.0,0.0,0.0,3.1844,3.1899,3.2018,3.2118,3.22,0.0,0.0,0.0,0.0,3.3232,0.0,0.0,0.0,0.0,0.0,0.0,0.0,3.8165,0.0,0.0,0.0,0.0,0.0,0.0,0.0,0.0,4.4298,4.4728,4.4958,4.6307,0.0,0.0,0.0,0.0,0.0,4.9154,4.9348,4.9698,5.0527,5.0173,4.981,5.0579,5.0739,5.0961,5.1725,5.2345,5.2995,5.3848,5.3716,5.3618,5.3995,5.3849,5.4157,5.5422,5.6147,5.6688,5.7058,5.706,5.7007,5.687,5.6822,5.6798,5.6798,5.6798,5.727,5.8372,5.8398,5.9222,6.0945,6.1131,6.0767,5.9805,6.0746,6.1605,6.2391,6.2391,6.2391,6.2391,6.2391,6.2391,6.2391,6.2391,6.2391,6.2391,6.2391,6.2391,6.2391,6.2391,6.2391,6.2391,6.2391,6.2391,6.2391,0.0,0.0,0.0,0.0,0.0,0.0,0.0,0.0,0.0,0.0,0.0,0.0,0.0,0.0,0.0,0.0,0.0,0.0,0.0,0.0,0.0,0.0,3.1001,3.1541,3.189,3.1587,3.1689,3.22,3.2173,0.0,3.2713,3.3077,3.3842,3.4917,0.0,0.0,0.0,0.0,0.0,0.0,3.8015,0.0,0.0,0.0,0.0,0.0,0.0,0.0,0.0,4.311,4.3419,4.3677,4.4289,0.0,0.0,0.0,0.0,0.0,4.8606,4.8894,4.919,4.9476,4.9575,4.9573,4.9567,5.027,5.1032,5.1351,5.2282,5.3112,5.3438,5.3759,5.3963,5.3865,5.4543,5.5314,5.5915,5.6439,5.6855,5.7072,5.6947,5.6887,5.7055,5.6887,5.6798,5.6798,5.6798,5.7559,5.9278,5.941,5.987,6.0966,6.179,6.1716,6.0799,6.1729,6.2263,6.2391,6.2391,6.2391,6.2391,6.2391,6.2391,6.2391,6.2391,6.2391,6.2391,6.2391,6.2391,6.2391,6.2391,6.2391,6.2391,6.2391,6.2391,6.2391,0.0,0.0,0.0,0.0,0.0,0.0,0.0,0.0,0.0,0.0,0.0,0.0,0.0,0.0,0.0,0.0,0.0,0.0,0.0,0.0,0.0,0.0,3.0444,3.0832,3.1243,3.1196,3.1263,3.1541,3.1744,3.1955,3.2228,3.2837,3.3891,3.5198,0.0,0.0,0.0,0.0,0.0,0.0,0.0,0.0,0.0,0.0,0.0,0.0,0.0,0.0,0.0,0.0,4.3111,4.3536,4.4006,0.0,0.0,0.0,0.0,0.0,4.8233,4.8631,4.8996,4.8944,4.9108,4.924,4.9149,4.9811,5.0601,5.1194,5.206,5.2845,5.3307,5.3496,5.3599,5.375,5.47,5.5594,5.6035,5.6717,5.7163,5.7096,5.7019,5.6959,5.6935,5.6858,5.6798,5.6798,5.6798,5.7617,5.9488,5.9587,6.0247,6.1696,6.2193,6.2203,6.178,6.216,6.2391,6.2391,6.2391,6.2391,6.2391,6.2391,6.2391,6.2391,6.2391,6.2391,6.2391,6.2391,6.2391,6.2391,6.2391,6.2391,6.2391,6.2391,6.2391,6.2391,0.0,0.0,0.0,0.0,0.0,0.0,0.0,0.0,0.0,0.0,0.0,0.0,0.0,0.0,0.0,0.0,0.0,0.0,0.0,0.0,2.9209,2.9764,2.9879,3.0168,3.0688,3.0764,3.0868,3.0992,3.1356,3.1699,3.2101,3.2757,3.3827,3.5198,0.0,0.0,0.0,0.0,0.0,0.0,0.0,0.0,0.0,0.0,0.0,0.0,0.0,0.0,0.0,0.0,0.0,0.0,0.0,0.0,0.0,4.5582,4.6611,4.7735,4.7735,4.8314,4.8841,4.8666,4.8841,4.9047,4.8944,4.9522,5.0309,5.1067,5.1858,5.2576,5.3229,5.3368,5.3554,5.402,5.4984,5.5794,5.6224,5.6869,5.7258,5.7055,5.7043,5.6971,5.681,5.6798,5.6798,5.6798,5.7014,5.7863,5.9499,5.9794,6.0694,6.2341,6.2391,6.2391,6.2391,6.2391,6.2391,6.2391,6.2391,6.2391,6.2391,6.2391,6.2391,6.2391,6.2391,6.2391,6.2391,6.2391,6.2391,6.2391,6.2391,6.2391,6.2391,6.2391,6.2391,6.2391,0.0,0.0,0.0,0.0,0.0,0.0,0.0,0.0,0.0,0.0,0.0,0.0,0.0,0.0,0.0,0.0,0.0,0.0,0.0,0.0,2.8647,2.887,2.9253,2.9825,3.0679,3.0356,3.0451,3.0992,3.1153,3.18,3.2926,3.3157,3.3963,3.5217,0.0,0.0,0.0,0.0,0.0,0.0,0.0,0.0,0.0,0.0,0.0,0.0,0.0,0.0,0.0,0.0,0.0,0.0,0.0,0.0,4.4454,4.4655,4.5793,4.6971,4.6971,4.7791,4.8604,4.8594,4.8934,4.9148,4.8718,4.9471,5.0424,5.0929,5.1751,5.2564,5.304,5.3783,5.4529,5.5181,5.5724,5.6208,5.6673,5.6815,5.6846,5.6822,5.6822,5.6822,5.6798,5.6798,5.6798,5.6798,5.7625,5.8535,5.9532,6.044,6.137,6.2361,6.2391,6.2391,6.2391,6.2391,6.2391,6.2391,6.2391,6.2391,6.2391,6.2391,6.2391,6.2391,6.2391,6.2391,6.2391,6.2391,6.2391,6.2391,6.2391,6.2391,6.2391,6.2391,6.2391,6.2391,0.0,0.0,0.0,0.0,0.0,0.0,0.0,0.0,0.0,0.0,0.0,0.0,0.0,0.0,0.0,0.0,0.0,0.0,0.0,0.0,2.8588,2.8781,2.8949,2.9302,2.9889,2.9924,3.0198,3.0741,3.1045,3.1821,3.2992,3.3111,3.3772,3.4845,0.0,0.0,0.0,0.0,0.0,0.0,0.0,0.0,0.0,0.0,0.0,0.0,0.0,0.0,0.0,0.0,4.2525,4.31,4.325,4.385,4.4496,4.4572,4.5594,4.6752,4.688,4.774,4.8594,4.8594,4.8718,4.878,4.8469,4.9528,5.0636,5.0937,5.1985,5.3022,5.3605,5.3836,5.4316,5.5411,5.5731,5.608,5.6717,5.6798,5.6798,5.6798,5.6798,5.6798,5.6798,5.6798,5.7031,5.7649,5.7991,5.8863,6.0397,6.0809,6.1432,6.2371,6.2391,6.2391,6.2391,6.2391,6.2391,6.2391,6.2391,6.2391,6.2391,6.2391,6.2391,6.2391,6.2391,6.2391,6.2391,6.2391,6.2391,6.2391,6.2391,6.2391,6.2391,6.2391,6.2391,6.2391,0.0,0.0,0.0,0.0,0.0,0.0,0.0,0.0,0.0,0.0,0.0,0.0,0.0,0.0,0.0,0.0,0.0,0.0,0.0,2.8122,2.8389,2.8593,2.8781,2.9008,2.9292,2.9809,3.03,3.0816,3.1331,3.1897,3.2576,3.3035,3.3751,0.0,0.0,0.0,0.0,0.0,0.0,0.0,0.0,3.7433,0.0,0.0,0.0,0.0,0.0,0.0,0.0,0.0,4.2637,4.33,4.33,4.3899,4.4591,4.4591,4.5487,4.6554,4.6762,4.7639,4.8511,4.8573,4.8594,4.8552,4.8448,4.9575,5.0751,5.0882,5.2093,5.3295,5.3996,5.4116,5.4526,5.5648,5.5959,5.6231,5.6736,5.6798,5.6798,5.6798,5.6798,5.6798,5.6798,5.6798,5.7086,5.77,5.8326,5.9211,6.0504,6.1111,6.175,6.2371,6.2391,6.2391,6.2391,6.2391,6.2391,6.2391,6.2391,6.2391,6.2391,6.2391,6.2391,6.2391,6.2391,6.2391,6.2391,6.2391,6.2391,6.2391,6.2391,6.2391,6.2391,6.2391,6.2391,6.2391,0.0,0.0,0.0,0.0,0.0,0.0,0.0,0.0,0.0,0.0,0.0,0.0,0.0,0.0,0.0,0.0,0.0,0.0,2.748,2.7736,2.7992,2.8189,2.8786,2.9101,2.9101,3.0079,3.0826,3.1314,3.2028,3.211,3.1624,3.2982,3.3965,0.0,0.0,0.0,0.0,0.0,0.0,0.0,3.7289,3.7433,0.0,0.0,0.0,0.0,0.0,0.0,0.0,0.0,4.2637,4.33,4.3309,4.3899,4.4591,4.4591,4.54,4.6344,4.6554,4.7436,4.8334,4.8542,4.8594,4.8594,4.8625,4.9682,5.0708,5.0708,5.1984,5.3326,5.3985,5.4655,5.5337,5.6007,5.651,5.6798,5.6798,5.6798,5.6798,5.6798,5.6798,5.6798,5.6798,5.6798,5.681,5.6834,5.8558,5.9587,5.9598,6.1391,6.2391,6.2381,6.2391,6.2391,6.2391,6.2391,6.2391,6.2391,6.2391,6.2391,6.2391,6.2391,6.2391,6.2391,6.2391,6.2391,6.2391,6.2391,6.2391,6.2391,6.2391,6.2391,6.2391,6.2391,6.2391,6.2391,0.0,0.0,0.0,0.0,0.0,0.0,0.0,0.0,0.0,0.0,0.0,0.0,0.0,0.0,0.0,0.0,0.0,0.0,2.778,2.7978,2.8189,2.8389,2.8727,2.8963,2.9101,3.0405,3.1366,3.1863,3.1738,3.187,3.2182,3.3064,0.0,3.4657,0.0,0.0,0.0,0.0,0.0,0.0,3.7085,3.7202,0.0,0.0,0.0,0.0,0.0,0.0,0.0,0.0,0.0,0.0,4.3704,4.4151,4.4591,4.4591,4.5158,4.5919,4.647,4.7199,4.7937,4.8481,4.8594,4.8748,4.9251,5.0062,5.0985,5.1917,5.2652,5.3383,5.4364,5.47,5.5224,5.64,5.6723,5.6798,5.6798,5.6798,5.6798,5.6798,5.6798,5.6798,5.6798,5.6798,5.7353,5.8683,5.9278,5.987,6.0557,6.176,6.209,6.1442,6.205,6.2391,6.2391,6.2391,6.2391,6.2391,6.2391,6.2391,6.2391,6.2391,6.2391,6.2391,6.2391,6.2391,6.2391,6.2391,6.2391,6.2391,6.2391,6.2391,6.2391,6.2391,6.2391,6.2391,0.0,0.0,0.0,0.0,0.0,0.0,0.0,0.0,0.0,0.0,0.0,0.0,0.0,0.0,0.0,0.0,0.0,0.0,0.0,0.0,2.8159,2.8359,2.8736,2.916,2.9668,3.0772,3.1405,3.1507,3.1701,3.1935,3.2229,3.3361,3.4265,3.5008,0.0,3.6998,0.0,0.0,3.6998,3.6998,3.6998,3.7066,3.7257,0.0,0.0,0.0,0.0,0.0,0.0,0.0,0.0,0.0,4.3507,4.4006,4.4486,4.4572,4.521,4.5982,4.646,4.722,4.7999,4.8481,4.8594,4.8871,4.9877,5.0616,5.1405,5.2471,5.2841,5.3298,5.4483,5.4695,5.518,5.657,5.6798,5.6798,5.6798,5.6798,5.6798,5.6798,5.6798,5.6798,5.6798,5.6798,5.7282,5.8409,5.8841,5.9278,5.9849,6.1121,6.1574,6.1018,6.1544,6.185,6.185,6.185,6.185,6.186,6.2233,6.2391,6.2391,6.2391,6.2391,6.2391,6.2391,6.2391,6.2391,6.2391,6.2391,6.2391,6.2391,6.2391,6.2391,6.2391,6.2391,6.2391,0.0,0.0,0.0,0.0,0.0,0.0,0.0,0.0,0.0,0.0,0.0,0.0,0.0,0.0,0.0,0.0,0.0,0.0,0.0,0.0,2.8002,2.8219,2.8796,2.9579,3.0588,3.1035,3.1035,3.0588,3.1762,3.2179,3.198,3.374,3.4904,3.5609,0.0,3.6998,3.6998,3.6998,3.6998,3.6998,3.6998,3.7026,3.7157,3.7775,0.0,0.0,0.0,0.0,0.0,0.0,0.0,0.0,4.3091,4.3665,4.4295,4.4505,4.5349,4.6252,4.6503,4.7405,4.8293,4.8542,4.8686,4.9117,5.042,5.1251,5.1948,5.2564,5.2748,5.3168,5.4449,5.4768,5.5241,5.6582,5.6798,5.6798,5.6798,5.6798,5.6798,5.6798,5.6798,5.6798,5.6798,5.6798,5.6834,5.693,5.7793,5.8338,5.8338,6.0011,6.0955,6.0872,6.0872,6.0872,6.0872,6.0872,6.0872,6.0882,6.183,6.2272,6.2282,6.2361,6.2391,6.2391,6.2391,6.2391,6.2391,6.2391,6.2391,6.2391,6.2391,6.2391,6.2391,6.2391,6.2391,6.2391,0.0,0.0,0.0,0.0,0.0,0.0,0.0,0.0,0.0,0.0,0.0,0.0,0.0,0.0,0.0,0.0,0.0,0.0,0.0,0.0,2.8062,2.8409,2.8865,2.9579,3.0588,3.0306,3.0281,3.0588,3.1281,3.1881,0.0,0.0,0.0,3.5984,0.0,3.6998,3.6998,3.6998,3.6998,3.6998,3.6998,3.7269,3.7775,3.8432,3.9202,0.0,0.0,0.0,0.0,0.0,0.0,0.0,4.3899,4.4025,4.4114,4.4326,4.4896,4.5641,4.6201,4.7027,4.7896,4.846,4.9425,5.0328,5.0636,5.1621,5.2533,5.2687,5.3118,5.3722,5.4541,5.5118,5.5788,5.6674,5.6798,5.6798,5.6798,5.6798,5.6798,5.6798,5.6798,5.6798,5.6798,5.6798,5.7091,5.784,5.8773,5.9311,5.9311,6.0397,6.0662,5.9914,5.9892,5.9892,5.9892,5.9892,5.9892,5.9903,6.0851,6.1309,6.134,6.205,6.2391,6.2391,6.2391,6.2391,6.2391,6.2391,6.2391,6.2391,6.2391,6.2391,6.2391,6.2391,6.2391,6.2391,0.0,0.0,0.0,0.0,0.0,0.0,0.0,0.0,0.0,0.0,0.0,0.0,0.0,0.0,0.0,0.0,0.0,0.0,0.0,0.0,0.0,2.9175,2.9429,2.9861,3.0578,3.0322,3.0322,3.0588,3.1468,0.0,0.0,0.0,0.0,3.6548,0.0,3.6998,3.6998,3.6998,3.6998,3.7036,3.7443,3.7724,3.8028,3.9068,3.9673,4.0061,4.0742,0.0,0.0,0.0,0.0,0.0,0.0,0.0,4.389,4.4104,4.4941,4.5876,4.6212,4.718,4.8163,4.8501,4.964,5.0708,5.0708,5.1744,5.2687,5.2687,5.3229,5.3906,5.4583,5.5241,5.5942,5.6674,5.6798,5.6798,5.6798,5.6798,5.6798,5.6798,5.6798,5.6798,5.6798,5.6798,5.7014,5.7495,5.7991,5.826,5.826,5.9134,5.9454,5.8953,5.8931,5.8931,5.8931,5.8931,5.9166,5.9598,6.0567,6.1247,6.1676,6.2193,6.2391,6.2391,6.2391,6.2391,6.2391,6.2391,6.2391,6.2391,6.2391,6.2391,6.2391,6.2391,6.2391,6.2391,0.0,0.0,0.0,0.0,0.0,0.0,0.0,0.0,0.0,0.0,0.0,0.0,0.0,0.0,0.0,0.0,0.0,0.0,0.0,0.0,0.0,2.9799,2.9829,3.0054,3.0462,3.0472,3.0562,3.0707,0.0,0.0,0.0,0.0,0.0,3.6998,0.0,3.6998,3.6998,3.6998,3.6998,3.7064,3.7889,3.816,3.8207,0.0,0.0,4.0055,4.0714,4.1064,4.1286,4.1621,0.0,0.0,0.0,0.0,4.3665,4.3881,4.5018,4.6193,4.6193,4.7344,4.8542,4.8583,4.964,5.0708,5.0708,5.1744,5.2687,5.2687,5.3333,5.4029,5.4602,5.5334,5.6108,5.6705,5.6798,5.6798,5.6798,5.6798,5.6798,5.6798,5.6798,5.6798,5.6798,5.6798,5.6798,5.6798,5.6954,5.7031,5.7031,5.777,5.82,5.82,5.8049,5.7956,5.7956,5.8119,5.858,5.9356,6.0482,6.1493,6.2391,6.2391,6.2391,6.2391,6.2391,6.2391,6.2391,6.2391,6.2391,6.2391,6.2391,6.2391,6.2391,6.2391,6.2391,6.2391,0.0,0.0,0.0,0.0,0.0,0.0,0.0,0.0,0.0,0.0,0.0,0.0,0.0,0.0,0.0,0.0,0.0,0.0,2.7861,0.0,0.0,2.9204,2.9234,2.944,2.9905,2.9914,3.0326,3.12,0.0,0.0,0.0,0.0,0.0,3.6998,0.0,0.0,3.6998,3.6998,3.6998,3.7054,3.7692,3.8283,0.0,0.0,0.0,0.0,0.0,4.1328,4.2108,4.2005,4.2668,0.0,0.0,0.0,4.3389,4.3655,4.47,4.5787,4.5787,4.7015,4.8365,4.8542,4.964,5.0708,5.0708,5.1744,5.2687,5.2687,5.3691,5.4602,5.4664,5.5788,5.6705,5.6767,5.6798,5.6798,5.6798,5.6798,5.6798,5.6798,5.6798,5.6798,5.6798,5.6798,5.6798,5.6798,5.7535,5.8014,5.8014,5.813,5.82,5.82,5.7413,5.7002,5.7002,5.7781,5.8269,5.8418,6.0151,6.1493,6.2391,6.2391,6.2391,6.2391,6.2391,6.2391,6.2391,6.2391,6.2391,6.2391,6.2391,6.2391,6.2391,6.2391,6.2391,6.2391,0.0,0.0,0.0,0.0,0.0,0.0,0.0,0.0,0.0,0.0,0.0,0.0,0.0,0.0,0.0,2.6853,2.7073,2.7394,2.7861,2.8379,2.8961,2.9588,2.9401,2.9583,3.0236,3.0256,3.0735,0.0,0.0,0.0,0.0,3.6051,3.6615,0.0,0.0,0.0,0.0,0.0,3.7185,3.756,3.8317,3.8588,0.0,0.0,0.0,0.0,0.0,0.0,0.0,4.2271,4.2729,4.319,4.3409,0.0,0.0,0.0,4.4529,4.5897,4.6902,4.7718,4.8364,4.8542,4.964,5.0708,5.0708,5.1744,5.2687,5.2687,5.3487,5.4245,5.4645,5.553,5.6324,5.6736,5.6798,5.6798,5.6798,5.6798,5.6798,5.6798,5.6798,5.6798,5.6798,5.6798,5.6798,5.6798,5.7175,5.7424,5.7424,5.7424,5.7424,5.7424,5.7026,5.6798,5.6798,5.7199,5.7945,5.9021,6.0882,6.2001,6.2391,6.2391,6.2391,6.2391,6.2391,6.2391,6.2391,6.2391,6.2391,6.2391,6.2391,6.2391,6.2391,6.2391,6.2391,6.2391,0.0,0.0,0.0,0.0,0.0,0.0,0.0,0.0,0.0,0.0,0.0,0.0,0.0,0.0,0.0,0.0,2.7262,2.7486,2.7951,2.8449,2.9026,2.9745,2.949,2.9721,3.0588,3.0707,0.0,0.0,0.0,0.0,3.5898,3.6437,3.6801,0.0,3.6998,0.0,0.0,0.0,0.0,0.0,0.0,0.0,0.0,0.0,0.0,0.0,0.0,0.0,0.0,0.0,0.0,4.29,4.32,4.33,0.0,0.0,0.0,4.5967,4.7663,4.8175,4.8281,4.8459,4.9608,5.0708,5.0708,5.1744,5.2687,5.2687,5.3118,5.366,5.4326,5.5118,5.5942,5.6674,5.6798,5.6798,5.6798,5.6798,5.6798,5.6798,5.6798,5.6798,5.6798,5.6798,5.6798,5.6798,5.6798,5.6798,5.6798,5.6798,5.6798,5.6798,5.6798,5.6918,5.7139,5.7629,5.858,6.0,6.1615,6.2391,6.2391,6.2391,6.2391,6.2391,6.2391,6.2391,6.2391,6.2391,6.2391,6.2391,6.2391,6.2391,6.2391,6.2391,6.2391,6.2391,0.0,0.0,0.0,0.0,0.0,0.0,0.0,0.0,0.0,0.0,0.0,0.0,0.0,2.6868,2.6983,2.718,2.7371,2.7672,2.8149,2.8389,2.8701,2.914,2.9136,0.0,3.0588,3.1033,0.0,0.0,0.0,0.0,3.6375,3.6603,3.6801,3.6998,3.6998,3.6998,3.7044,0.0,0.0,0.0,0.0,0.0,0.0,0.0,0.0,0.0,0.0,0.0,0.0,0.0,0.0,0.0,0.0,4.33,4.33,0.0,0.0,0.0,4.7209,4.7816,4.807,4.827,4.9533,5.0708,5.0708,5.1744,5.2687,5.2687,5.2718,5.2964,5.3629,5.4822,5.5942,5.6674,5.6798,5.6798,5.6798,5.6798,5.6798,5.6798,5.6798,5.6798,5.6798,5.6798,5.6798,5.6798,5.6798,5.6798,5.6798,5.6798,5.6798,5.6798,5.6798,5.7223,5.8119,5.9881,6.083,6.0934,6.1931,6.2391,6.2391,6.2391,6.2391,6.2391,6.2391,6.2391,6.2391,6.2391,6.2391,6.2391,6.2391,6.2391,6.2391,6.2391,6.2391,6.2391,0.0,0.0,0.0,0.0,0.0,0.0,0.0,0.0,0.0,0.0,0.0,0.0,0.0,2.7026,2.7129,2.719,2.7547,2.7928,2.8359,2.8697,2.9013,2.9272,2.9791,3.0377,3.1033,3.1891,0.0,0.0,0.0,3.5419,3.6405,3.6474,3.6674,3.6998,3.6998,3.6998,3.7044,3.7625,0.0,0.0,0.0,0.0,0.0,0.0,0.0,0.0,0.0,0.0,0.0,0.0,0.0,0.0,0.0,0.0,0.0,4.4549,4.5018,4.5626,4.7177,4.7794,4.8049,4.826,4.9492,5.0708,5.0708,5.1744,5.2687,5.2687,5.2687,5.2902,5.3568,5.4429,5.5272,5.5973,5.6477,5.6798,5.6798,5.6798,5.6798,5.6798,5.6798,5.6798,5.6798,5.6798,5.6798,5.6798,5.6798,5.6798,5.6798,5.6798,5.6798,5.6798,5.6798,5.7246,5.82,6.0043,6.0997,6.1007,6.1951,6.2391,6.2391,6.2391,6.2391,6.2391,6.2391,6.2391,6.2391,6.2391,6.2391,6.2391,6.2391,6.2391,6.2391,6.2391,6.2391,6.2391,0.0,0.0,0.0,0.0,0.0,0.0,0.0,0.0,0.0,0.0,0.0,0.0,0.0,0.0,2.7262,2.7425,2.778,2.8183,2.8568,2.8956,2.9292,2.9544,3.0398,3.114,3.1734,0.0,0.0,0.0,0.0,0.0,0.0,3.6435,3.6605,3.7026,3.7144,3.7238,0.0,0.0,0.0,3.915,0.0,0.0,3.8671,0.0,0.0,0.0,0.0,0.0,0.0,0.0,0.0,0.0,0.0,0.0,0.0,0.0,0.0,4.5605,4.7091,4.7666,4.7922,4.8144,4.9385,5.058,5.0686,5.1744,5.2687,5.2687,5.2687,5.2841,5.3291,5.3906,5.4656,5.553,5.6324,5.6798,5.6798,5.6798,5.6798,5.6798,5.6798,5.6798,5.6798,5.6798,5.6798,5.6798,5.6798,5.6798,5.6798,5.6798,5.6798,5.6798,5.7393,5.7898,5.82,6.0354,6.1319,6.1007,6.1951,6.2391,6.2391,6.2391,6.2391,6.2391,6.2391,6.2391,6.2391,6.2391,6.2391,6.2391,6.2391,6.2391,6.2391,6.2391,6.2391,6.2391,0.0,0.0,0.0,0.0,0.0,0.0,0.0,0.0,0.0,0.0,0.0,0.0,0.0,0.0,0.0,2.7851,2.8069,2.8379,2.8796,2.9145,2.9516,2.9936,3.0932,3.1816,3.2621,0.0,0.0,0.0,0.0,0.0,0.0,0.0,3.6595,3.6987,3.7416,3.7716,3.7952,0.0,3.9257,3.9725,0.0,3.8693,3.9052,0.0,0.0,0.0,4.084,4.1655,0.0,4.302,0.0,0.0,0.0,0.0,0.0,0.0,0.0,0.0,0.0,0.0,0.0,4.7933,4.913,5.0354,5.0612,5.1702,5.2687,5.2687,5.2687,5.2687,5.2687,5.326,5.4133,5.5438,5.6262,5.6767,5.6798,5.6798,5.6798,5.6798,5.6798,5.6798,5.6798,5.6798,5.6798,5.6798,5.6798,5.681,5.6846,5.6846,5.6846,5.6846,5.8649,5.9177,5.8257,6.0997,6.1941,6.1049,6.1961,6.2391,6.2391,6.2391,6.2391,6.2391,6.2391,6.2391,6.2391,6.2391,6.2391,6.2391,6.2391,6.2391,6.2391,6.2391,6.2391,6.2391,0.0,0.0,0.0,0.0,0.0,0.0,0.0,0.0,0.0,0.0,0.0,0.0,0.0,0.0,2.7544,2.7861,2.8069,2.8533,2.933,2.9773,3.0377,3.1175,3.2179,3.3027,3.3731,0.0,0.0,0.0,0.0,0.0,0.0,0.0,0.0,0.0,3.7286,3.7858,3.8394,3.9203,0.0,0.0,3.8768,3.915,0.0,0.0,0.0,0.0,0.0,4.282,4.299,0.0,4.33,4.3319,0.0,0.0,0.0,0.0,0.0,0.0,4.7059,0.0,0.0,0.0,0.0,0.0,5.0531,5.1374,5.2102,5.2595,5.2687,5.2687,5.2687,5.326,5.3814,5.4195,5.5222,5.62,5.6736,5.6798,5.6798,5.6798,5.6798,5.6798,5.6798,5.6798,5.6798,5.6798,5.6798,5.711,5.777,5.7805,5.7805,5.7805,5.8987,5.9498,5.9233,6.134,6.2272,6.201,6.2282,6.2391,6.2391,6.2391,6.2391,6.2391,6.2391,6.2391,6.2391,6.2391,6.2391,6.2391,6.2391,6.2391,6.2391,6.2391,6.2391,6.2391,0.0,0.0,0.0,0.0,0.0,0.0,0.0,0.0,0.0,0.0,0.0,0.0,0.0,0.0,0.0,2.8022,2.8423,2.9006,2.9847,3.0492,3.1258,3.2164,3.3152,3.3916,3.4395,0.0,0.0,0.0,0.0,0.0,0.0,0.0,0.0,0.0,0.0,0.0,0.0,0.0,0.0,0.0,3.9572,0.0,0.0,4.0534,4.1183,0.0,0.0,0.0,4.3728,4.3728,4.3908,0.0,0.0,0.0,0.0,0.0,0.0,0.0,0.0,0.0,0.0,4.7911,0.0,0.0,5.0329,5.1155,5.1865,5.241,5.2619,5.2687,5.2687,5.3014,5.3353,5.366,5.4349,5.5222,5.62,5.6354,5.6447,5.6767,5.6798,5.6798,5.6798,5.6798,5.6798,5.6798,5.6798,5.7211,5.8153,5.7817,5.7781,5.8188,5.8728,5.9189,5.9619,6.1059,6.201,6.2391,6.2391,6.2391,6.2391,6.2391,6.2391,6.2391,6.2391,6.2391,6.2391,6.2391,6.2391,6.2391,6.2391,6.2391,6.2391,6.2391,6.2391,6.2391,0.0,0.0,0.0,0.0,0.0,0.0,0.0,0.0,0.0,0.0,0.0,0.0,0.0,0.0,0.0,0.0,2.9015,2.975,3.0397,3.1305,3.2166,3.3019,3.3975,3.4605,3.4796,3.5406,0.0,0.0,0.0,0.0,0.0,0.0,0.0,0.0,0.0,0.0,0.0,0.0,0.0,4.072,4.0698,4.0997,0.0,0.0,4.1945,4.2769,4.2858,4.3486,4.4307,4.4396,4.4825,0.0,0.0,0.0,0.0,0.0,4.636,0.0,0.0,0.0,0.0,0.0,4.8452,0.0,5.0033,5.0903,5.1675,5.2107,5.2445,5.2653,5.2653,5.2653,5.2857,5.3441,5.3522,5.4006,5.5407,5.5653,5.5942,5.6613,5.6736,5.6798,5.6798,5.6798,5.6798,5.6798,5.6906,5.7365,5.8315,5.7547,5.7476,5.8349,5.8372,5.8751,5.9576,6.0546,6.1473,6.2391,6.2391,6.2391,6.2391,6.2391,6.2391,6.2391,6.2391,6.2391,6.2391,6.2391,6.2391,6.2391,6.2391,6.2391,6.2391,6.2391,6.2391,6.2391,0.0,0.0,0.0,0.0,0.0,0.0,0.0,0.0,0.0,0.0,0.0,0.0,0.0,0.0,0.0,0.0,2.9852,3.0757,3.13,3.2349,3.3302,3.408,3.4811,3.5294,3.5497,3.5629,3.572,0.0,0.0,0.0,0.0,0.0,0.0,0.0,0.0,0.0,0.0,0.0,0.0,4.0926,4.0773,0.0,4.1881,4.1852,4.2415,4.324,4.3787,4.4116,4.4396,4.4915,4.5185,4.5315,0.0,0.0,0.0,0.0,0.0,0.0,0.0,0.0,0.0,0.0,0.0,0.0,4.9574,5.0217,5.0741,5.137,5.1973,5.2374,5.2374,5.2374,5.2435,5.2558,5.2558,5.3116,5.4683,5.5376,5.5757,5.5881,5.6447,5.6798,5.6798,5.6798,5.6798,5.6798,5.7507,5.8329,5.9299,5.9134,5.9123,5.9333,5.9344,5.94,5.9587,6.0546,6.1473,6.2391,6.2391,6.2391,6.2391,6.2391,6.2391,6.2391,6.2391,6.2391,6.2391,6.2391,6.2391,6.2391,6.2391,6.2391,6.2391,6.2391,6.2391,6.2391,0.0,0.0,0.0,0.0,0.0,0.0,0.0,0.0,0.0,0.0,0.0,0.0,0.0,0.0,0.0,0.0,0.0,0.0,0.0,0.0,3.4006,3.4729,3.5161,3.5477,3.569,3.569,3.569,3.569,0.0,0.0,0.0,0.0,0.0,0.0,0.0,0.0,0.0,0.0,4.1056,4.1827,4.1492,0.0,4.2364,4.2568,4.3118,4.3848,4.4187,4.4715,4.5403,4.6072,4.6292,0.0,0.0,4.652,4.679,0.0,4.7029,4.7309,0.0,0.0,0.0,4.7901,0.0,0.0,0.0,5.0033,5.0645,5.1208,5.1938,5.2507,5.2507,5.2507,5.2507,5.2507,5.2507,5.2675,5.3126,5.4072,5.481,5.5149,5.5819,5.6262,5.6262,5.6582,5.6798,5.6798,5.7653,5.8418,5.8875,5.9366,5.941,5.892,5.8908,5.8908,5.8908,5.9816,6.0778,6.1729,6.2193,6.2391,6.2391,6.2391,6.2391,6.2391,6.2391,6.2391,6.2391,6.2391,6.2391,6.2391,6.2391,6.2391,6.2391,6.2391,6.2391,6.2391,0.0,0.0,0.0,0.0,0.0,0.0,0.0,0.0,0.0,0.0,0.0,0.0,0.0,0.0,0.0,0.0,0.0,0.0,0.0,0.0,0.0,3.5024,3.5321,3.5507,3.5629,3.5669,3.569,3.569,3.5835,3.6107,0.0,0.0,0.0,0.0,0.0,0.0,0.0,0.0,0.0,4.2531,0.0,4.2488,4.3133,4.3538,4.4027,4.4516,4.4625,4.5463,4.657,4.7119,4.7309,4.7309,4.7309,4.7309,0.0,0.0,0.0,0.0,0.0,0.0,0.0,0.0,0.0,4.8434,0.0,0.0,0.0,5.1005,5.1821,5.2466,5.2589,5.2619,5.2589,5.2435,5.2527,5.2343,5.1555,5.2466,5.3438,5.3991,5.491,5.5433,5.5196,5.5853,5.6412,5.6767,5.7347,5.7892,5.8432,5.9199,5.9355,5.8762,5.8558,5.8546,5.8739,5.93,6.0151,6.1288,6.203,6.2391,6.2391,6.2391,6.2391,6.2391,6.2391,6.2391,6.2391,6.2391,6.2391,6.2391,6.2391,6.2391,6.2391,6.2391,6.2391,6.2391,2.5948,2.6063,0.0,0.0,0.0,0.0,0.0,0.0,0.0,0.0,0.0,0.0,0.0,0.0,0.0,0.0,0.0,0.0,3.3602,0.0,0.0,3.4839,3.5355,3.5578,3.5426,3.5599,3.569,3.569,3.6242,3.6524,3.6632,0.0,0.0,0.0,3.9658,0.0,0.0,0.0,4.1606,0.0,4.2279,4.32,0.0,4.4929,4.5125,4.5274,4.5862,4.654,4.7209,0.0,4.7309,4.7309,0.0,4.7309,4.7309,4.7309,0.0,0.0,0.0,0.0,0.0,0.0,4.8154,0.0,0.0,0.0,4.9647,5.0289,0.0,5.1648,5.2229,0.0,0.0,5.1556,5.1954,5.1893,5.0638,5.1097,5.1617,5.1678,5.3546,5.4432,5.3392,5.3912,5.5004,5.6669,5.6135,5.6809,5.9301,5.9532,5.9925,6.0662,5.986,5.9827,6.0683,5.9946,6.0504,6.2253,6.2341,6.2391,6.2391,6.2391,6.2391,6.2391,6.2391,6.2391,6.2391,6.2391,6.2391,6.2391,6.2391,6.2391,6.2391,6.2391,6.2391,6.2391,0.0,0.0,0.0,0.0,0.0,0.0,0.0,0.0,0.0,0.0,0.0,0.0,0.0,0.0,0.0,0.0,0.0,3.3884,0.0,0.0,0.0,0.0,0.0,0.0,0.0,3.5649,3.5862,3.6215,3.6469,3.6958,3.7653,3.8157,0.0,0.0,4.0074,0.0,4.1191,0.0,4.2513,0.0,0.0,4.4479,0.0,4.5112,4.5204,4.5982,4.664,4.7059,4.7309,0.0,4.7309,0.0,0.0,0.0,0.0,0.0,0.0,0.0,0.0,0.0,0.0,0.0,0.0,0.0,4.8417,0.0,4.9717,0.0,0.0,0.0,0.0,0.0,0.0,0.0,5.2356,5.2049,5.071,5.1109,5.1483,5.132,5.2039,5.2738,5.318,5.4152,5.5149,5.6072,5.6553,5.7121,5.7937,5.9521,6.0076,5.9389,6.0033,6.0355,6.0205,6.0355,6.0809,6.1585,6.212,6.2391,6.2391,6.2391,6.2391,6.2391,6.2391,6.2391,6.2391,6.2391,6.2391,6.2391,6.2391,6.2391,6.2391,6.2391,6.2391,6.2391,0.0,0.0,0.0,0.0,0.0,0.0,0.0,0.0,0.0,0.0,0.0,0.0,3.2717,3.3129,0.0,0.0,0.0,3.4115,0.0,0.0,3.5116,0.0,0.0,0.0,0.0,0.0,3.6395,3.6839,3.7002,3.7544,3.8401,3.8575,0.0,0.0,0.0,4.1015,4.1933,0.0,4.3075,4.4427,4.4109,4.5215,4.6879,4.5623,4.5743,4.6629,4.7119,4.7309,4.7309,4.7309,4.7309,4.7309,4.7309,4.7309,4.7309,0.0,0.0,0.0,4.7309,0.0,0.0,0.0,0.0,0.0,0.0,0.0,0.0,0.0,5.0944,0.0,0.0,0.0,5.2625,5.2441,0.0,5.2125,5.0795,5.1043,5.1136,5.0467,5.0324,5.0997,5.2826,5.3563,5.4304,5.5258,5.6216,5.6992,5.7559,5.9499,6.0248,5.9367,6.0407,6.0799,6.0354,6.0788,6.1111,6.1401,6.206,6.2391,6.2391,6.2391,6.2391,6.2391,6.2391,6.2391,6.2391,6.2391,6.2391,6.2391,6.2391,6.2391,6.2391,6.2391,6.2391,6.2391,0.0,2.8355,0.0,0.0,0.0,0.0,0.0,0.0,0.0,0.0,0.0,0.0,0.0,0.0,0.0,0.0,0.0,3.4387,3.4408,0.0,3.4884,0.0,0.0,3.6392,0.0,0.0,0.0,3.7469,3.8049,3.8347,3.8401,3.9009,3.9546,0.0,4.0692,4.1244,4.1765,4.2404,4.2839,4.311,4.3753,4.4947,4.639,4.6969,4.7249,4.7268,4.7309,4.7309,4.7309,4.7309,4.7309,4.7309,4.7309,4.7309,0.0,0.0,0.0,0.0,0.0,0.0,0.0,4.7591,0.0,0.0,0.0,0.0,4.884,0.0,0.0,0.0,5.1621,5.2256,5.2502,0.0,5.2066,0.0,0.0,5.0492,5.0019,4.8309,4.8254,4.9351,5.1801,5.1044,5.1507,5.422,5.425,5.5713,5.9313,5.9619,6.0461,6.2223,6.1442,6.1422,6.2302,6.1442,6.1462,6.2351,6.2381,6.2391,6.2391,6.2391,6.2391,6.2391,6.2391,6.2391,6.2391,6.2391,6.2391,6.2391,6.2391,6.2391,6.2391,6.2391,6.2391,6.2391,0.0,0.0,0.0,0.0,0.0,0.0,0.0,3.1829,0.0,0.0,0.0,0.0,0.0,3.4126,3.4397,0.0,0.0,3.4617,3.5147,3.5499,0.0,0.0,0.0,3.7082,0.0,0.0,0.0,0.0,0.0,3.8755,3.9453,3.9673,4.0007,4.0483,0.0,4.1621,0.0,0.0,0.0,0.0,0.0,4.6247,4.636,4.7029,4.7309,4.7309,4.7309,4.7309,4.7309,4.7309,4.7309,4.7369,4.7818,4.7978,4.8038,4.8498,4.8618,4.8618,4.8618,4.8674,4.8661,4.8353,4.8384,4.8436,0.0,0.0,0.0,0.0,0.0,0.0,0.0,0.0,0.0,0.0,0.0,5.1944,0.0,5.0297,4.9888,4.9735,5.0174,5.0442,5.043,5.1917,5.3127,5.3644,5.5564,5.68,5.7017,5.9262,6.0546,6.0557,6.1452,6.207,6.2391,6.208,6.208,6.2391,6.2391,6.2391,6.2391,6.2391,6.2391,6.2391,6.2391,6.2391,6.2391,6.2391,6.2391,6.2391,6.2391,6.2391,6.2391,6.2391,6.2391,6.2391,3.0268,0.0,0.0,0.0,0.0,0.0,0.0,0.0,0.0,0.0,3.3926,0.0,3.3989,0.0,3.4711,0.0,3.4894,3.5277,3.5869,3.6077,0.0,3.6688,3.7246,0.0,0.0,0.0,0.0,0.0,0.0,3.9142,3.9996,3.9996,4.0332,4.0983,4.1399,4.1848,4.2272,4.2699,4.3705,0.0,0.0,4.682,4.6689,4.7149,4.7309,4.7309,4.7309,4.7309,4.7339,4.7578,4.7679,4.7758,4.8427,4.8648,4.8738,4.9168,4.9288,4.9288,4.9288,4.9288,4.9232,4.8905,4.8903,4.8832,4.8341,4.878,4.9369,0.0,0.0,0.0,0.0,0.0,0.0,0.0,0.0,0.0,0.0,5.0562,5.023,5.0441,5.0644,5.0558,4.9994,5.1716,5.2995,5.3419,5.5484,5.687,5.7175,5.9348,6.0597,6.0609,6.178,6.2391,6.2391,6.2391,6.2391,6.2391,6.2391,6.2391,6.2391,6.2391,6.2391,6.2391,6.2391,6.2391,6.2391,6.2391,6.2391,6.2391,6.2391,6.2391,6.2391,6.2391,6.2391,6.2391,0.0,0.0,0.0,0.0,3.1571,0.0,0.0,0.0,3.3528,0.0,3.4178,3.445,3.4476,3.5009,3.5338,3.5338,3.5809,0.0,3.6513,3.6535,0.0,0.0,3.7303,3.7643,3.7432,0.0,0.0,0.0,0.0,0.0,4.0039,4.0061,4.0576,4.1495,4.1495,4.1976,4.2787,4.2787,4.3415,4.4506,4.5822,4.673,4.7309,4.7309,4.7309,4.7309,4.7309,4.7328,4.7459,4.8098,4.8308,4.8468,4.9127,4.9348,4.9348,4.9366,4.9378,4.9378,4.9378,4.9378,4.9378,4.9359,4.9505,4.947,4.8807,4.9293,4.9739,0.0,0.0,0.0,0.0,0.0,0.0,0.0,0.0,0.0,5.1181,5.1146,5.0907,5.0267,4.973,4.9734,5.0525,5.0425,5.1266,5.3448,5.4085,5.5907,5.9538,5.9789,6.0581,6.2209,6.2351,6.2371,6.2332,6.2371,6.2391,6.2391,6.2391,6.2391,6.2391,6.2391,6.2391,6.2391,6.2391,6.2391,6.2391,6.2391,6.2391,6.2391,6.2391,6.2391,6.2391,6.2391,6.2391,6.2391,3.1739,3.2113,3.2408,0.0,3.2384,3.2655,0.0,0.0,0.0,0.0,3.5003,3.5208,3.5626,3.5809,3.5887,3.5887,3.6018,0.0,0.0,0.0,0.0,3.7531,3.8073,3.8239,3.8002,3.8581,0.0,3.8908,0.0,0.0,4.0526,4.0898,4.1582,4.2602,4.2602,4.3169,4.4093,4.4093,4.4768,4.5852,4.6689,4.7149,4.7309,4.7309,4.7309,4.7309,4.7309,4.7608,4.8068,4.8248,4.8618,4.9157,4.9781,4.9979,5.0069,5.0559,5.072,5.072,5.072,5.072,5.0635,5.0332,5.0143,4.9937,4.9437,4.9742,5.0091,4.9911,5.0713,5.1435,5.1435,5.1735,0.0,0.0,0.0,0.0,0.0,0.0,5.0387,5.0237,5.0824,5.0997,5.0361,5.1639,5.2488,5.2442,5.4081,5.5707,5.7,5.84,5.9496,6.0289,6.1656,6.206,6.1381,6.204,6.2391,6.2391,6.2391,6.2391,6.2391,6.2391,6.2391,6.2391,6.2391,6.2391,6.2391,6.2391,6.2391,6.2391,6.2391,6.2391,6.2391,6.2391,6.2391,6.2391,3.2343,0.0,0.0,3.3387,0.0,0.0,3.405,3.4498,0.0,3.5567,3.5652,0.0,3.607,3.6332,3.6477,3.6477,3.6739,0.0,3.7498,0.0,0.0,3.8034,3.8194,3.8217,3.808,3.8807,0.0,3.9053,0.0,0.0,4.1025,4.1547,4.2222,4.3003,4.3322,4.3858,4.4634,4.513,4.5709,4.636,4.7029,4.7309,0.0,4.7309,4.7489,4.7728,4.7728,4.7978,4.8397,4.8944,4.9374,4.9793,5.0428,5.0637,5.0715,5.1086,5.1206,5.1206,5.1206,5.1206,5.1163,5.0913,5.0742,5.0493,4.9971,5.0251,5.0536,5.0267,5.0843,5.1439,5.1439,5.1556,5.1602,0.0,0.0,0.0,0.0,0.0,0.0,5.0637,5.1198,5.1345,5.0695,5.2248,5.3097,5.2603,5.3478,5.459,5.5868,5.7442,5.8487,5.898,6.12,6.1951,6.0997,6.1931,6.2391,6.2391,6.2391,6.2391,6.2391,6.2391,6.2391,6.2391,6.2391,6.2391,6.2391,6.2391,6.2391,6.2391,6.2391,6.2391,6.2391,6.2391,6.2391,6.2391,3.3276,0.0,0.0,0.0,0.0,0.0,0.0,3.5567,0.0,3.6168,0.0,3.6253,3.6332,3.6802,3.7116,3.7116,0.0,3.7954,3.8145,3.7988,3.7992,3.8145,3.8103,3.8068,3.8068,3.9198,0.0,0.0,0.0,0.0,4.1396,4.207,4.266,4.3148,4.3848,4.4426,4.4963,4.6011,4.642,4.648,4.7059,4.7309,4.7298,4.7399,4.7788,4.8308,4.8487,4.8547,4.8716,4.983,5.0267,5.0446,5.1026,5.1206,5.1206,5.1206,5.1206,5.1206,5.1206,5.1206,5.1206,5.1206,5.1206,5.1056,5.0446,5.0775,5.1026,5.0446,5.0775,5.1206,5.1206,5.1206,5.1206,0.0,0.0,0.0,0.0,0.0,0.0,0.0,5.1208,0.0,5.1199,5.2347,5.3044,5.2962,5.2374,5.3092,5.549,5.6556,5.7515,5.8382,6.0902,6.185,6.0997,6.1931,6.2391,6.2391,6.2391,6.2391,6.2391,6.2391,6.2391,6.2391,6.2391,6.2391,6.2391,6.2391,6.2391,6.2391,6.2391,6.2391,6.2391,6.2391,6.2391,6.2391,0.0,0.0,0.0,0.0,0.0,3.6735,3.6657,3.6292,3.6235,3.6765,3.6854,3.7026,3.7534,3.7691,3.7743,3.7743,3.7848,0.0,0.0,0.0,0.0,3.7957,3.8605,3.8955,3.8955,4.0147,4.0638,0.0,0.0,0.0,4.1406,4.2417,4.3218,4.3845,4.4701,4.5594,4.651,4.694,4.7119,4.7149,4.7238,4.7309,4.7369,4.7919,4.8188,4.8427,4.9482,4.986,4.9908,5.0117,5.0578,5.1056,5.1146,5.1206,5.1206,5.1206,5.1206,5.1206,5.1206,5.1206,5.1206,5.1206,5.1206,5.1176,5.1056,5.1128,5.1187,5.1056,5.1128,5.1206,5.1206,5.1206,5.1206,5.1206,0.0,0.0,0.0,0.0,0.0,0.0,0.0,5.1634,5.1251,5.163,5.1664,5.1118,5.0817,5.1974,5.5032,5.5052,5.6364,5.9516,6.083,6.1336,6.1007,6.1931,6.2391,6.2391,6.2391,6.2391,6.2391,6.2391,6.2391,6.2391,6.2391,6.2391,6.2391,6.2391,6.2391,6.2391,6.2391,6.2391,6.2391,6.2391,6.2391,6.2391,0.0,0.0,0.0,0.0,0.0,0.0,0.0,3.722,3.7142,3.7429,3.7482,3.7586,3.7874,3.79,3.79,3.79,3.79,3.79,3.79,3.79,3.79,3.79,3.8293,0.0,3.9199,4.0238,4.1036,4.1493,0.0,0.0,4.2771,4.3603,4.4164,4.4505,4.5537,4.6252,4.6767,4.7157,4.7309,4.7309,4.7309,4.7309,4.7358,4.8027,4.8528,4.8947,4.986,5.0416,5.0727,5.0727,5.0936,5.1206,5.1206,5.1206,5.1206,5.1206,5.1206,5.1206,5.1206,5.1206,5.1206,5.1206,5.1206,5.1206,5.1206,5.1206,5.1206,5.1206,5.1206,5.1206,5.1206,5.1206,5.1206,5.1206,5.1206,0.0,0.0,0.0,0.0,0.0,0.0,0.0,5.1618,5.1282,5.1101,5.1132,5.0511,5.1337,5.4014,5.3789,5.5052,5.8338,5.9851,6.0749,6.0997,6.1931,6.2391,6.2391,6.2391,6.2391,6.2391,6.2391,6.2391,6.2391,6.2391,6.2391,6.2391,6.2391,6.2391,6.2391,6.2391,6.2391,6.2391,6.2391,6.2391,6.2391,0.0,3.5963,0.0,0.0,3.7472,3.79,3.79,3.8004,3.8019,3.7915,3.79,3.7941,3.8057,3.8083,3.8124,3.8266,3.8266,3.8214,3.8083,3.8083,3.8096,3.8171,3.8376,3.8886,3.9793,4.0833,4.1813,0.0,0.0,4.3893,4.3891,4.4574,4.5032,4.5299,4.619,4.6664,4.6756,4.7146,4.7309,4.7309,4.7309,4.7399,4.7578,4.8248,4.8917,4.9565,5.0189,5.0757,5.1206,5.1206,5.1206,5.1206,5.1206,5.1206,5.1206,5.1206,5.1206,5.1206,5.1206,5.1206,5.1206,5.1206,5.1206,5.1206,5.1206,5.1206,5.1206,5.1206,5.1206,5.1206,5.1206,5.1206,5.1229,5.1288,5.1299,5.1281,0.0,0.0,0.0,0.0,0.0,0.0,5.199,5.1315,5.1027,5.1354,5.0532,5.086,5.2837,5.2818,5.404,5.6792,5.8683,6.0016,6.0713,6.182,6.2391,6.2391,6.2391,6.2391,6.2391,6.2391,6.2391,6.2391,6.2391,6.2391,6.2391,6.2391,6.2391,6.2391,6.2391,6.2391,6.2391,6.2391,6.2391,6.2391,0.0,0.0,0.0,0.0,0.0,3.79,3.79,3.8306,3.8437,3.7978,3.79,3.8083,3.8568,3.862,3.8855,3.9378,3.943,3.9195,3.8672,3.862,3.8764,3.9071,3.9891,4.0774,4.1717,4.3178,4.3931,0.0,0.0,4.4164,4.3485,4.4447,4.5442,4.6436,4.6558,4.6851,4.7244,4.7287,4.7309,4.7309,4.7309,4.7668,4.8278,4.8947,4.9583,5.0207,5.0877,5.1146,5.1206,5.1206,5.1206,5.1206,5.1206,5.1206,5.1206,5.1206,5.1206,5.1206,5.1206,5.1206,5.1206,5.1206,5.1206,5.1206,5.1206,5.1206,5.1206,5.1206,5.1206,5.1206,5.1206,5.1206,5.1288,5.1503,5.1549,5.166,5.1898,0.0,5.1944,5.1967,0.0,0.0,5.2002,5.1918,5.1554,5.0751,5.0259,5.0504,5.1685,5.2303,5.3724,5.6108,5.779,5.8975,5.9734,6.1491,6.2391,6.2391,6.2391,6.2391,6.2391,6.2391,6.2391,6.2391,6.2391,6.2391,6.2391,6.2391,6.2391,6.2391,6.2391,6.2391,6.2391,6.2391,6.2391,6.2391,3.675,3.7242,3.7612,3.7874,3.79,3.8004,3.8344,3.8568,3.8751,3.8907,3.8907,3.8986,3.9233,3.9247,3.9326,3.9587,3.9587,3.9508,3.9247,3.9809,4.021,4.0318,4.1285,4.2229,4.3129,4.3732,4.443,0.0,0.0,0.0,4.5094,4.5482,4.5994,4.662,4.6723,4.6876,4.7062,4.7244,4.7309,4.7339,4.7728,4.8068,4.8397,4.9464,4.9979,5.0297,5.0966,5.1206,5.1206,5.1206,5.1206,5.1206,5.1206,5.1206,5.1206,5.1206,5.1206,5.1206,5.1206,5.1206,5.1206,5.1206,5.1206,5.1206,5.1206,5.1206,5.1206,5.1206,5.1206,5.1206,5.1206,5.1206,5.1241,5.1328,5.1479,5.163,5.1741,0.0,0.0,5.2177,0.0,5.2246,5.2382,5.1914,5.148,5.128,5.0972,5.1067,5.1754,5.246,5.4081,5.6778,5.8039,5.9292,6.0601,6.1779,6.2391,6.2391,6.2391,6.2391,6.2391,6.2391,6.2391,6.2391,6.2391,6.2391,6.2391,6.2391,6.2391,6.2391,6.2391,6.2391,6.2391,6.2391,6.2391,6.2391,3.7186,3.7612,3.79,3.79,3.8019,3.8254,3.8646,3.8986,3.9352,3.977,3.9979,4.0031,3.9848,3.9822,3.99,4.0083,4.0109,4.0164,4.0266,4.0936,4.1515,4.1917,4.2603,0.0,4.4291,4.4488,4.5084,4.6107,4.6008,0.0,4.6142,4.6065,4.6241,4.669,4.6844,4.6942,4.7029,4.7233,4.7309,4.7369,4.8038,4.8409,4.8697,4.98,5.0327,5.0578,5.1026,5.1206,5.1206,5.1206,5.1206,5.1206,5.1206,5.1206,5.1206,5.1206,5.1206,5.1206,5.1206,5.1206,5.1206,5.1206,5.1206,5.1206,5.1206,5.1206,5.1206,5.1206,5.1206,5.1206,5.1206,5.1206,5.1241,5.1281,5.1556,5.1753,5.1792,5.204,0.0,5.2295,5.2306,5.2363,5.2563,5.1979,5.1556,5.1503,5.1634,5.1748,5.1833,5.2688,5.4146,5.623,5.7869,5.9262,6.0456,6.177,6.2391,6.2391,6.2391,6.2391,6.2391,6.2391,6.2391,6.2391,6.2391,6.2391,6.2391,6.2391,6.2391,6.2391,6.2391,6.2391,6.2391,6.2391,6.2391,6.2391,3.7758,3.79,3.79,3.79,3.8344,3.8698,3.8698,3.9665,4.0397,4.0397,4.0919,4.105,4.0449,4.0397,4.0632,4.1233,4.1285,4.1443,4.1856,4.1885,4.2482,4.3809,4.3877,4.4323,4.5273,4.5931,4.6279,4.63,0.0,4.6564,4.6013,4.5736,4.6061,4.6909,4.6909,4.7051,4.7309,4.7309,4.7309,4.7369,4.8038,4.8708,4.9337,4.9979,5.0596,5.1176,5.1206,5.1206,5.1206,5.1206,5.1206,5.1206,5.1206,5.1206,5.1206,5.1206,5.1206,5.1206,5.1206,5.1206,5.1206,5.1206,5.1206,5.1206,5.1206,5.1206,5.1206,5.1206,5.1206,5.1206,5.1206,5.1206,5.1299,5.1537,5.181,5.2052,5.2261,5.2529,0.0,5.2329,5.2306,5.2306,5.2306,5.2276,5.1921,5.1068,5.2041,5.241,5.1744,5.2908,5.3601,5.3643,5.6828,5.8492,5.8535,6.1098,6.2391,6.2391,6.2391,6.2391,6.2391,6.2391,6.2391,6.2391,6.2391,6.2391,6.2391,6.2391,6.2391,6.2391,6.2391,6.2391,6.2391,6.2391,6.2391,6.2391,3.7862,3.8176,3.8449,3.8449,3.8934,3.943,3.9796,4.0162,4.0554,4.0972,4.1181,4.1481,4.198,4.1417,4.1374,4.2245,4.2321,4.2662,4.3483,4.4177,4.4755,4.518,4.5847,4.6372,4.667,4.6879,4.6969,4.6969,4.694,4.6801,4.6594,4.6528,4.6734,4.716,4.716,4.7233,4.7309,4.7309,4.7549,4.8038,4.8708,4.9355,4.9991,5.0637,5.0996,5.1206,5.1206,5.1206,5.1206,5.1206,5.1206,5.1206,5.1206,5.1206,5.1206,5.1206,5.1206,5.1206,5.1206,5.1206,5.1206,5.1206,5.1206,5.1206,5.1206,5.1206,5.1206,5.1206,5.1206,5.1206,5.1206,5.1206,5.1241,5.1323,5.1707,5.2036,5.2075,5.2439,5.2664,5.2586,5.2574,5.2574,5.2574,5.2574,5.2392,5.1921,5.2218,5.2009,5.1,5.3373,5.4673,5.4506,5.7803,5.9588,5.9588,6.1457,6.2391,6.2391,6.2391,6.2391,6.2391,6.2391,6.2391,6.2391,6.2391,6.2391,6.2391,6.2391,6.2391,6.2391,6.2391,6.2391,6.2391,6.2391,6.2391,6.2391,3.8161,3.8463,3.8777,3.8986,3.9508,4.0005,4.0345,4.0923,4.1297,4.1309,4.1634,4.2088,4.2731,4.2235,4.2259,4.3285,4.3368,4.3808,4.4811,4.5451,4.5958,4.6344,4.6964,4.7309,4.7309,4.7309,4.7309,4.7309,4.7117,4.7051,4.7051,4.7051,4.7127,4.7309,4.7309,4.7309,4.7309,4.7309,4.7698,4.8368,4.9048,4.9643,5.0267,5.0936,5.1206,5.1206,5.1206,5.1206,5.1206,5.1206,5.1206,5.1206,5.1206,5.1206,5.1206,5.1206,5.1206,5.1206,5.1206,5.1206,5.1206,5.1206,5.1206,5.1206,5.1206,5.1206,5.1206,5.1206,5.1206,5.1206,5.1206,5.1206,5.1206,5.1206,5.1649,5.2002,5.2002,5.2382,5.2653,5.2563,5.2552,5.2552,5.2552,5.2552,5.2529,5.2442,5.2442,5.2123,5.1432,5.3787,5.5117,5.5055,5.8329,6.0114,6.0114,6.1646,6.2391,6.2391,6.2391,6.2391,6.2391,6.2391,6.2391,6.2391,6.2391,6.2391,6.2391,6.2391,6.2391,6.2391,6.2391,6.2391,6.2391,6.2391,6.2391,6.2391,3.8594,3.8751,3.9009,3.9657,4.0158,4.0524,4.0645,4.1872,4.2504,4.1622,4.2321,4.2937,4.3009,4.3021,4.3428,4.4429,4.4441,4.4834,4.5835,4.5891,4.6311,4.7266,4.7309,4.7309,4.7309,4.7309,4.7309,4.7309,4.7309,4.7309,4.7309,4.7309,4.7309,4.7309,4.7309,4.7309,4.7309,4.7309,4.7698,4.8427,4.9048,4.9684,5.0327,5.0966,5.1206,5.1206,5.1206,5.1206,5.1206,5.1206,5.1206,5.1206,5.1206,5.1206,5.1206,5.1206,5.1206,5.1206,5.1206,5.1206,5.1206,5.1206,5.1206,5.1206,5.1206,5.1206,5.1206,5.1206,5.1206,5.1206,5.1206,5.1206,5.1206,5.1206,5.1649,5.2002,5.2002,5.2382,5.2608,5.2363,5.2329,5.2329,5.2329,5.2329,5.2408,5.2642,5.2664,5.2664,5.2664,5.4094,5.5024,5.5302,5.8407,6.0114,6.0114,6.1646,6.2391,6.2391,6.2391,6.2391,6.2391,6.2391,6.2391,6.2391,6.2391,6.2391,6.2391,6.2391,6.2391,6.2391,6.2391,6.2391,6.2391,6.2391,6.2391,6.2391,3.8684,3.9404,4.0273,4.1209,4.1212,4.1595,4.3136,4.3032,4.2985,4.3523,4.3808,4.4254,4.5001,4.5081,4.5497,4.6506,4.5898,4.5886,4.6887,4.6942,4.7051,4.7298,4.7309,4.7309,4.7309,4.7309,4.7309,4.7309,4.7309,4.7309,4.7309,4.7309,4.7309,4.7309,4.7309,4.7309,4.7309,4.7309,4.7967,4.9078,4.9228,4.9984,5.0966,5.1146,5.1206,5.1206,5.1206,5.1206,5.1206,5.1206,5.1206,5.1206,5.1206,5.1206,5.1206,5.1206,5.1206,5.1206,5.1206,5.1206,5.1206,5.1206,5.1206,5.1206,5.1206,5.1206,5.1206,5.1206,5.1206,5.1206,5.1206,5.1206,5.1206,5.1206,5.1649,5.2002,5.2002,5.2382,5.2664,5.2608,5.2608,5.2608,5.2608,5.2608,5.2552,5.2408,5.2386,5.2386,5.2386,5.3977,5.5024,5.5302,5.8407,6.0114,6.0114,6.1646,6.2391,6.2391,6.2391,6.2391,6.2391,6.2391,6.2391,6.2391,6.2391,6.2391,6.2391,6.2391,6.2391,6.2391,6.2391,6.2391,6.2391,6.2391,6.2391,6.2391,3.9064,4.018,4.1336,4.2181,4.2518,4.3048,4.4137,4.4242,4.4191,4.4289,4.4707,4.5201,4.5745,4.5801,4.6199,4.7222,4.6792,4.6715,4.7266,4.7309,4.7309,4.7309,4.7309,4.7309,4.7309,4.7309,4.7309,4.7309,4.7309,4.7309,4.7309,4.7309,4.7309,4.7309,4.7309,4.7309,4.7328,4.7638,4.8338,4.9318,4.9595,5.032,5.1206,5.1206,5.1206,5.1206,5.1206,5.1206,5.1206,5.1206,5.1206,5.1206,5.1206,5.1206,5.1206,5.1206,5.1206,5.1206,5.1206,5.1206,5.1206,5.1206,5.1206,5.1206,5.1206,5.1206,5.1206,5.1206,5.1206,5.1206,5.1206,5.1206,5.1206,5.1206,5.1649,5.2002,5.2002,5.2382,5.2687,5.2687,5.2687,5.2687,5.2687,5.2687,5.2631,5.2507,5.2495,5.2495,5.2495,5.4147,5.5287,5.5796,5.8617,6.0283,6.0655,6.1815,6.2391,6.2391,6.2391,6.2391,6.2391,6.2391,6.2391,6.2391,6.2391,6.2391,6.2391,6.2391,6.2391,6.2391,6.2391,6.2391,6.2391,6.2391,6.2391,6.2391,3.9757,4.1138,4.2468,4.3127,4.3843,4.4406,4.4707,4.5349,4.5553,4.4846,4.5497,4.6043,4.6043,4.6043,4.6366,4.7244,4.7309,4.7309,4.7309,4.7309,4.7309,4.7309,4.7309,4.7309,4.7309,4.7309,4.7309,4.7309,4.7309,4.7309,4.7309,4.7309,4.7309,4.7309,4.7309,4.7309,4.7328,4.8008,4.8678,4.9348,4.9949,5.0596,5.1206,5.1206,5.1206,5.1206,5.1206,5.1206,5.1206,5.1206,5.1206,5.1206,5.1206,5.1206,5.1206,5.1206,5.1206,5.1206,5.1206,5.1206,5.1206,5.1206,5.1206,5.1206,5.1206,5.1206,5.1206,5.1206,5.1206,5.1206,5.1206,5.1206,5.1229,5.1234,5.1672,5.2025,5.2029,5.2405,5.2687,5.2687,5.2687,5.2687,5.2687,5.2687,5.2687,5.2687,5.2687,5.2687,5.2687,5.4338,5.5689,5.6551,5.885,6.0554,6.1467,6.2086,6.2391,6.2391,6.2391,6.2391,6.2391,6.2391,6.2391,6.2391,6.2391,6.2391,6.2391,6.2391,6.2391,6.2391,6.2391,6.2391,6.2391,6.2391,6.2391,6.2391,4.0989,4.2519,4.4235,4.5172,4.4776,4.4869,4.6561,4.6244,4.6066,4.6726,4.6964,4.7062,4.7062,4.7062,4.7117,4.7298,4.7309,4.7309,4.7309,4.7309,4.7309,4.7309,4.7309,4.7309,4.7309,4.7309,4.7309,4.7309,4.7309,4.7309,4.7309,4.7309,4.7309,4.7309,4.7309,4.7309,4.7328,4.8008,4.8678,4.9348,4.9949,5.0596,5.1206,5.1206,5.1206,5.1206,5.1206,5.1206,5.1206,5.1206,5.1206,5.1206,5.1206,5.1206,5.1206,5.1206,5.1206,5.1206,5.1206,5.1206,5.1206,5.1206,5.1206,5.1206,5.1206,5.1206,5.1206,5.1206,5.1206,5.1206,5.1206,5.1206,5.1288,5.1491,5.1799,5.2052,5.2227,5.2518,5.2687,5.2687,5.2687,5.2687,5.2687,5.2687,5.2687,5.2687,5.2687,5.2687,5.2687,5.4338,5.5916,5.7307,5.914,6.0791,6.2221,6.2357,6.2391,6.2391,6.2391,6.2391,6.2391,6.2391,6.2391,6.2391,6.2391,6.2391,6.2391,6.2391,6.2391,6.2391,6.2391,6.2391,6.2391,6.2391,6.2391,6.2391,4.1957,4.3601,4.5258,4.5723,4.5875,4.624,4.7168,4.692,4.6759,4.7244,4.7309,4.7309,4.7309,4.7309,4.7309,4.7309,4.7309,4.7309,4.7309,4.7309,4.7309,4.7309,4.7309,4.7309,4.7309,4.7309,4.7309,4.7309,4.7309,4.7309,4.7309,4.7309,4.7309,4.7309,4.7309,4.7309,4.7369,4.8397,4.9018,4.9366,5.035,5.0936,5.1206,5.1206,5.1206,5.1206,5.1206,5.1206,5.1206,5.1206,5.1206,5.1206,5.1206,5.1206,5.1206,5.1206,5.1206,5.1206,5.1206,5.1206,5.1206,5.1206,5.1206,5.1206,5.1206,5.1206,5.1206,5.1206,5.1206,5.1206,5.1206,5.1206,5.1299,5.1549,5.1822,5.2063,5.2272,5.2541,5.2687,5.2687,5.2687,5.2687,5.2687,5.2687,5.2687,5.2687,5.2687,5.2687,5.2687,5.4338,5.5991,5.7437,5.9994,6.168,6.2391,6.2391,6.2391,6.2391,6.2391,6.2391,6.2391,6.2391,6.2391,6.2391,6.2391,6.2391,6.2391,6.2391,6.2391,6.2391,6.2391,6.2391,6.2391,6.2391,6.2391,6.2391,4.2858,4.462,4.6155,4.6155,4.6781,4.7309,4.7309,4.7309,4.7309,4.7309,4.7309,4.7309,4.7309,4.7309,4.7309,4.7309,4.7309,4.7309,4.7309,4.7309,4.7309,4.7309,4.7309,4.7309,4.7309,4.7309,4.7309,4.7309,4.7309,4.7309,4.7309,4.7309,4.7309,4.7309,4.7309,4.7309,4.7399,4.8738,4.9288,4.9408,5.069,5.1206,5.1229,5.1444,5.1386,5.1241,5.1456,5.1386,5.1206,5.1206,5.1206,5.1206,5.1206,5.1206,5.1206,5.1206,5.1206,5.1206,5.1206,5.1206,5.1206,5.1206,5.1206,5.1206,5.1206,5.1206,5.1206,5.1206,5.1206,5.1206,5.1206,5.1264,5.1393,5.166,5.1903,5.2143,5.2352,5.2574,5.2687,5.2687,5.2687,5.2687,5.2687,5.2687,5.2687,5.2687,5.2687,5.2687,5.2687,5.4518,5.6413,5.8324,6.1006,6.2391,6.2391,6.2391,6.2391,6.2391,6.2391,6.2391,6.2391,6.2391,6.2391,6.2391,6.2391,6.2391,6.2391,6.2391,6.2391,6.2391,6.2391,6.2391,6.2391,6.2391,6.2391,6.2391,4.3981,4.5625,4.7201,4.7201,4.7255,4.7309,4.7309,4.7309,4.7309,4.7309,4.7309,4.7309,4.7309,4.7309,4.7309,4.7309,4.7309,4.7309,4.7309,4.7309,4.7309,4.7309,4.7309,4.7309,4.7309,4.7309,4.7309,4.7309,4.7309,4.7309,4.7309,4.7309,4.7309,4.7309,4.7309,4.7309,4.7399,4.8738,4.9288,4.9408,5.069,5.1206,5.1281,5.2185,5.1968,5.1304,5.2166,5.1945,5.1206,5.1206,5.1206,5.1206,5.1206,5.1206,5.1206,5.1206,5.1206,5.1206,5.1206,5.1206,5.1206,5.1206,5.1206,5.1206,5.1206,5.1206,5.1206,5.1206,5.1206,5.1206,5.1206,5.1386,5.1672,5.1944,5.2155,5.2363,5.2619,5.2676,5.2687,5.2687,5.2687,5.2687,5.2687,5.2687,5.2687,5.2687,5.2687,5.2687,5.2687,5.4996,5.7745,6.0907,6.1926,6.2391,6.2391,6.2391,6.2391,6.2391,6.2391,6.2391,6.2391,6.2391,6.2391,6.2391,6.2391,6.2391,6.2391,6.2391,6.2391,6.2391,6.2391,6.2391,6.2391,6.2391,6.2391,6.2391,4.4768,4.58,4.682,4.7249,4.7309,4.7309,4.7309,4.7309,4.7309,4.7309,4.7309,4.7309,4.7309,4.7309,4.7309,4.7309,4.7309,4.7309,4.7309,4.7309,4.7309,4.7309,4.7309,4.7309,4.7309,4.7309,4.7309,4.7309,4.7309,4.7309,4.7309,4.7309,4.7309,4.7309,4.7309,4.7309,4.7369,4.8278,4.8917,4.9366,5.023,5.0817,5.1253,5.1607,5.1514,5.1264,5.1618,5.1503,5.1206,5.1206,5.1206,5.1206,5.1206,5.1206,5.1206,5.1206,5.1206,5.1206,5.1206,5.1206,5.1206,5.1206,5.1206,5.1206,5.1206,5.1206,5.1206,5.1206,5.1206,5.1206,5.1206,5.1428,5.1695,5.1967,5.2177,5.2386,5.2653,5.2687,5.2687,5.2687,5.2687,5.2687,5.2687,5.2687,5.2687,5.2687,5.2687,5.2687,5.2687,5.5495,5.8365,6.1216,6.2018,6.2391,6.2391,6.2391,6.2391,6.2391,6.2391,6.2391,6.2391,6.2391,6.2391,6.2391,6.2391,6.2391,6.2391,6.2391,6.2391,6.2391,6.2391,6.2391,6.2391,6.2391,6.2391,6.2391,4.4915,4.5713,4.645,4.6909,4.7149,4.7309,4.7309,4.7309,4.7309,4.7309,4.7309,4.7309,4.7309,4.7309,4.7309,4.7309,4.7309,4.7309,4.7309,4.7309,4.7309,4.7309,4.7309,4.7309,4.7309,4.7309,4.7309,4.7309,4.7309,4.7309,4.7309,4.7309,4.7309,4.7309,4.7309,4.7309,4.7328,4.8008,4.8678,4.9348,4.9949,5.0596,5.1241,5.1537,5.1456,5.1253,5.1537,5.1456,5.1206,5.1206,5.1206,5.1206,5.1206,5.1206,5.1206,5.1206,5.1206,5.1206,5.1206,5.1206,5.1206,5.1206,5.1206,5.1206,5.1206,5.1206,5.1206,5.1206,5.1206,5.1206,5.1206,5.1428,5.1695,5.1967,5.2177,5.2386,5.2653,5.2687,5.2687,5.2687,5.2687,5.2687,5.2687,5.2687,5.2687,5.2687,5.2687,5.3152,5.4158,5.652,5.9023,6.1554,6.2154,6.2391,6.2391,6.2391,6.2391,6.2391,6.2391,6.2391,6.2391,6.2391,6.2391,6.2391,6.2391,6.2391,6.2391,6.2391,6.2391,6.2391,6.2391,6.2391,6.2391,6.2391,6.2391,6.2391,4.4307,4.5373,4.63,4.63,4.685,4.7309,4.7309,4.7309,4.7309,4.7309,4.7309,4.7309,4.7309,4.7309,4.7309,4.7309,4.7309,4.7309,4.7309,4.7309,4.7309,4.7309,4.7309,4.7309,4.7309,4.7309,4.7309,4.7309,4.7309,4.7309,4.7309,4.7309,4.7309,4.7309,4.7309,4.7309,4.7339,4.8008,4.8678,4.9337,4.9949,5.0596,5.1281,5.2222,5.2014,5.1316,5.2245,5.1991,5.1206,5.1206,5.1206,5.1206,5.1206,5.1206,5.1206,5.1206,5.1206,5.1206,5.1206,5.1206,5.1206,5.1206,5.1206,5.1206,5.1206,5.1206,5.1206,5.1206,5.1206,5.1206,5.1206,5.1428,5.1695,5.1967,5.2177,5.2386,5.2653,5.2687,5.2687,5.2687,5.2687,5.2687,5.2687,5.2729,5.2729,5.2687,5.2687,5.4105,5.7342,5.8194,5.9769,6.2308,6.2391,6.2391,6.2391,6.2391,6.2391,6.2391,6.2391,6.2391,6.2391,6.2391,6.2391,6.2391,6.2391,6.2391,6.2391,6.2391,6.2391,6.2391,6.2391,6.2391,6.2391,6.2391,6.2391,6.2391,4.4207,4.4995,4.5743,4.6211,4.685,4.7309,4.7309,4.7309,4.7309,4.7309,4.7309,4.7309,4.7309,4.7309,4.7309,4.7309,4.7309,4.7309,4.7309,4.7309,4.7309,4.7309,4.7309,4.7309,4.7309,4.7309,4.7309,4.7309,4.7309,4.7309,4.7309,4.7309,4.7309,4.7309,4.7309,4.7309,4.7298,4.7519,4.7978,4.8648,4.9307,4.9931,5.0571,5.1333,5.1444,5.1253,5.1526,5.1433,5.1206,5.1206,5.1206,5.1206,5.1206,5.1206,5.1206,5.1206,5.1206,5.1206,5.1206,5.1206,5.1206,5.1206,5.1206,5.1206,5.1206,5.1206,5.1206,5.1206,5.1206,5.1206,5.1206,5.1428,5.1695,5.1967,5.2177,5.2386,5.2653,5.2687,5.2687,5.2687,5.2687,5.2687,5.2687,5.3236,5.3357,5.2743,5.3148,5.4614,5.7342,5.8194,5.9769,6.2308,6.2391,6.2391,6.2391,6.2391,6.2391,6.2391,6.2391,6.2391,6.2391,6.2391,6.2391,6.2391,6.2391,6.2391,6.2391,6.2391,6.2391,6.2391,6.2391,6.2391,6.2391,6.2391,6.2391,6.2391,4.3818,4.4456,4.5125,4.5802,4.6461,4.6999,4.7268,4.7309,4.7309,4.7309,4.7309,4.7309,4.7309,4.7309,4.7309,4.7309,4.7309,4.7309,4.7309,4.7309,4.7309,4.7309,4.7309,4.7309,4.7309,4.7309,4.7309,4.7309,4.7309,4.7309,4.7309,4.7309,4.7309,4.7309,4.7309,4.7309,4.7309,4.7309,4.7698,4.8338,4.8738,4.9434,5.0226,5.0656,5.0966,5.1206,5.1206,5.1206,5.1206,5.1206,5.1206,5.1206,5.1206,5.1206,5.1206,5.1206,5.1206,5.1206,5.1206,5.1206,5.1206,5.1206,5.1206,5.1206,5.1206,5.1206,5.1206,5.1206,5.1206,5.1206,5.1206,5.1316,5.1567,5.1944,5.2098,5.2303,5.2642,5.2687,5.2687,5.2687,5.2687,5.2687,5.2687,5.3499,5.3782,5.3236,5.3765,5.5104,5.7374,5.8442,6.0043,6.2341,6.2391,6.2391,6.2391,6.2391,6.2391,6.2391,6.2391,6.2391,6.2391,6.2391,6.2391,6.2391,6.2391,6.2391,6.2391,6.2391,6.2391,6.2391,6.2391,6.2391,6.2391,6.2391,6.2391,6.2391,4.33,4.3848,4.4486,4.5095,4.5802,4.651,4.7119,4.7268,4.7309,4.7309,4.7309,4.7309,4.7309,4.7309,4.7309,4.7309,4.7309,4.7309,4.7309,4.7309,4.7309,4.7309,4.7309,4.7309,4.7309,4.7309,4.7309,4.7309,4.7309,4.7309,4.7309,4.7309,4.7309,4.7309,4.7309,4.7309,4.7309,4.7309,4.7638,4.8218,4.8278,4.8974,5.0028,5.0147,5.0578,5.1128,5.1187,5.1206,5.1206,5.1206,5.1206,5.1206,5.1206,5.1206,5.1206,5.1206,5.1206,5.1206,5.1206,5.1206,5.1206,5.1206,5.1206,5.1206,5.1206,5.1206,5.1206,5.1206,5.1206,5.1206,5.1206,5.1206,5.1381,5.1921,5.2002,5.2174,5.2619,5.2687,5.2687,5.2687,5.2687,5.2687,5.2687,5.3423,5.3934,5.4094,5.4468,5.5533,5.7512,5.8885,6.0472,6.2341,6.2391,6.2391,6.2391,6.2391,6.2391,6.2391,6.2391,6.2391,6.2391,6.2391,6.2391,6.2391,6.2391,6.2391,6.2391,6.2391,6.2391,6.2391,6.2391,6.2391,6.2391,6.2391,6.2391,6.2391,4.33,4.3848,4.4366,4.4486,4.5493,4.636,4.648,4.6969,4.7309,4.7309,4.7309,4.7309,4.7309,4.7309,4.7309,4.7309,4.7309,4.7309,4.7309,4.7309,4.7309,4.7309,4.7309,4.7309,4.7309,4.7309,4.7309,4.7309,4.7309,4.7309,4.7309,4.7309,4.7309,4.7309,4.7309,4.7309,4.7309,4.7309,4.7388,4.7549,4.8098,4.8457,4.8835,4.983,5.0297,5.0476,5.0996,5.1206,5.1206,5.1206,5.1206,5.1206,5.1206,5.1206,5.1206,5.1206,5.1206,5.1206,5.1206,5.1206,5.1206,5.1206,5.1206,5.1206,5.1206,5.1206,5.1206,5.1206,5.1206,5.1206,5.1206,5.1206,5.1381,5.1921,5.2002,5.2174,5.2619,5.2687,5.2687,5.2687,5.2687,5.2687,5.2687,5.2877,5.3554,5.4923,5.4807,5.5815,5.8383,5.9207,6.0472,6.2341,6.2391,6.2391,6.2391,6.2391,6.2391,6.2391,6.2391,6.2391,6.2391,6.2391,6.2391,6.2391,6.2391,6.2391,6.2391,6.2391,6.2391,6.2391,6.2391,6.2391,6.2391,6.2391,6.2391,6.2391,4.33,4.3569,4.3938,4.4237,4.4875,4.5553,4.6211,4.66,4.6939,4.7268,4.7309,4.7309,4.7309,4.7309,4.7309,4.7309,4.7309,4.7309,4.7309,4.7309,4.7309,4.7309,4.7309,4.7309,4.7309,4.7309,4.7309,4.7309,4.7309,4.7309,4.7309,4.7309,4.7309,4.7309,4.7309,4.7309,4.7309,4.7309,4.7309,4.7339,4.7668,4.8008,4.8368,4.9045,4.968,5.0267,5.0596,5.0936,5.1206,5.1206,5.1206,5.1206,5.1206,5.1206,5.1206,5.1206,5.1206,5.1206,5.1206,5.1206,5.1206,5.1206,5.1206,5.1206,5.1206,5.1206,5.1206,5.1206,5.1206,5.1206,5.1206,5.1206,5.1381,5.1921,5.2002,5.2174,5.2619,5.2687,5.2687,5.2687,5.2687,5.2866,5.3269,5.2924,5.3257,5.459,5.4704,5.553,5.7396,5.8842,6.0269,6.1676,6.2183,6.2391,6.2391,6.2391,6.2391,6.2391,6.2391,6.2391,6.2391,6.2391,6.2391,6.2391,6.2391,6.2391,6.2391,6.2391,6.2391,6.2391,6.2391,6.2391,6.2391,6.2391,6.2391,6.2391,4.33,4.33,4.3479,4.4027,4.4207,4.4655,4.5792,4.6061,4.6371,4.7029,4.7119,4.7179,4.7309,4.7309,4.7309,4.7309,4.7309,4.7309,4.7309,4.7309,4.7309,4.7309,4.7309,4.7309,4.7309,4.7309,4.7309,4.7309,4.7309,4.7309,4.7309,4.7309,4.7309,4.7309,4.7309,4.7309,4.7309,4.7309,4.7309,4.7309,4.7309,4.7638,4.8128,4.8248,4.8955,4.9908,5.0117,5.0637,5.1206,5.1206,5.1206,5.1206,5.1206,5.1206,5.1206,5.1206,5.1206,5.1206,5.1206,5.1206,5.1206,5.1206,5.1206,5.1206,5.1206,5.1206,5.1206,5.1206,5.1206,5.1206,5.1206,5.1206,5.1369,5.1834,5.1979,5.2162,5.2563,5.2664,5.2687,5.2687,5.2687,5.2969,5.3707,5.3124,5.3124,5.4147,5.4513,5.5234,5.6492,5.8494,6.0022,6.0966,6.1911,6.2391,6.2391,6.2391,6.2391,6.2391,6.2391,6.2391,6.2391,6.2391,6.2391,6.2391,6.2391,6.2391,6.2391,6.2391,6.2391,6.2391,6.2391,6.2391,6.2391,6.2391,6.2391,6.2391,4.33,4.33,4.3329,4.3419,4.3908,4.4366,4.4536,4.5065,4.5693,4.636,4.645,4.667,4.7249,4.7309,4.7309,4.7309,4.7309,4.7309,4.7309,4.7309,4.7309,4.7309,4.7309,4.7309,4.7309,4.7309,4.7309,4.7309,4.7309,4.7309,4.7309,4.7309,4.7309,4.7309,4.7309,4.7309,4.7309,4.7309,4.7309,4.7309,4.7309,4.7369,4.7489,4.8068,4.8397,4.8686,4.9788,5.0637,5.1206,5.1206,5.1206,5.1206,5.1206,5.1206,5.1206,5.1206,5.1206,5.1206,5.1206,5.1206,5.1206,5.1206,5.1206,5.1206,5.1206,5.1206,5.1206,5.1206,5.1206,5.1206,5.1206,5.1206,5.1311,5.1614,5.1845,5.2075,5.2318,5.2552,5.2687,5.2687,5.2687,5.2743,5.2866,5.2765,5.3357,5.5015,5.4851,5.577,5.8218,5.9154,6.0022,6.0966,6.1911,6.2391,6.2391,6.2391,6.2391,6.2391,6.2391,6.2391,6.2391,6.2391,6.2391,6.2391,6.2391,6.2391,6.2391,6.2391,6.2391,6.2391,6.2391,6.2391,6.2391,6.2391,6.2391,6.2391,4.33,4.33,4.33,4.33,4.3539,4.3878,4.4247,4.4546,4.4965,4.5653,4.6061,4.642,4.6719,4.7089,4.7309,4.7309,4.7309,4.7309,4.7309,4.7309,4.7309,4.7309,4.7309,4.7309,4.7309,4.7309,4.7309,4.7309,4.7309,4.7309,4.7309,4.7309,4.7309,4.7309,4.7309,4.7309,4.7309,4.7309,4.7309,4.7309,4.7309,4.7309,4.7328,4.7638,4.7978,4.8457,4.974,5.0637,5.1206,5.1206,5.1206,5.1206,5.1206,5.1206,5.1206,5.1206,5.1206,5.1206,5.1206,5.1206,5.1206,5.1206,5.1206,5.1206,5.1206,5.1206,5.1206,5.1206,5.1206,5.1206,5.1206,5.1206,5.1299,5.1549,5.1707,5.1914,5.2249,5.2397,5.2541,5.2664,5.2687,5.29,5.3379,5.3434,5.3955,5.522,5.5044,5.5541,5.7109,5.7845,5.8815,6.0172,6.1111,6.187,6.2381,6.2391,6.2391,6.2391,6.2391,6.2391,6.2391,6.2391,6.2391,6.2391,6.2391,6.2391,6.2391,6.2391,6.2391,6.2391,6.2391,6.2391,6.2391,6.2391,6.2391,6.2391]}]]